[[{"header":{"parameterUnit":"m.s-1","parameterCategory":1,"la1":30.6,"la2":29.2853,"lo1":-89.7004,"lo2":-87.6739,"dy":0.0162,"dx":0.0183,"nx":112,"ny":82,"refTime":"2023-05-19T12:00:00:Z","depth":0,"parameterNumber":2,"parameterNumberName":"U-component_of_WINDS"},"data":[0.0,0.0,0.0,0.0,0.0,0.0,0.0,0.0,0.0,0.0,0.0,0.0,0.0,0.0,0.0,0.0,0.0,0.0,0.0,0.0,0.0,0.0,0.0,0.0,0.0,0.0,0.0,0.0,0.0,0.0,0.0,0.0,0.0,0.0,0.0,0.0,0.0,0.0,0.0,0.0,0.0,0.0,0.0,0.0,0.0,0.0,0.0,0.0,0.0,0.0,0.0,0.0,0.0,0.0,0.0,0.0,0.0,0.0,0.0,0.0,0.0,0.0,0.0,0.0,0.0,0.0,0.0,0.0,0.0,0.0,0.0,0.0,0.0,0.0,0.0,0.0,0.0,0.0,0.0,0.0,0.0,0.0,0.0,0.0,0.0,0.0,0.0,0.0,0.0,0.0,0.0,1.691,1.8532,1.9442,1.9442,1.8762,1.8238,1.7972,0.0,0.0,0.0,0.0,0.0,0.0,0.0,0.0,0.0,0.0,0.0,0.0,0.0,0.0,0.0,0.0,0.0,0.0,0.0,0.0,0.0,0.0,0.0,0.0,0.0,0.0,0.0,0.0,0.0,0.0,0.0,0.0,0.0,0.0,0.0,0.0,0.0,0.0,0.0,0.0,0.0,0.0,0.0,0.0,0.0,0.0,0.0,0.0,0.0,0.0,0.0,0.0,0.0,0.0,0.0,0.0,0.0,0.0,0.0,0.0,0.0,0.0,0.0,0.0,0.0,0.0,0.0,0.0,0.0,0.0,0.0,0.0,0.0,0.0,0.0,0.0,0.0,0.0,0.0,0.0,0.0,0.0,0.0,0.0,0.0,0.0,0.0,0.0,0.0,0.0,0.0,0.0,0.0,0.0,0.0,0.0,0.0,0.0,0.0,0.0,0.0,0.0,0.0,0.0,1.551,1.634,1.7576,1.8341,1.8341,1.7292,1.6867,1.7396,0.0,0.0,0.0,0.0,0.0,0.0,0.0,0.0,0.0,0.0,0.0,0.0,0.0,0.0,0.0,0.0,0.0,0.0,0.0,0.0,0.0,0.0,0.0,0.0,0.0,0.0,0.0,0.0,0.0,0.0,0.0,0.0,0.0,0.0,0.0,0.0,0.0,0.0,0.0,0.0,0.0,0.0,0.0,0.0,0.0,0.0,0.0,0.0,0.0,0.0,0.0,0.0,0.0,0.0,0.0,0.0,0.0,0.0,0.0,0.0,0.0,0.0,0.0,0.0,0.0,0.0,0.0,0.0,0.0,0.0,0.0,0.0,0.0,0.0,0.0,0.0,0.0,0.0,0.0,0.0,0.0,0.0,0.0,0.0,0.0,0.0,0.0,0.0,0.0,0.0,0.0,0.0,0.0,0.0,0.0,0.0,0.0,0.0,0.0,0.0,0.0,0.0,0.0,1.3973,1.4839,1.5397,1.6487,1.7237,1.7237,1.6381,1.6145,1.6811,1.5337,0.0,0.0,0.0,0.0,0.0,0.0,0.0,0.0,0.0,0.0,0.0,0.0,0.0,0.0,0.0,0.0,0.0,0.0,0.0,0.0,0.0,0.0,0.0,0.0,0.0,0.0,0.0,0.0,0.0,0.0,0.0,0.0,0.0,0.0,0.0,0.0,0.0,0.0,0.0,0.0,0.0,0.0,0.0,0.0,0.0,0.0,0.0,0.0,0.0,0.0,0.0,0.0,0.0,0.0,0.0,0.0,0.0,0.0,0.0,0.0,0.0,0.0,0.0,0.0,0.0,0.0,0.0,0.0,0.0,0.0,0.0,0.0,0.0,0.0,0.0,0.0,0.0,0.0,0.0,0.0,0.0,0.0,0.0,0.0,0.0,0.0,0.0,0.0,0.0,0.0,0.0,0.0,0.0,0.0,0.0,0.0,0.0,0.0,0.0,0.0,0.0,0.0,1.2842,1.343,1.3989,1.5082,1.5765,1.5765,1.5181,1.5138,1.5889,1.4308,0.0,0.0,0.0,0.0,0.0,0.0,0.0,0.0,0.0,0.0,0.0,0.0,0.0,0.0,0.0,0.0,0.0,0.0,0.0,0.0,0.0,0.0,0.0,0.0,0.0,0.0,0.0,0.0,0.0,0.0,0.0,0.0,0.0,0.0,0.0,0.0,0.0,0.0,0.0,0.0,0.0,0.0,0.0,0.0,0.0,0.0,0.0,0.0,0.0,0.0,0.0,0.0,0.0,0.0,0.0,0.0,0.0,0.0,0.0,0.0,0.0,0.0,0.0,0.0,0.0,0.0,0.0,0.0,0.0,0.0,0.0,0.0,0.0,0.0,0.0,0.0,0.0,0.0,0.0,0.0,0.0,0.0,0.0,0.0,0.0,0.0,0.0,0.0,0.0,0.0,0.0,0.0,0.0,0.0,0.0,0.0,0.0,0.0,0.0,0.0,0.0,0.0,1.1818,1.1502,1.2043,1.3011,1.3639,1.3639,1.3127,1.3197,1.4216,1.3075,0.0,0.0,0.0,0.0,0.0,0.0,0.0,0.0,0.0,0.0,0.0,0.0,0.0,0.0,0.0,0.0,0.0,0.0,0.0,0.0,0.0,0.0,0.0,0.0,0.0,0.0,0.0,0.0,0.0,0.0,0.0,0.0,0.0,0.0,0.0,0.0,0.0,0.0,0.0,0.0,0.0,0.0,0.0,0.0,0.0,0.0,0.0,0.0,0.0,0.0,0.0,0.0,0.0,0.0,0.0,0.0,0.0,0.0,0.0,0.0,0.0,0.0,0.0,0.0,0.0,0.0,0.0,0.0,0.0,0.0,0.0,0.0,0.0,0.0,0.0,0.0,0.0,0.0,0.0,0.0,0.0,0.0,0.0,0.0,0.0,0.0,0.0,0.0,0.0,0.0,0.0,0.0,0.0,0.0,0.0,0.0,0.0,0.0,0.0,0.0,0.0,0.0,1.1015,1.0753,0.0,1.1335,1.1682,1.1952,1.1768,1.2084,1.3087,0.0,0.0,0.0,0.0,0.0,0.0,0.0,0.0,0.0,0.0,0.0,0.0,0.0,0.0,0.0,0.0,0.0,0.0,0.0,0.0,0.0,0.0,0.0,0.0,0.0,0.0,0.0,0.0,0.0,0.0,0.0,0.0,0.0,0.0,0.0,0.0,0.0,0.0,0.0,0.0,0.0,0.0,0.0,0.0,0.0,0.0,0.0,0.0,0.0,0.0,0.0,0.0,0.0,0.0,0.0,0.0,0.0,0.0,0.0,0.0,0.0,0.0,0.0,0.0,0.0,0.0,0.0,0.0,0.0,0.0,0.0,0.0,0.0,0.0,0.0,0.0,0.0,0.0,0.0,0.0,0.0,0.0,0.0,0.0,0.0,0.0,0.0,0.0,0.0,0.0,0.0,0.0,0.0,0.0,0.0,0.0,0.0,0.0,0.0,0.0,0.0,0.0,1.0947,1.0462,1.0169,0.0,1.0329,1.0569,1.0812,1.068,1.0999,1.1899,0.0,0.0,0.0,0.0,0.0,0.0,0.0,0.0,0.0,0.0,0.0,0.0,0.0,0.0,0.0,0.0,0.0,0.0,0.0,0.0,0.0,0.0,0.0,0.0,0.0,0.0,0.0,0.0,0.0,0.0,0.0,0.0,0.0,0.0,0.0,0.0,0.0,0.0,0.0,0.0,0.0,0.0,0.0,0.0,0.0,0.0,0.0,0.0,0.0,0.0,0.0,0.0,0.0,0.0,0.0,0.0,0.0,0.0,0.0,0.0,0.0,0.0,0.0,0.0,0.0,0.0,0.0,0.0,0.0,0.0,0.0,0.0,0.0,0.0,0.0,0.0,0.0,0.0,0.0,0.0,0.0,0.0,0.0,0.0,0.0,0.0,0.0,0.0,0.0,0.0,0.0,0.0,0.0,0.0,0.0,0.0,0.0,0.0,0.0,0.0,0.0,0.0,1.0908,1.0118,0.9583,0.9592,1.001,1.0273,1.0273,0.9795,0.9812,0.0,0.0,0.0,0.0,0.0,0.0,0.0,0.0,0.0,0.0,0.0,0.0,0.0,0.0,0.0,0.0,0.0,0.0,0.0,0.0,0.0,0.0,0.0,0.0,0.0,0.0,0.0,0.0,0.0,0.0,0.0,0.0,0.0,0.0,0.0,0.0,0.0,0.0,0.0,0.0,0.0,0.0,0.0,0.0,0.0,0.0,0.0,0.0,0.0,0.0,0.0,0.0,0.0,0.0,0.0,0.0,0.0,0.0,0.0,0.0,0.0,0.0,0.0,0.0,0.0,0.0,0.0,0.0,0.0,0.0,0.0,0.0,0.0,0.0,0.0,0.0,0.0,0.0,0.0,0.0,0.0,0.0,0.0,0.0,0.0,0.0,0.0,0.0,0.0,0.0,0.0,0.0,0.0,0.0,0.0,0.0,0.0,0.0,0.0,0.0,0.0,0.0,0.0,0.0,0.9554,0.8863,0.9527,0.8776,0.8536,0.9188,0.8963,0.8998,0.951,0.0,0.0,0.0,0.0,0.0,0.0,0.0,0.0,0.0,0.0,0.0,0.0,0.0,0.0,0.0,0.0,0.0,0.0,0.0,0.0,0.0,0.0,0.0,0.0,0.0,0.0,0.0,0.0,0.0,0.0,0.0,0.0,0.0,0.0,0.0,0.0,0.0,0.0,0.0,0.0,0.0,0.0,0.0,0.0,0.0,0.0,0.0,0.0,0.0,0.0,0.0,0.0,0.0,0.0,0.0,0.0,0.0,0.0,0.0,0.0,0.0,0.0,0.0,0.0,0.0,0.0,0.0,0.0,0.0,0.0,0.0,0.0,0.0,0.0,0.0,0.0,0.0,0.0,0.0,0.0,0.0,0.0,0.0,0.0,0.0,0.0,0.0,0.0,0.0,0.0,0.0,0.0,0.0,0.0,0.0,0.0,0.0,0.0,0.0,0.0,0.0,0.0,1.1416,0.9932,0.9154,0.9909,0.8688,0.8078,0.8643,0.8095,0.7907,0.8258,0.0,0.0,0.0,0.0,0.0,0.0,0.0,0.0,0.0,0.0,0.0,0.0,0.0,0.0,0.0,0.0,0.0,0.0,0.0,0.0,0.0,0.0,0.0,0.0,0.0,0.0,0.0,0.0,0.0,0.0,0.0,0.0,0.0,0.0,0.0,0.0,0.0,0.0,0.0,0.0,0.0,0.0,0.0,0.0,0.0,0.0,0.0,0.0,0.0,0.0,0.0,0.0,0.0,0.0,0.0,0.0,0.0,0.0,0.0,0.0,0.0,0.0,0.0,0.0,0.0,0.0,0.0,0.0,0.0,0.0,0.0,0.0,0.0,0.0,0.0,0.0,0.0,0.0,0.0,0.0,0.0,0.0,0.0,0.0,0.0,0.0,0.0,0.0,0.0,0.0,0.0,0.0,0.0,0.0,0.0,0.0,0.0,0.0,0.0,0.0,0.0,0.0,1.2134,1.0704,0.9857,1.0338,0.9113,0.8318,0.8371,0.7205,0.6602,0.6873,0.0,0.0,0.0,0.0,0.0,0.0,0.0,0.0,0.0,0.0,0.0,0.0,0.0,0.0,0.0,0.0,0.0,0.0,0.0,0.0,0.0,0.0,0.0,0.0,0.0,0.0,0.0,0.0,0.0,0.0,0.0,0.0,0.0,0.0,0.0,0.0,0.0,0.0,0.0,0.0,0.0,0.0,0.0,0.0,0.0,0.0,0.0,0.0,0.0,0.0,0.0,0.0,0.0,0.0,0.0,0.0,0.0,0.0,0.0,0.0,2.2388,0.0,0.0,0.0,0.0,0.0,0.0,0.0,0.0,0.0,0.0,0.0,0.0,0.0,0.0,0.0,0.0,0.0,0.0,0.0,0.0,0.0,0.0,0.0,0.0,0.0,0.0,0.0,0.0,0.0,0.0,0.0,0.0,0.0,0.0,0.0,0.0,0.0,0.0,0.0,0.0,0.0,1.1847,0.966,0.8293,0.8867,0.7598,0.6917,0.75,0.636,0.5715,0.6042,0.0,0.0,0.0,0.0,0.0,0.0,0.0,0.0,0.0,0.0,0.0,0.0,0.0,0.0,0.0,0.0,0.0,0.0,0.0,0.0,0.0,0.0,0.0,0.0,0.0,0.0,0.0,0.0,0.0,0.0,0.0,0.0,0.0,0.0,0.0,0.0,0.0,0.0,0.0,0.0,0.0,0.0,0.0,0.0,0.0,0.0,0.0,0.0,0.0,0.0,0.0,0.0,0.0,0.0,0.0,0.0,0.0,0.0,0.0,0.0,0.0,2.2426,0.0,0.0,0.0,0.0,0.0,0.0,0.0,0.0,0.0,0.0,0.0,0.0,0.0,0.0,0.0,0.0,0.0,0.0,0.0,0.0,0.0,0.0,0.0,0.0,0.0,0.0,0.0,0.0,0.0,0.0,0.0,0.0,0.0,0.0,0.0,0.0,0.0,0.0,0.0,0.0,1.1038,0.9169,0.8045,0.8559,0.7076,0.601,0.5939,0.4639,0.4214,0.5107,0.521,0.0,0.0,0.0,0.0,0.0,0.0,0.0,0.0,0.0,0.0,0.0,0.0,0.0,0.0,0.0,0.0,0.0,0.0,0.0,0.0,0.0,0.0,0.0,0.0,0.0,0.0,0.0,0.0,0.0,0.0,0.0,0.0,0.0,0.0,0.0,0.0,0.0,0.0,0.0,0.0,0.0,0.0,0.0,0.0,0.0,0.0,0.0,0.0,0.0,0.0,0.0,0.0,0.0,0.0,2.9254,3.0665,2.885,2.8054,2.795,2.5067,2.3374,2.2637,0.0,0.0,0.0,0.0,0.0,0.0,0.0,0.0,0.0,0.0,0.0,0.0,0.0,0.0,0.0,0.0,0.0,0.0,0.0,0.0,0.0,0.0,0.0,0.0,0.0,1.6659,1.6967,0.0,0.0,0.0,0.0,0.0,0.0,0.0,0.0,0.0,0.0,0.0,0.0,1.0124,0.8711,0.7895,0.83,0.6737,0.5301,0.4512,0.2839,0.2345,0.3644,0.4222,0.4238,0.0,0.0,0.0,0.0,0.0,0.0,0.0,0.0,0.0,0.0,0.0,0.0,0.0,0.0,0.0,0.0,0.0,0.0,0.0,0.0,0.0,0.0,0.0,0.0,0.0,0.0,0.0,0.0,0.0,0.0,0.0,0.0,2.4631,2.4697,0.0,0.0,0.0,0.0,0.0,0.0,0.0,0.0,0.0,0.0,0.0,0.0,0.0,0.0,2.9296,2.8836,2.9144,3.023,3.0005,3.0386,3.1293,3.0999,3.016,2.8929,2.8446,0.0,2.4154,2.3435,0.0,0.0,0.0,0.0,0.0,0.0,0.0,0.0,0.0,0.0,0.0,0.0,0.0,0.0,0.0,0.0,0.0,0.0,0.0,0.0,0.0,0.0,1.6467,1.5876,1.5752,1.5664,0.0,1.574,1.5748,1.3601,0.0,0.0,0.0,0.0,0.0,0.0,0.0,0.0,0.9667,0.7658,0.6376,0.6833,0.5563,0.4619,0.4504,0.19,0.0391,0.056,0.3035,0.3305,0.0701,0.0176,0.0,0.0,0.0,0.0,0.0,0.0,0.0,0.0,0.0,0.0,0.0,0.0,0.0,0.0,0.0,0.0,0.0,0.0,0.0,0.0,0.0,0.0,0.0,0.0,0.0,0.0,0.0,0.0,0.0,2.6081,2.6646,2.5931,2.6779,2.7165,0.0,0.0,0.0,0.0,0.0,0.0,0.0,0.0,0.0,3.0278,3.0978,3.1186,3.08,3.1117,3.1672,3.2367,3.272,3.3091,3.3395,3.3158,3.2517,3.1597,3.0898,2.9696,2.8061,2.5642,2.4496,2.4102,0.0,0.0,0.0,0.0,0.0,2.2293,2.1994,0.0,0.0,0.0,0.0,0.0,0.0,0.0,0.0,0.0,0.0,0.0,0.0,0.0,0.0,1.6172,1.553,1.4866,1.3912,1.3858,1.3803,0.0,1.2553,1.1973,1.1052,0.0,0.0,0.0,0.0,0.0,0.7886,0.6219,0.5129,0.5409,0.4849,0.3828,0.2132,0.0784,-0.0,-0.0,0.1233,0.1354,0.0057,-0.0,-0.1124,0.0,0.0,0.0,0.0,0.0,0.0,0.0,0.0,0.0,0.0,0.0,0.0,0.0,0.0,0.0,0.0,0.0,0.0,0.0,0.0,0.0,0.0,0.0,0.0,0.0,0.0,0.0,0.0,2.7596,2.8363,2.7045,2.8309,2.8746,0.0,0.0,0.0,0.0,0.0,0.0,3.1421,3.2952,3.3624,3.3191,3.4252,3.4292,3.3191,3.4086,3.4703,3.5055,3.5679,3.6036,3.6237,3.5903,3.5169,3.4199,3.3509,3.2641,3.1478,2.7926,2.6415,2.6101,2.3971,2.3484,2.3851,2.2832,2.3146,2.4059,2.3714,2.3714,2.3789,2.3325,0.0,2.207,2.145,0.0,0.0,0.0,0.0,1.9108,1.8623,0.0,1.7545,1.6249,1.5204,1.4235,1.3123,1.2229,1.1699,0.0,1.1599,1.0855,1.0087,0.0,0.0,0.0,0.0,0.6998,0.5567,0.4855,0.4149,0.3421,0.3334,0.2138,-0.0907,-0.1126,-0.084,-0.0056,-0.0,-0.0,-0.0,-0.0,-0.0875,-0.2759,0.0,0.0,0.0,0.0,0.0,0.0,0.0,0.0,0.0,0.0,0.0,0.0,0.0,0.0,0.0,0.0,0.0,0.0,0.0,0.0,0.0,0.0,0.0,0.0,0.0,0.0,0.0,0.0,0.0,2.7025,2.882,0.0,0.0,0.0,0.0,3.1146,3.2008,3.3164,3.4679,3.4881,3.5866,3.7992,3.7578,3.7551,3.8049,3.8276,3.8414,3.845,3.8505,3.8909,3.9643,3.9643,3.8259,3.5935,3.6716,3.558,3.3068,3.0057,2.8196,2.716,2.631,2.5804,2.5422,2.4717,2.4911,2.533,2.4044,2.4029,2.4522,2.4492,2.4071,2.3399,2.271,2.1613,0.0,0.0,1.9786,1.9357,1.7652,1.7573,1.7454,1.5592,1.4495,1.366,1.3014,1.1326,1.0016,0.0,0.9606,0.8765,0.8354,0.0,0.6986,0.6244,0.6381,0.5559,0.2749,0.3655,0.3421,0.0527,0.0229,-0.1022,-0.4001,-0.4248,-0.3033,-0.0168,-0.0,-0.0,-0.0,-0.0,-0.1369,-0.4318,-0.4374,0.0,0.0,0.0,0.0,0.0,0.0,0.0,0.0,0.0,0.0,0.0,0.0,0.0,0.0,0.0,0.0,0.0,0.0,0.0,0.0,0.0,0.0,0.0,0.0,0.0,0.0,0.0,0.0,3.2307,3.3854,0.0,0.0,3.3917,3.4247,3.4523,3.5293,3.5991,3.6578,3.7747,3.8702,3.9342,4.0039,4.03,4.0158,4.0426,4.0461,4.0249,4.0249,4.0396,4.0639,4.03,3.9464,3.8252,3.8216,3.7491,3.6146,3.41,3.19,2.9697,2.819,2.724,2.6703,2.6116,2.6303,2.6871,2.6826,2.6976,2.7036,2.6168,2.4563,2.3013,2.3207,2.2036,2.0756,2.084,2.0363,1.9631,1.8903,1.823,1.7308,1.5639,1.4251,1.2932,1.1615,1.0228,0.9035,0.861,0.8126,0.754,0.6805,0.6342,0.5897,0.5392,0.5232,0.4478,0.2434,0.1847,0.12,0.0121,-0.0,-0.1379,-0.4763,-0.4748,-0.4068,-0.2954,-0.1075,-0.0,-0.0,-0.0898,-0.1916,-0.3019,-0.4011,-0.4555,0.0,0.0,0.0,0.0,0.0,0.0,0.0,0.0,0.0,0.0,0.0,0.0,0.0,0.0,0.0,0.0,0.0,0.0,0.0,0.0,0.0,0.0,0.0,0.0,0.0,0.0,3.4631,3.5681,3.7044,3.7558,3.6679,3.6758,3.699,3.7248,3.8024,3.8726,3.9261,4.0367,4.107,4.1261,4.2058,4.2255,4.1686,4.2069,4.1894,4.1207,4.1207,4.1103,4.0908,4.0561,3.9961,3.9188,3.885,3.8391,3.7804,3.6535,3.4585,3.2234,3.0229,2.8919,2.8107,2.774,2.8008,2.8622,2.9086,2.8966,2.8457,2.756,2.5561,2.3606,2.4086,2.283,2.1237,2.1304,2.0816,2.0001,1.9217,1.8384,1.7316,1.5692,1.4162,1.271,1.1077,0.9606,0.8397,0.7521,0.7152,0.6681,0.5908,0.5506,0.519,0.4941,0.473,0.4057,0.2422,0.0929,-0.0,-0.0,-0.0,-0.1239,-0.421,-0.4703,-0.473,-0.4503,-0.2623,-0.1719,-0.2137,-0.3049,-0.3251,-0.254,-0.3975,-0.4802,-0.4989,0.0,0.0,0.0,0.0,0.0,0.0,0.0,0.0,0.0,0.0,0.0,0.0,0.0,0.0,0.0,0.0,0.0,0.0,0.0,0.0,0.0,0.0,0.0,3.1491,3.4266,3.6317,3.6747,3.8032,3.8343,3.6983,3.7671,3.8532,3.929,4.0085,4.1176,4.276,4.253,4.2834,4.3949,4.3679,4.3258,4.2794,4.324,4.2776,4.1411,4.1411,4.116,4.0654,4.0654,3.9937,3.8676,3.8764,3.8459,3.7922,3.7161,3.6041,3.4563,3.2447,3.0807,2.9639,2.9639,3.0028,3.0537,3.0537,2.9714,2.8667,2.8599,2.7194,2.5453,2.5397,2.3966,2.2172,2.1308,2.1033,2.0519,1.8408,1.7873,1.7482,1.5698,1.426,1.293,1.1364,0.9587,0.8105,0.7211,0.6516,0.5987,0.5785,0.5223,0.4824,0.4904,0.4942,0.0,0.2429,0.0941,-0.0,-0.0,-0.0126,-0.0877,-0.2577,-0.4347,-0.5137,-0.4457,-0.4451,-0.4966,-0.6084,-0.625,-0.5348,-0.3263,-0.443,-0.5068,-0.5068,0.0,0.0,0.0,0.0,0.0,0.0,0.0,0.0,0.0,0.0,0.0,0.0,0.0,0.0,0.0,0.0,0.0,0.0,0.0,0.0,0.0,0.0,3.4264,3.4748,3.6576,3.8653,4.0837,4.1954,4.2507,4.2401,4.2648,4.2874,4.31,4.3053,4.3197,4.3644,4.3328,4.3309,4.3612,4.3548,4.3246,4.2723,4.2849,4.2528,4.1683,4.1683,4.16,4.1492,4.1492,4.1025,4.0279,4.0279,4.0006,3.9428,3.8684,3.7551,3.6053,3.445,3.2647,3.1001,3.1001,3.1106,3.1255,3.1255,3.0687,2.9858,2.9285,2.8025,2.6579,2.5975,2.4715,2.3343,2.2486,2.1663,2.06,1.8815,1.7634,1.6442,1.4794,1.3045,1.1263,0.9638,0.8236,0.7061,0.615,0.4717,0.3725,0.3947,0.4432,0.4857,0.4991,0.5188,0.0,0.2827,0.1034,-0.0,-0.0,-0.2758,-0.4051,-0.2807,-0.4357,-0.4789,0.0,-0.4047,-0.3689,-0.1809,-0.469,-0.6002,-0.5413,-0.5101,-0.497,0.0,0.0,0.0,0.0,0.0,0.0,0.0,0.0,0.0,0.0,0.0,0.0,0.0,0.0,0.0,0.0,0.0,0.0,0.0,0.0,0.0,0.0,3.5254,3.7543,3.9261,4.002,4.1294,4.3804,4.4668,4.5163,4.5378,4.5696,4.5873,4.5873,4.5178,4.4767,4.4767,4.3976,4.3497,4.3497,4.3497,4.325,4.2711,4.2711,4.2262,4.1446,4.1446,4.1331,4.1076,4.1076,4.0891,0.0,4.025,3.9914,3.9543,3.8773,3.7625,0.0,0.0,0.0,0.0,0.0,3.1764,3.1467,3.1087,3.0528,2.9855,2.9009,2.7797,2.658,2.603,2.5163,2.4076,2.2775,2.1777,2.0681,1.8724,1.7302,1.6024,1.451,1.2841,1.1084,0.928,0.8015,0.6985,0.5933,0.0,0.0,0.4375,0.4759,0.5077,0.5206,0.53,0.5077,0.4144,0.1664,-0.0601,-0.2105,-0.4466,-0.5365,-0.3937,-0.4783,0.0,0.0,0.0,0.0384,0.1086,-0.1371,0.0,0.0,0.0,-0.2732,0.0,0.0,0.0,0.0,-0.3691,-0.2512,0.0,0.0,0.0,0.0,0.0,0.0,0.0,0.0,0.0,0.0,0.0,0.0,0.0,0.0,0.0,0.0,3.8701,4.0876,4.4245,4.4165,4.4378,4.592,4.6461,4.6676,4.6613,4.7252,4.7643,4.7579,4.6544,4.5919,4.5865,0.0,0.0,0.0,0.0,4.3488,4.2868,4.2796,4.2121,4.0948,4.0861,4.0577,4.007,4.007,4.007,4.0037,3.9394,3.9024,3.8859,3.8179,3.7069,3.5683,3.5496,3.4659,3.3425,3.2766,3.2079,0.0,0.0,0.0,0.0,2.8263,2.709,2.6104,2.5992,2.5409,2.4362,2.2617,2.171,2.0744,1.833,1.7026,1.5996,1.4433,1.2954,1.1413,0.9555,0.8363,0.731,0.6266,0.5885,0.5768,0.5992,0.5716,0.548,0.5459,0.5406,0.5531,0.57,0.2536,-0.1013,-0.4393,0.0,0.0,-0.543,-0.5477,-0.5503,-0.5429,0.1543,0.4857,0.3181,0.2754,0.2019,0.0719,0.0808,0.0957,0.1078,0.1008,0.101,0.1013,-0.0705,-0.0559,0.0,0.0,0.0,0.0,0.0,0.0,0.0,0.0,0.0,0.0,0.0,0.0,0.0,0.0,0.0,4.0609,4.3324,4.5757,4.7579,4.8217,4.8182,4.7435,4.7648,4.773,4.7334,4.7728,4.7853,4.7537,4.7049,4.6629,4.629,4.5725,0.0,4.5443,4.5443,4.4903,4.3863,4.3223,4.2349,4.1155,0.0,0.0,4.007,4.007,4.007,4.007,3.9935,3.9528,3.8891,3.876,3.7794,3.6229,3.4576,3.3774,3.3425,3.2766,3.1959,3.1177,3.0502,2.9742,2.8886,2.8072,2.7551,2.7197,2.6573,2.5395,0.0,2.3015,2.1734,2.0265,1.8267,1.6971,1.5721,1.3642,1.1684,1.0013,0.8707,0.7549,0.6658,0.6476,0.6179,0.5925,0.5993,0.5899,0.5842,0.5715,0.5623,0.554,0.5493,0.3528,0.1348,-0.0834,-0.368,-0.5405,-0.5436,-0.5836,-0.5935,-0.5461,-0.1217,0.2515,0.5487,0.5535,0.5334,0.5101,0.5125,0.5128,0.5174,0.5177,0.5231,0.5405,0.3419,0.3483,0.0,0.0,0.0,0.0,0.0,0.0,0.0,0.0,0.0,0.0,0.0,3.6659,0.0,0.0,4.1902,4.4476,4.6454,4.8156,4.9631,5.0457,5.0574,4.965,4.9305,4.9138,4.914,4.8922,4.8718,4.8503,4.7777,4.7255,4.7071,4.6318,4.5902,4.5902,4.5586,4.5021,4.4112,4.3423,4.2462,4.1204,4.0832,4.0443,4.007,4.007,3.9901,3.9489,3.9489,3.8854,3.77,3.7381,3.6753,3.593,3.4931,3.4292,3.3903,3.3245,3.2458,3.1458,3.014,2.9453,2.896,2.7546,2.7288,2.74,2.6665,2.562,2.4402,2.3455,2.2165,2.0471,1.8136,1.6546,1.5045,1.2933,1.0848,0.9135,0.8366,0.7435,0.6678,0.6603,0.6471,0.6373,0.6366,0.6386,0.6235,0.5847,0.5681,0.56,0.5397,0.4616,0.3043,0.0301,-0.322,-0.5405,-0.5397,-0.4052,-0.3031,-0.2696,-0.1031,0.0959,0.3061,0.5164,0.6268,0.618,0.6257,0.6338,0.6336,0.6266,0.6345,0.6493,0.5583,0.5615,0.0,0.0,0.0,0.0,0.0,0.0,0.0,0.0,3.7666,3.9602,3.9971,4.0749,4.3471,4.427,4.5372,4.7946,4.9163,5.025,5.1475,5.2126,5.2383,5.2139,5.1057,5.0464,5.0786,5.0013,4.955,4.9612,4.857,4.7969,4.8036,4.7149,4.6544,4.6379,4.5936,4.5323,4.4554,4.3794,4.2824,4.1627,4.1339,4.0882,4.029,4.002,3.9489,3.8908,3.8564,3.7758,3.6554,3.5782,3.5504,3.5504,3.5504,3.5016,3.4307,3.3654,3.2806,3.1767,2.9799,2.9134,2.8898,2.7335,2.708,2.7331,2.6557,2.5657,2.4609,2.3548,2.2125,2.0361,1.7966,1.6098,1.4258,1.2147,1.0287,0.8782,0.8183,0.7565,0.7024,0.6898,0.6851,0.6831,0.6831,0.6807,0.66,0.6057,0.5872,0.5417,0.4415,0.4299,0.3018,-0.0222,-0.3187,-0.4981,-0.5081,-0.2756,-0.1118,-0.0748,-0.0686,-0.0611,-0.0523,0.3024,0.5031,0.5163,0.5344,0.5286,0.5054,0.4978,0.5038,0.5071,0.5251,0.5879,3.4926,3.5235,3.6019,3.7734,3.7435,3.7941,0.0,0.0,4.1631,4.4474,4.4854,4.505,4.6405,4.8047,4.942,5.03,5.2309,5.3818,5.4001,5.4063,5.4262,5.4558,5.2567,5.108,5.0813,5.0013,4.9657,5.0008,4.9266,4.8948,4.9358,4.9263,4.882,4.8067,4.8133,4.7555,4.6183,4.489,4.3907,4.3166,4.1847,4.117,4.1052,3.9684,3.8978,3.8854,3.7467,3.6783,3.6554,3.5782,3.5504,3.5504,3.5504,3.4942,3.3989,3.3382,3.2592,3.1571,2.9952,2.8879,2.8217,2.7959,2.7959,2.7751,2.6275,2.5218,2.4074,2.2596,2.0767,1.8973,1.7649,1.5711,1.3568,1.1428,0.9999,0.8804,0.7838,0.7602,0.7519,0.7502,0.739,0.7295,0.7295,0.718,0.698,0.6647,0.639,0.48,0.0815,0.0311,-0.0534,-0.2548,-0.3139,-0.3443,-0.3758,-0.5143,-0.5189,-0.3297,-0.3227,-0.2974,-0.2381,-0.0661,0.0993,0.2227,0.2316,0.1657,0.0415,0.0414,0.0418,0.0513,0.06,0.2749,3.7077,3.7266,0.0,0.0,4.0394,4.1971,4.4215,4.473,4.5331,4.7534,4.7882,4.8229,4.9676,5.0584,5.153,0.0,5.3353,5.3867,5.4326,5.3592,5.2972,5.2921,5.1324,5.0508,5.1106,5.0194,4.9618,4.9806,4.9917,5.0099,5.027,5.0288,4.9921,4.9077,4.8413,4.7529,4.643,4.5148,4.4153,4.3403,4.2337,4.1382,4.0521,3.9433,3.8398,3.7526,3.6399,3.5943,3.5879,3.5023,3.461,3.4543,3.4041,3.3547,3.317,3.3149,3.2373,3.1245,2.991,2.9292,2.8976,2.8323,2.7928,2.7451,2.6533,2.5062,2.3616,2.2955,2.123,1.9295,1.8213,1.5676,1.3009,1.1467,0.9596,0.8069,0.7677,0.76,0.76,0.76,0.755,0.7506,0.7506,0.7362,0.7282,0.7158,0.5245,0.2817,-0.0,-0.2693,-0.4542,-0.5128,-0.5178,-0.5246,-0.5454,-0.6394,-0.6922,-0.6861,-0.6288,-0.5814,-0.5524,-0.3354,-0.1819,-0.1211,-0.0173,-0.0259,-0.1731,-0.3467,-0.4272,-0.4224,-0.4457,-0.3494,3.7934,0.0,0.0,4.0634,4.3149,4.5498,4.5957,4.6948,4.8177,4.9572,4.9866,5.0233,5.1444,5.1665,0.0,5.35,5.3445,5.3482,5.4289,5.3004,5.19,5.1603,4.9933,4.9194,5.01,4.962,4.9426,4.9884,5.027,5.0655,5.1114,5.1132,5.0655,4.9609,4.8784,4.7736,4.643,4.5385,4.4502,4.3724,4.2963,4.1846,4.0364,3.8933,3.7541,3.6275,3.5718,3.5504,3.5424,3.4394,3.4027,3.3876,3.2961,3.2464,3.2266,3.2486,3.1965,3.1061,2.9881,2.9676,2.9654,2.8837,2.8108,2.7352,2.6546,2.5037,2.3499,2.3062,2.1272,1.9349,1.8587,1.5722,1.2706,1.162,0.9703,0.8139,0.7808,0.7723,0.7723,0.7723,0.7723,0.7723,0.7729,0.7637,0.7044,0.5553,0.3214,0.0885,-0.0781,-0.4556,-0.7003,-0.6746,-0.6739,-0.6749,-0.686,-0.7003,-0.7558,-0.8611,-0.8024,-0.758,-0.7632,-0.5576,-0.4533,-0.4533,-0.3258,-0.3076,-0.4076,-0.619,-0.7212,-0.7215,-0.7513,-0.7773,0.0,0.0,4.1423,4.2983,4.5223,4.7462,4.9077,4.9426,4.9682,5.0582,5.0765,5.0784,5.0839,5.0839,5.1114,5.194,5.2711,5.3482,5.4289,5.3004,5.1977,5.1981,4.9132,4.7205,0.0,4.7902,4.9022,5.0637,5.005,5.0306,5.1867,5.1958,5.1224,4.9627,4.9798,4.8767,4.6401,4.5917,4.5297,4.4536,4.3758,4.2579,4.1049,3.8058,3.6275,3.5504,3.5504,3.5504,3.5424,3.4394,3.4027,3.3876,3.2961,3.2033,3.1241,3.1228,3.1228,3.1031,3.0101,2.9754,2.9779,2.9754,2.8991,2.7806,2.6257,2.5065,2.3846,2.2396,2.0232,1.8415,1.8415,1.5772,1.29,1.1723,1.0554,0.9376,0.8287,0.8024,0.8024,0.8024,0.8024,0.8035,0.7955,0.7959,0.6189,0.0977,0.0097,-0.0577,-0.2356,-0.5282,-0.7021,-0.6732,-0.6702,-0.6763,-0.6909,-0.7048,-0.7193,-0.7434,-0.7588,-0.758,-0.758,-0.7594,-0.76,-0.76,-0.7506,-0.7506,-0.7506,-0.7594,-0.7587,-0.7587,-0.7594,-0.832,0.0,0.0,4.4011,4.6159,4.8141,4.9848,5.093,5.1169,5.1077,5.0857,5.038,4.9829,4.926,4.915,4.9774,5.1683,5.1775,5.227,5.4142,5.3004,5.1389,4.9738,4.9077,0.0,0.0,0.0,0.0,4.9114,5.0417,5.1426,5.1958,5.2509,5.1846,4.981,4.9442,4.8141,4.585,4.5255,4.484,4.457,4.2725,4.1059,3.9596,3.7466,3.614,3.5504,3.5504,3.5133,3.4394,3.3463,3.2678,3.1947,3.0277,2.9462,2.9086,2.8366,2.8524,2.9188,2.9677,2.9792,2.9702,2.8937,2.7947,2.6767,2.5518,2.4324,2.3206,2.1861,2.0395,1.8954,1.8159,1.5186,1.222,1.1814,1.0293,0.8725,0.8282,0.8265,0.8306,0.8211,0.8201,0.8177,0.7989,0.502,0.0899,-0.4478,-0.5158,-0.5344,-0.5876,-0.6842,-0.7407,-0.7305,-0.7295,-0.7319,-0.737,-0.7417,-0.7738,-0.8613,-0.803,-0.8023,-0.8783,-0.8225,-0.7899,-0.7899,-0.7899,-0.7848,-0.7746,-0.8592,-0.9001,-0.8885,-0.9844,-1.0598,4.1919,4.4121,4.6159,4.8581,5.0453,5.172,5.194,5.1775,5.1169,4.9774,4.8838,4.7921,4.6783,4.6361,4.6966,4.9407,4.9389,4.9994,5.2729,5.1977,5.0655,4.9352,4.915,0.0,0.0,0.0,0.0,4.8765,5.0508,5.1582,5.159,5.2101,5.1518,4.9511,4.8817,4.7664,4.591,4.5572,4.5098,4.4507,4.2106,4.0338,3.9138,3.7288,3.6252,3.5833,3.5236,3.461,3.3876,3.2593,3.1742,3.1018,2.9369,2.8438,2.8004,2.7371,2.729,2.7614,2.8383,2.887,2.9028,2.7855,2.6789,2.5797,2.5041,2.3963,2.2862,2.1686,2.0404,1.9222,1.8048,1.5203,1.2522,1.2042,1.0388,0.8787,0.8289,0.8303,0.8367,0.8228,0.8248,0.8245,0.8012,0.2004,-0.4014,-0.7463,-0.7902,-0.7746,-0.7682,-0.7675,-0.7655,-0.7604,-0.76,-0.76,-0.76,-0.7645,-0.7953,-0.8694,-0.819,-0.8181,-0.8952,-0.8379,-0.8038,-0.8038,-0.8038,-0.8185,-0.8567,-0.9433,-1.004,-1.0386,-1.1372,-1.2014,4.3075,4.5516,4.7939,5.0325,5.205,5.2931,5.2123,5.1242,4.9921,4.7443,4.625,4.5168,0.0,0.0,4.3057,4.5462,4.5975,4.7186,5.0527,5.0325,5.0105,0.0,0.0,0.0,0.0,0.0,0.0,4.9646,0.0,5.0866,5.0913,5.1004,5.0347,4.8802,4.8155,4.7434,4.6584,4.6709,4.6008,4.4344,4.2134,4.0626,3.9637,3.7546,3.6522,3.638,3.4753,3.3959,3.3808,3.196,3.118,3.1044,3.0088,2.9064,2.8051,2.8051,2.7395,2.6423,2.64,2.7116,2.7844,2.6801,2.5735,2.4829,2.4744,2.4013,2.292,2.1606,2.0339,1.918,1.7893,1.5622,1.3431,1.2165,1.0806,0.9537,0.8251,0.8177,0.8245,0.8113,0.8191,0.8139,0.7522,-0.1204,-0.7985,-0.7972,-0.7952,-0.7987,-0.7841,-0.7824,-0.777,-0.7638,-0.7621,-0.7621,-0.7621,-0.7746,-0.7824,-0.7824,-0.796,-0.8038,-0.8038,-0.8038,-0.8038,-0.8038,-0.8038,-0.8726,-0.9998,-1.0096,-1.0779,-1.2042,-1.2042,-1.2818,4.6416,4.8875,5.1041,5.2289,5.2454,5.2087,5.1298,4.9536,4.737,4.4929,4.3296,4.1708,0.0,0.0,0.0,4.4998,4.6686,0.0,5.2949,5.3298,0.0,0.0,0.0,5.2142,5.0343,5.0912,0.0,0.0,5.1242,5.1451,5.0922,5.1481,5.0664,4.8102,4.841,4.7769,4.5954,4.653,4.6008,4.4422,4.3121,4.1561,3.9637,3.7918,3.6926,3.638,3.4753,3.3602,3.289,3.1669,3.0758,3.01,2.9365,2.8433,2.7345,2.744,2.6768,2.5615,2.5338,2.5964,2.6719,2.563,2.52,2.5062,2.4303,2.4098,2.3549,2.1081,1.9555,1.8134,1.5654,1.333,1.1536,1.129,0.9847,0.8374,0.8061,0.8263,0.8543,0.8607,0.8316,0.6191,0.01,-0.4826,-0.7979,-0.7952,-0.8041,-0.8024,-0.7987,-0.798,-0.7967,-0.7929,-0.7926,-0.7926,-0.7926,-0.796,-0.798,-0.798,-0.8018,-0.8038,-0.8038,-0.8038,-0.8038,-0.8038,-0.9019,-0.9706,-0.9998,-1.194,-1.3102,-1.3392,-1.437,-1.4956,4.8746,5.0674,5.2179,5.3004,5.2325,5.1059,4.9536,4.7278,4.4745,4.1956,4.0396,0.0,0.0,0.0,0.0,0.0,0.0,0.0,5.0915,5.2822,5.3726,0.0,5.3913,0.0,5.2561,5.2797,5.3004,0.0,5.2325,5.167,5.094,5.1054,5.0285,4.832,4.8092,4.7367,4.6079,4.6877,4.6246,4.415,4.3712,4.2327,3.9978,3.8782,3.7943,3.7201,0.0,3.393,3.2994,3.1984,3.0996,3.0115,3.004,2.9308,2.8207,2.7782,2.6693,2.5361,2.46,2.4767,2.5198,2.4594,2.4856,2.5192,2.4356,2.3852,2.2916,2.0169,1.8499,1.6936,1.4501,1.2367,1.0664,0.9835,0.7911,0.6279,0.6266,0.6375,0.7012,0.8563,0.6538,0.3054,-0.1508,-0.5438,-0.7982,-0.7959,-0.8045,-0.8038,-0.8038,-0.8038,-0.8038,-0.8038,-0.8038,-0.8038,-0.8038,-0.8038,-0.8038,-0.8038,-0.8038,-0.8038,-0.8038,-0.8038,-0.8233,-0.8821,-0.9608,-1.0583,-1.1745,-1.3199,-1.4166,-1.4752,-1.5439,-1.5832,5.0362,5.1555,5.2307,5.2894,5.183,4.9958,4.7388,4.4911,4.2268,3.9038,0.0,3.6831,3.6043,0.0,3.7109,3.8924,0.0,4.5007,4.7741,5.1061,5.3259,5.3532,5.4219,5.4683,5.4688,5.4702,5.495,5.5556,5.3647,5.209,5.1274,5.0548,4.9785,4.8933,4.7612,4.6898,4.6812,4.7512,4.6552,4.4018,4.406,4.2739,4.0382,3.9723,3.9035,3.8247,0.0,0.0,3.3615,3.2448,3.1435,3.0771,3.1298,3.0719,2.9529,2.8551,2.7053,2.5384,2.4336,2.4088,2.4037,2.3898,2.4466,2.5231,2.4457,2.3486,2.1952,1.8995,1.7364,1.6055,1.3784,1.194,1.0213,0.845,0.5702,0.3507,0.3442,0.3509,0.4327,0.712,0.3556,-0.0,-0.0,-0.4124,-0.7575,-0.7972,-0.7955,-0.8038,-0.8038,-0.8038,-0.8038,-0.8038,-0.8038,-0.8038,-0.8038,-0.8038,-0.8038,-0.8038,-0.8038,-0.8038,-0.8237,-0.8233,-0.8924,-1.0194,-1.0386,-1.1648,-1.3878,-1.407,-1.4752,-1.5832,-1.5832,-1.5832,5.1481,5.238,5.2876,5.2344,5.0986,4.8967,4.5847,4.3259,0.0,0.0,0.0,3.4679,3.3882,3.5017,0.0,3.9917,0.0,0.0,0.0,0.0,5.3723,0.0,0.0,0.0,0.0,0.0,0.0,0.0,0.0,0.0,5.2954,5.1637,5.0325,4.9008,4.8148,4.801,4.8534,4.7961,4.6765,4.4925,4.4181,4.2663,4.0382,3.9723,3.9035,3.8262,0.0,0.0,3.4101,3.2306,3.1398,3.1311,3.1851,3.0748,2.8899,2.9689,2.7942,2.5182,2.5163,2.5409,2.5499,2.4257,2.4451,2.4928,2.3651,2.332,2.2589,1.8427,1.7208,1.6386,1.2587,1.045,0.9116,0.8858,0.4611,0.0739,0.0725,0.0718,0.0815,0.1427,0.0712,-0.0,-0.0,-0.2611,-0.5432,-0.7666,-0.7955,-0.8038,-0.8038,-0.8038,-0.8038,-0.8038,-0.8038,-0.8038,-0.8038,-0.8038,-0.8038,-0.8038,-0.8038,-0.8531,-0.9608,-0.9608,-1.0293,-1.1556,-1.2619,-1.3488,-1.3878,-1.4949,-1.554,-1.5832,-1.5832,-1.5832,5.2674,5.3225,5.3115,5.2729,5.0435,4.7387,4.3871,0.0,0.0,0.0,0.0,3.3305,3.2912,0.0,0.0,0.0,0.0,0.0,0.0,0.0,0.0,0.0,0.0,0.0,0.0,0.0,0.0,0.0,0.0,0.0,5.4038,5.2183,5.0639,4.9622,4.8866,4.8161,4.7523,4.7589,4.6431,4.4195,4.4285,4.3103,4.0905,4.0591,3.9743,3.8428,3.651,0.0,3.4483,3.3115,3.2472,3.2206,3.1822,3.1197,3.0328,2.9331,2.731,2.4912,2.4326,2.3832,2.3287,2.2564,2.3513,2.4536,2.2814,2.1486,1.9808,1.6957,1.5323,1.3418,0.8934,0.8254,0.8081,0.4953,0.2053,-0.0,-0.0,-0.0,-0.0,-0.0,-0.2269,-0.4201,-0.4196,-0.5271,-0.6545,-0.7769,-0.7955,-0.8038,-0.8038,-0.8038,-0.8038,-0.8038,-0.8038,-0.8038,-0.8038,-0.8038,-0.8336,-0.9019,-0.9019,-0.9608,-1.0974,-1.0974,-1.1556,-1.2915,-1.3584,-1.4262,-1.4854,-1.5534,-1.5832,-1.5832,-1.5832,-1.5832,5.3133,5.3555,5.3133,5.2784,4.9884,4.6084,4.2232,3.9009,0.0,0.0,3.2417,3.2384,3.2484,0.0,0.0,0.0,0.0,0.0,0.0,0.0,0.0,0.0,0.0,0.0,0.0,0.0,0.0,0.0,0.0,0.0,0.0,5.2333,5.0755,4.9796,4.9089,4.7885,4.6244,4.6747,4.5818,4.363,4.422,4.3366,4.1258,4.1258,4.0227,3.8424,3.726,0.0,0.0,3.3772,3.3114,3.2482,3.1031,3.0674,3.05,2.7768,2.5428,2.3638,2.2461,2.1303,2.0145,1.9775,2.1441,2.322,2.141,1.9029,1.6727,1.5039,1.3413,1.1071,0.6599,0.6172,0.5819,0.1099,-0.0,-0.0,-0.0,-0.0,-0.0427,-0.1706,-0.5282,-0.819,-0.8079,-0.8163,-0.817,-0.817,-0.8123,-0.8089,-0.8089,-0.8062,-0.8038,-0.8038,-0.8038,-0.8137,-0.8432,-0.8432,-0.9019,-1.0288,-1.0386,-1.0974,-1.2237,-1.2334,-1.2915,-1.4268,-1.4268,-1.4752,-1.5832,-1.5832,-1.5832,-1.5832,-1.5832,-1.5832,5.194,5.2711,5.2858,5.1389,4.9058,4.5938,4.1506,0.0,0.0,3.3095,3.2161,3.1986,3.2417,3.2498,0.0,0.0,0.0,4.0122,0.0,0.0,0.0,0.0,0.0,0.0,0.0,0.0,0.0,0.0,0.0,0.0,0.0,5.2053,5.0461,4.8895,4.8117,4.7239,4.6173,4.5431,4.4946,4.4662,4.3849,4.2515,4.0646,4.0646,3.9719,3.7883,0.0,0.0,0.0,3.3186,3.202,3.0768,2.8944,2.7645,2.6497,2.4571,2.2178,1.989,1.9398,1.8542,1.7358,1.5809,1.7435,1.974,1.8282,1.6819,1.5028,1.2772,1.2659,1.2491,0.9349,0.4713,0.067,0.011,-0.0,-0.0,-0.0,-0.0,-0.16,-0.7065,-0.8468,-0.8776,-0.8537,-0.8503,-0.8584,-0.8584,-0.8347,-0.8248,-0.8248,-0.8126,-0.8038,-0.8038,-0.8038,-0.8531,-0.9706,-0.9805,-1.0386,-1.1653,-1.1755,-1.2334,-1.368,-1.3686,-1.4364,-1.5629,-1.5635,-1.5635,-1.5832,-1.5832,-1.5832,-1.5832,-1.5832,-1.5832,5.1114,5.2234,5.2325,5.1683,4.8715,4.494,4.0919,0.0,3.4585,3.2204,3.1582,3.1487,3.1694,3.1666,3.2389,0.0,0.0,0.0,0.0,0.0,0.0,0.0,0.0,0.0,0.0,0.0,0.0,0.0,0.0,0.0,0.0,5.1201,4.9824,4.8777,4.7411,4.5968,4.4279,4.393,4.3105,4.1874,4.1406,4.0674,3.9536,3.8737,3.7544,3.6119,0.0,0.0,0.0,2.9461,2.8582,2.8058,2.623,2.4827,2.3524,2.1803,1.9346,1.6964,1.6756,1.5959,1.4904,1.4792,1.482,1.5007,1.5646,1.4598,1.3091,1.2758,1.1693,1.0425,0.9181,0.4521,-0.0,-0.0,-0.0,-0.0995,-0.4571,-0.5318,-0.5532,-0.6173,-0.763,-0.868,-0.8545,-0.8574,-0.8496,-0.8496,-0.8442,-0.8367,-0.8282,-0.8218,-0.8442,-0.913,-0.9217,-0.941,-0.9998,-1.0681,-1.1653,-1.3006,-1.3102,-1.3686,-1.4949,-1.5045,-1.5242,-1.5825,-1.5832,-1.5832,-1.5832,-1.5832,-1.5832,-1.5832,-1.5832,-1.5832,4.855,5.0346,5.0908,5.0433,4.7583,4.3866,0.0,0.0,3.3615,3.1596,3.119,3.119,3.119,3.119,3.1754,3.3395,0.0,3.414,0.0,0.0,0.0,0.0,0.0,0.0,0.0,0.0,0.0,0.0,0.0,0.0,0.0,4.8936,4.7918,4.7348,4.6016,4.4204,4.207,4.1657,4.0759,3.9278,3.8871,3.826,3.7404,3.6058,3.4762,3.3422,0.0,0.0,0.0,2.6032,2.499,2.4121,2.2358,2.1099,2.0089,1.831,1.6175,1.4308,1.4308,1.3259,1.2119,1.2721,1.1423,1.0024,1.232,1.1405,0.9923,1.154,0.9285,0.6233,0.6249,0.3191,-0.0451,-0.2245,-0.2578,-0.3582,-0.7022,-0.8336,-0.8313,-0.6306,-0.7431,-0.8686,-0.8675,-0.8699,-0.8618,-0.8618,-0.8577,-0.8513,-0.8414,-0.8727,-0.9248,-1.0067,-1.0748,-1.1161,-1.1161,-1.194,-1.3108,-1.4364,-1.4459,-1.4854,-1.573,-1.5832,-1.5832,-1.5832,-1.5832,-1.5832,-1.5832,-1.5832,-1.5832,-1.5832,-1.5832,-1.5832,4.3583,4.6413,4.8338,4.6765,4.5174,4.2918,0.0,0.0,3.3615,3.1596,3.119,3.119,3.119,3.119,3.1444,3.2212,3.3508,0.0,0.0,0.0,0.0,0.0,0.0,0.0,0.0,0.0,0.0,0.0,0.0,0.0,0.0,0.0,4.4118,4.4118,4.3409,4.1989,3.9986,3.8537,3.7817,3.783,3.6517,3.5211,3.4064,3.2597,3.1227,0.0,0.0,0.0,0.0,2.3568,2.1719,1.8702,1.6913,1.6124,1.5772,1.397,1.2767,1.1841,1.1841,1.0532,0.8893,0.9008,0.7024,0.5152,0.8073,0.694,0.5166,0.8157,0.4657,0.0117,0.0115,-0.0,-0.1488,-0.7458,-0.8798,-0.8139,-0.5478,-0.703,-0.8927,-0.9157,-0.9066,-0.885,-0.894,-0.8933,-0.8933,-0.8933,-0.8804,-0.8706,-0.8706,-0.9573,-1.0332,-1.0617,-1.2589,-1.3872,-1.3872,-1.3878,-1.4459,-1.573,-1.5737,-1.5825,-1.5832,-1.5832,-1.5832,-1.5832,-1.5832,-1.5832,-1.5832,-1.5832,-1.5832,-1.5832,-1.5832,-1.5832,3.9221,4.1614,4.3315,4.2795,4.1207,3.9158,3.6759,0.0,3.1968,3.0842,2.9881,2.9433,2.9897,2.9613,3.0159,3.2752,3.3589,0.0,0.0,0.0,0.0,0.0,0.0,0.0,0.0,0.0,0.0,0.0,0.0,0.0,0.0,0.0,4.1965,4.2179,4.0421,3.8722,3.7325,3.489,3.3282,3.2503,3.1116,3.0204,2.9734,2.7295,0.0,0.0,0.0,0.0,0.0,1.7846,1.6592,1.5445,1.5705,1.4654,1.3078,1.3212,1.1766,0.9539,0.7487,0.6371,0.6274,0.8217,0.831,0.7706,0.8568,0.8232,0.5915,-0.1678,-0.5292,-0.6228,-0.3916,-0.3406,-0.3838,-0.5679,-0.7778,-0.8971,-0.8162,-0.8724,-0.9296,-0.9317,-0.9198,-0.9127,-0.9225,-0.9072,-0.8974,-0.9069,-0.896,-0.9149,-1.0099,-1.0514,-1.1444,-1.3319,-1.4087,-1.443,-1.4148,-1.4762,-1.5337,-1.5737,-1.5832,-1.5832,-1.5832,-1.5832,-1.5832,-1.5832,-1.5832,-1.5832,-1.5832,-1.5832,-1.5832,-1.5832,-1.5832,-1.5832,0.0,3.7252,3.8988,3.8692,3.7629,0.0,0.0,0.0,3.0826,3.0125,2.9345,2.8906,2.9326,2.9083,2.9472,3.1658,3.2455,0.0,0.0,0.0,0.0,0.0,0.0,0.0,0.0,0.0,0.0,0.0,0.0,0.0,0.0,0.0,3.8939,3.8722,3.7663,3.6074,3.3882,3.1584,2.9766,2.8485,2.6402,2.5406,2.5297,2.2387,0.0,0.0,0.0,0.0,0.0,1.4247,1.324,1.2356,1.3039,1.1536,0.9113,0.9761,0.9475,0.8639,0.6797,0.4634,0.3503,0.7618,0.7409,0.56,0.5541,0.3755,0.0239,-0.7575,-0.9825,-0.9274,-0.7243,-0.6693,-0.6749,-0.6701,-0.8116,-0.9449,-0.9483,-0.9445,-0.9418,-0.9459,-0.9344,-0.9269,-0.9364,-0.9628,-0.9817,-1.0029,-1.0346,-1.0849,-1.1693,-1.2139,-1.3121,-1.4838,-1.5275,-1.5438,-1.5369,-1.5823,-1.6159,-1.6159,-1.6159,-1.6112,-1.6005,-1.5999,-1.5945,-1.5832,-1.5832,-1.5832,-1.5832,-1.5832,-1.5832,-1.5832,-1.5945,-1.5939,0.0,3.3089,0.0,0.0,0.0,0.0,0.0,0.0,0.0,2.9337,2.9116,2.9071,2.9213,2.918,2.9241,2.9528,0.0,0.0,0.0,0.0,0.0,0.0,0.0,0.0,0.0,0.0,0.0,0.0,0.0,0.0,0.0,0.0,3.5279,3.3958,3.498,3.3773,2.9973,2.8335,2.6738,2.5304,2.2297,2.0962,2.0849,1.7865,0.0,0.0,0.0,0.0,0.0,1.2518,1.1339,0.9145,0.9382,0.7577,0.4798,0.4392,0.5895,0.8304,0.8323,0.4606,0.092,0.6479,0.4564,-0.0,-0.0,-0.4537,-0.9763,-0.9806,-0.9815,-0.9747,-0.9851,-0.9813,-0.9772,-0.9604,-0.9562,-0.9479,-0.9598,-0.9513,-0.9456,-0.9598,-0.9503,-0.9401,-0.9525,-1.0516,-1.1388,-1.15,-1.255,-1.3393,-1.3485,-1.4362,-1.5153,-1.55,-1.6253,-1.6881,-1.7154,-1.6887,-1.6707,-1.6707,-1.6707,-1.6587,-1.6319,-1.6306,-1.6166,-1.5865,-1.5838,-1.5838,-1.5865,-1.5865,-1.5865,-1.5865,-1.6166,-1.6146,2.5058,0.0,3.0243,3.0542,3.0639,3.039,0.0,0.0,0.0,0.0,0.0,0.0,0.0,0.0,0.0,0.0,0.0,0.0,0.0,0.0,0.0,0.0,0.0,0.0,0.0,0.0,0.0,0.0,0.0,0.0,0.0,0.0,3.2029,2.9642,2.9798,2.958,2.8575,2.3742,2.1104,2.0658,1.7689,1.6205,1.6088,1.4203,0.0,0.0,0.0,0.0,1.0329,1.049,0.8796,0.6242,0.8682,0.8907,0.7369,0.2745,0.1477,0.2037,0.209,0.1161,0.023,0.1634,0.1149,-0.0,-0.0,-0.4537,-0.9783,-0.9795,-0.9744,-0.9856,-0.9802,-0.9788,-0.9778,-0.9737,-0.9727,-0.9734,-0.9764,-0.9744,-0.9727,-0.9764,-0.9656,-0.994,-1.1355,-1.1583,-1.2047,-1.3173,-1.3436,-1.3889,-1.4793,-1.5151,-1.5777,-1.6922,-1.7246,-1.7402,-1.7475,-1.7007,-1.6707,-1.6707,-1.6707,-1.6673,-1.6607,-1.6607,-1.6466,-1.6172,-1.5945,-1.5939,-1.6166,-1.6166,-1.6166,-1.6179,-1.6466,-1.6446,2.3303,2.5055,2.6811,2.7705,2.772,2.752,2.738,0.0,0.0,0.0,0.0,0.0,0.0,0.0,0.0,0.0,0.0,0.0,0.0,0.0,0.0,0.0,0.0,0.0,0.0,0.0,0.0,0.0,0.0,0.0,0.0,0.0,2.866,2.7069,2.5077,2.398,2.398,2.0771,1.8526,1.7026,1.4697,1.3531,1.3407,1.1856,0.0,0.0,0.0,0.0,0.7627,0.9158,0.8747,0.7062,0.5757,0.5099,0.4465,0.1166,-0.0,-0.0,-0.0,-0.0,-0.0,-0.0,-0.0,-0.0,-0.0,-0.3593,-0.7912,-0.9345,-0.9751,-0.9836,-0.9825,-0.9822,-0.9822,-0.9822,-0.9822,-0.9822,-0.9822,-0.9822,-0.9822,-0.9822,-1.0353,-1.1013,-1.1852,-1.3087,-1.4132,-1.4601,-1.5237,-1.5825,-1.6318,-1.6387,-1.6717,-1.747,-1.7582,-1.7582,-1.7582,-1.7288,-1.7108,-1.7108,-1.7108,-1.7048,-1.6914,-1.6907,-1.6774,-1.648,-1.6313,-1.6313,-1.6473,-1.6473,-1.6473,-1.648,-1.6774,-1.668,2.2444,2.3326,2.4135,2.5697,2.5728,2.548,2.5819,0.0,0.0,0.0,0.0,0.0,0.0,0.0,0.0,0.0,0.0,0.0,0.0,0.0,0.0,0.0,0.0,0.0,0.0,0.0,0.0,0.0,0.0,0.0,0.0,0.0,0.0,2.478,2.0903,1.8564,1.8102,1.8147,1.6786,1.4247,1.2573,1.1856,1.1736,1.0425,0.0,0.0,0.0,0.0,0.5788,0.7549,0.8307,0.7795,0.2185,-0.0,-0.0,-0.0,-0.0,-0.0,-0.0,-0.0,-0.0,-0.0,-0.0,-0.0,-0.0,-0.2286,-0.5548,-0.8861,-0.9744,-0.9822,-0.9822,-0.9822,-0.9822,-0.9822,-0.9822,-0.9822,-0.9822,-0.9822,-0.9819,-1.0058,-1.1257,-1.2282,-1.2596,-1.4745,-1.6415,-1.6172,-1.7181,-1.7936,-1.7622,-1.7582,-1.7582,-1.7582,-1.7582,-1.7582,-1.7582,-1.7582,-1.7582,-1.7582,-1.7582,-1.7468,-1.7228,-1.7174,-1.7054,-1.6847,-1.6707,-1.6687,-1.6774,-1.6727,-1.6727,-1.678,-1.7081,-1.6927,1.9506,2.0085,2.1248,2.4687,2.5467,2.5258,2.4744,0.0,0.0,0.0,0.0,0.0,0.0,0.0,0.0,0.0,0.0,0.0,0.0,0.0,0.0,0.0,0.0,0.0,0.0,0.0,0.0,0.0,0.0,0.0,0.0,0.0,0.0,2.0046,1.8107,1.573,1.3124,1.3182,1.3039,1.2573,1.0899,1.0179,1.0179,0.9961,0.9852,0.0,0.0,0.9552,0.8676,0.358,0.1481,0.1356,0.0364,-0.0,-0.0,-0.0,-0.0,-0.0,-0.0,-0.0,-0.0,-0.0,-0.0,-0.0,-0.0,-0.2286,-0.5548,-0.8861,-0.9744,-0.9822,-0.9822,-0.9822,-0.9822,-0.9822,-0.9822,-0.9822,-0.9822,-0.9822,-1.0179,-1.1619,-1.1976,-1.3039,-1.5729,-1.6373,-1.6828,-1.7903,-1.7985,-1.7936,-1.7622,-1.7582,-1.7582,-1.7582,-1.7582,-1.7582,-1.7582,-1.7582,-1.7582,-1.7582,-1.7582,-1.7562,-1.7515,-1.7281,-1.7241,-1.7442,-1.672,-1.658,-1.7081,-1.6827,-1.6834,-1.7088,-1.7382,-1.7335,1.8587,1.9067,1.9841,2.194,2.2807,2.2985,0.0,0.0,0.0,0.0,0.0,0.0,0.0,0.0,0.0,0.0,0.0,0.0,0.0,0.0,0.0,0.0,0.0,0.0,0.0,0.0,0.0,0.0,0.0,0.0,0.0,0.0,0.0,0.0,1.4826,1.3361,1.1906,1.1059,1.0725,1.0899,1.0179,0.9822,0.9822,0.9846,0.8864,0.7258,0.0,0.7806,0.4324,0.1234,-0.0,-0.0,-0.0,-0.0,-0.0,-0.0,-0.0,-0.0,-0.0,-0.0,-0.0,-0.0,-0.0,-0.0605,-0.4269,-0.5124,-0.5604,-0.8864,-0.9849,-0.9822,-0.9822,-0.9822,-0.9822,-0.9822,-0.9822,-0.9822,-0.9822,-0.9822,-1.0301,-1.1856,-1.2928,-1.4203,-1.6315,-1.7359,-1.7956,-1.8207,-1.8136,-1.7936,-1.7622,-1.7582,-1.7582,-1.7582,-1.7582,-1.7582,-1.7582,-1.7582,-1.7582,-1.7582,-1.7582,-1.7582,-1.7582,-1.7455,-1.7442,-1.7582,-1.7188,-1.7114,-1.7382,-1.7248,-1.7248,-1.7388,-1.7522,-1.7428,1.7791,1.83,1.875,1.9062,2.0092,0.0,0.0,0.0,0.0,0.0,0.0,0.0,0.0,0.0,0.0,0.0,0.0,0.0,0.0,0.0,0.0,0.0,0.0,0.0,0.0,0.0,0.0,0.0,0.0,0.0,0.0,0.0,0.0,0.0,1.2047,1.1167,1.1212,1.0069,0.9513,0.9771,0.9771,0.9791,0.9829,0.9856,0.8381,0.616,0.705,0.4695,-0.0,-0.0,-0.0,-0.0,-0.0,-0.0,-0.0,-0.0,-0.0987,-0.2346,-0.2346,-0.1851,-0.111,-0.111,-0.111,-0.2096,-0.7173,-0.7406,-0.6517,-0.9111,-0.9839,-0.9822,-0.9822,-0.9822,-0.9822,-0.9822,-0.9822,-0.9822,-0.9822,-1.0061,-1.0899,-1.2453,-1.4004,-1.5612,-1.694,-1.809,-1.8691,-1.831,-1.8076,-1.7903,-1.7809,-1.7736,-1.7689,-1.7689,-1.7689,-1.7662,-1.7589,-1.7582,-1.7582,-1.7582,-1.7582,-1.7582,-1.7582,-1.7582,-1.7582,-1.7582,-1.7515,-1.7515,-1.7582,-1.7515,-1.7515,-1.7582,-1.7582,-1.7462,1.6118,1.6868,1.7431,1.7056,1.8797,0.0,2.162,2.1842,0.0,2.1861,0.0,0.0,0.0,0.0,0.0,0.0,0.0,0.0,0.0,0.0,0.0,0.0,0.0,0.0,0.0,0.0,0.0,0.0,0.0,0.0,0.0,0.0,0.0,0.0,0.0,0.9464,0.961,0.9497,0.9462,0.9625,0.9625,0.9703,0.9852,0.9764,0.9665,0.9183,0.321,0.0494,-0.0,-0.0,-0.0,-0.0,-0.0,-0.0,-0.0,-0.0,-0.3829,-0.906,-0.906,-0.7042,-0.4548,-0.4548,-0.4548,-0.4673,-0.5165,-0.7258,-0.9483,-0.9731,-0.9839,-0.9822,-0.9822,-0.9822,-0.9822,-0.9822,-0.9822,-0.9822,-0.9822,-1.102,-1.2453,-1.4123,-1.5784,-1.7319,-1.8978,-1.8765,-1.8597,-1.8824,-1.815,-1.7809,-1.8357,-1.8183,-1.8016,-1.8016,-1.8016,-1.7896,-1.7609,-1.7582,-1.7582,-1.7582,-1.7582,-1.7582,-1.7582,-1.7582,-1.7582,-1.7582,-1.7321,-1.7315,-1.7582,-1.7315,-1.7321,-1.7582,-1.7582,-1.7569,1.5615,1.6504,1.7275,1.6836,1.8288,0.0,0.0,2.072,2.1482,2.1439,2.2299,0.0,0.0,0.0,0.0,0.0,0.0,0.0,0.0,0.0,0.0,0.0,0.0,0.0,0.0,0.0,0.0,0.0,0.0,0.0,0.0,0.0,0.0,0.0,0.0,0.9055,0.9127,0.9113,0.9081,0.9132,0.9449,0.9571,0.9603,0.9771,0.9846,0.9439,0.284,-0.0,-0.0,-0.0,-0.0,-0.0,-0.0,-0.2469,-0.6062,-0.6062,-0.6425,-0.7035,-0.9041,-0.9032,-0.7899,-0.7899,-0.7899,-0.7896,-0.8,-0.8861,-0.9852,-0.9839,-0.9829,-0.9822,-0.9822,-0.9822,-0.9822,-0.9822,-0.9822,-1.0061,-1.114,-1.1736,-1.2928,-1.5548,-1.6609,-1.7394,-1.8882,-1.8905,-1.8738,-1.8664,-1.8364,-1.823,-1.8464,-1.839,-1.8323,-1.8323,-1.8156,-1.7923,-1.7609,-1.7582,-1.7582,-1.7582,-1.7582,-1.7582,-1.7582,-1.7582,-1.7582,-1.7582,-1.7475,-1.7475,-1.7582,-1.7468,-1.7475,-1.7582,-1.7582,-1.7582,1.4991,1.5704,1.6318,0.0,0.0,0.0,1.8517,2.0115,2.1583,2.155,0.0,0.0,0.0,0.0,0.0,0.0,0.0,0.0,0.0,0.0,0.0,0.0,0.0,0.0,0.0,0.0,0.0,0.0,0.0,0.0,0.0,0.0,0.0,0.0,0.0,0.0,0.9042,0.8981,0.8927,0.9104,0.9269,0.9401,0.9595,0.9751,0.8717,0.6463,0.1947,-0.0,-0.0,-0.0,-0.0,-0.0247,-0.2346,-0.5812,-0.9814,-0.9808,-0.8404,-0.6766,-0.9014,-0.9764,-0.9757,-0.9757,-0.9757,-0.9754,-0.9852,-0.9846,-0.9842,-0.9825,-0.9822,-0.9822,-0.9822,-0.9822,-0.9822,-0.9822,-1.0179,-1.0899,-1.1976,-1.3048,-1.4351,-1.6609,-1.7443,-1.7983,-1.8863,-1.8985,-1.8885,-1.8784,-1.8611,-1.8557,-1.8744,-1.8684,-1.8591,-1.8504,-1.8223,-1.7923,-1.7609,-1.7582,-1.7582,-1.7582,-1.7582,-1.7582,-1.7582,-1.7582,-1.7582,-1.7582,-1.7582,-1.7582,-1.7582,-1.7582,-1.7582,-1.7582,-1.7582,-1.7582,1.4222,1.4167,0.0,0.0,0.0,0.0,1.8178,2.0454,2.2438,2.2285,0.0,0.0,0.0,0.0,0.0,0.0,0.0,0.0,0.0,0.0,0.0,0.0,0.0,0.0,0.0,0.0,0.0,0.0,0.0,0.0,0.0,0.0,0.0,0.0,0.0,0.0,0.9184,0.893,0.9059,0.9453,0.9089,0.9188,0.9845,0.9728,0.6138,-0.0,-0.0,-0.0,-0.0,-0.0121,-0.0122,-0.0741,-0.7182,-0.9818,-0.9814,-0.9791,-0.9761,-0.9856,-0.9856,-0.9839,-0.9822,-0.9822,-0.9822,-0.9822,-0.9822,-0.9822,-0.9822,-0.9822,-0.9822,-0.9822,-0.9822,-0.9822,-0.9822,-0.9822,-1.102,-1.2213,-1.2217,-1.4708,-1.6968,-1.6968,-1.8286,-1.9366,-1.9366,-1.9118,-1.9025,-1.9319,-1.8871,-1.8711,-1.9292,-1.9112,-1.8818,-1.8524,-1.823,-1.7929,-1.7615,-1.7589,-1.7589,-1.7582,-1.7582,-1.7582,-1.7582,-1.7582,-1.7582,-1.7582,-1.7582,-1.7582,-1.7582,-1.7582,-1.7582,-1.7582,-1.7582,-1.7582,1.4017,0.0,0.0,0.0,0.0,0.0,0.0,2.014,0.0,0.0,0.0,0.0,0.0,0.0,0.0,0.0,0.0,0.0,0.0,0.0,0.0,0.0,0.0,0.0,0.0,0.0,0.0,0.0,0.0,0.0,0.0,0.0,0.0,0.0,0.0,0.0,0.8947,0.685,0.6974,0.9342,0.9055,0.9014,0.8971,0.4868,0.1864,-0.0,-0.0,-0.0,-0.0362,-0.5009,-0.6905,-0.6806,-0.6539,-0.7768,-0.9757,-0.9751,-0.9852,-0.9832,-0.9832,-0.9825,-0.9822,-0.9822,-0.9822,-0.9822,-0.9822,-0.9822,-0.9822,-0.9822,-0.9822,-0.9822,-0.9822,-0.9822,-0.9822,-0.9822,-1.102,-1.2453,-1.3646,-1.5548,-1.7325,-1.8519,-1.912,-1.9299,-1.9092,-1.9158,-1.9192,-1.9078,-1.9085,-1.9172,-1.9345,-1.9292,-1.9125,-1.8824,-1.8718,-1.8457,-1.7929,-1.7903,-1.7816,-1.7595,-1.7582,-1.7582,-1.7582,-1.7582,-1.7582,-1.7582,-1.7582,-1.7582,-1.7582,-1.7582,-1.7582,-1.7582,-1.7582,-1.7582,1.3207,0.0,0.0,0.0,0.0,0.0,0.0,0.0,0.0,0.0,0.0,0.0,0.0,0.0,0.0,0.0,0.0,0.0,0.0,0.0,0.0,0.0,0.0,0.0,0.0,0.0,0.0,0.0,0.0,0.0,0.0,0.0,0.0,0.0,0.0,0.0,0.7182,0.6505,0.6063,0.5743,0.7897,0.7702,0.5242,0.1593,-0.0,-0.0,-0.0,-0.129,-0.3794,-0.7856,-0.9546,-0.9585,-0.7575,-0.7958,-0.9852,-0.9846,-0.9832,-0.9822,-0.9822,-0.9822,-0.9822,-0.9822,-0.9822,-0.9822,-0.9822,-0.9822,-0.9822,-0.9822,-0.9822,-0.9822,-0.9822,-1.0301,-1.0778,-1.0778,-1.1976,-1.3646,-1.5192,-1.685,-1.8286,-1.9243,-1.9366,-1.9312,-1.9132,-1.9252,-1.9305,-1.9125,-1.9252,-1.9366,-1.9366,-1.9366,-1.9252,-1.8958,-1.8925,-1.8724,-1.8243,-1.811,-1.7969,-1.7776,-1.7649,-1.7582,-1.7582,-1.7582,-1.7582,-1.7582,-1.7582,-1.7582,-1.7582,-1.7582,-1.7582,-1.7582,-1.7582,-1.7582,1.2182,0.0,0.0,0.0,0.0,0.0,0.0,0.0,0.0,0.0,0.0,0.0,0.0,0.0,0.0,0.0,0.0,0.0,0.0,0.0,0.0,0.0,0.0,0.0,0.0,0.0,0.0,0.0,0.0,0.0,0.0,0.0,0.0,0.0,0.0,0.0,0.4583,0.6852,0.539,0.0,0.5516,0.5288,-0.0,-0.0,-0.0336,-0.0786,-0.0799,-0.3679,-0.8558,-0.8819,-0.9304,-0.9779,-0.9523,-0.9597,-0.9832,-0.9825,-0.9822,-0.9822,-0.9822,-0.9822,-0.9822,-0.9822,-0.9822,-0.9822,-0.9822,-0.9822,-0.9822,-0.9822,-0.9822,-0.9822,-0.9822,-1.102,-1.2213,-1.2333,-1.3646,-1.5192,-1.6727,-1.8279,-1.9366,-1.9366,-1.9366,-1.9366,-1.9366,-1.9366,-1.9366,-1.9366,-1.9366,-1.9366,-1.9366,-1.9366,-1.9265,-1.8991,-1.8965,-1.8844,-1.8557,-1.8257,-1.809,-1.809,-1.7796,-1.7635,-1.7662,-1.7609,-1.7582,-1.7582,-1.7582,-1.7582,-1.7582,-1.7582,-1.7582,-1.7582,-1.7582,-1.7582,0.0,1.2249,0.0,0.0,0.0,0.0,0.0,0.0,0.0,0.0,0.0,0.0,0.0,0.0,0.0,0.0,0.0,0.0,0.0,0.0,0.0,0.0,0.0,0.0,0.0,0.0,0.0,0.0,0.0,0.0,0.0,0.0,0.0,0.0,0.0,0.7519,0.4583,0.2799,0.1233,0.0,0.1346,0.1234,-0.0,-0.0,-0.2578,-0.698,-0.6982,-0.6441,-0.5622,-0.8067,-0.9208,-0.9362,-0.9459,-0.9635,-0.9676,-0.9781,-0.9822,-0.9822,-0.9822,-0.9822,-0.9822,-0.9822,-0.9822,-0.9822,-0.9822,-0.9822,-0.9822,-0.9822,-0.9822,-0.9822,-0.9822,-1.102,-1.2573,-1.3765,-1.5311,-1.6609,-1.6968,-1.8279,-1.9366,-1.9366,-1.9366,-1.9366,-1.9366,-1.9366,-1.9366,-1.9366,-1.9366,-1.9366,-1.9366,-1.9366,-1.9339,-1.9279,-1.9272,-1.9152,-1.8858,-1.8564,-1.8397,-1.8397,-1.811,-1.805,-1.829,-1.7836,-1.7582,-1.7582,-1.7582,-1.7582,-1.7582,-1.7582,-1.7582,-1.7582,-1.7582,-1.7582,0.0,0.0,0.0,0.0,0.0,0.0,0.0,0.0,0.0,0.0,0.0,0.0,0.0,0.0,0.0,0.0,0.0,0.0,0.0,0.0,0.0,0.0,0.0,0.0,0.0,0.0,0.0,0.0,0.0,0.0,0.0,0.0,0.0,0.0,0.8838,0.8115,0.6656,0.2197,-0.0,-0.0,-0.0,-0.1447,-0.4263,-0.4263,-0.516,-0.6852,-0.8292,-0.8079,-0.6686,-0.836,-0.9121,-0.9178,-0.9364,-0.9483,-0.9618,-0.9693,-0.9764,-0.9822,-0.9822,-0.9778,-0.972,-0.972,-0.972,-0.972,-0.972,-0.9768,-0.9822,-0.9822,-1.0301,-1.0899,-1.0899,-1.2689,-1.4708,-1.5542,-1.6374,-1.7208,-1.7923,-1.8765,-1.9366,-1.9366,-1.9366,-1.9366,-1.9366,-1.9366,-1.9366,-1.9366,-1.9366,-1.9366,-1.9366,-1.9366,-1.9366,-1.9366,-1.9366,-1.9305,-1.9152,-1.8738,-1.8551,-1.8691,-1.829,-1.8183,-1.8477,-1.8183,-1.7949,-1.7809,-1.7655,-1.7582,-1.7582,-1.7582,-1.7582,-1.7582,-1.7582,-1.7582,0.0,0.0,0.0,0.0,0.0,0.0,0.0,0.0,0.0,0.0,0.0,0.0,0.0,0.0,0.0,0.0,0.0,0.0,0.0,0.0,0.0,0.0,0.0,0.0,0.0,0.0,0.0,0.0,0.0,0.0,0.0,0.0,0.8648,0.8562,0.8831,0.8869,0.8889,0.3008,-0.0,-0.0,-0.0981,-0.3731,-0.8036,-0.8598,-0.7485,-0.5367,-0.7859,-0.8876,-0.8856,-0.8856,-0.9025,-0.912,-0.9144,-0.9306,-0.9534,-0.9561,-0.9646,-0.9744,-0.9744,-0.9669,-0.9571,-0.9571,-0.9571,-0.9571,-0.9571,-0.9673,-0.9785,-0.9785,-1.0997,-1.2213,-1.2213,-1.4589,-1.6968,-1.6968,-1.7208,-1.7806,-1.9127,-1.9366,-1.9366,-1.9366,-1.9366,-1.9366,-1.9366,-1.9366,-1.9366,-1.9366,-1.9366,-1.9366,-1.9366,-1.9366,-1.9366,-1.9366,-1.9366,-1.9366,-1.9366,-1.8871,-1.8691,-1.8985,-1.8497,-1.8337,-1.8631,-1.8591,-1.8424,-1.813,-1.7816,-1.7635,-1.7582,-1.7582,-1.7582,-1.7582,-1.7582,-1.7582,0.0,0.0,0.0,0.0,0.0,0.0,0.0,0.0,0.0,0.0,0.0,0.0,0.0,0.0,0.0,0.0,0.0,0.0,0.0,0.0,0.0,0.0,0.0,0.0,0.0,0.0,0.0,0.0,0.0,0.0,0.0,0.8333,0.8357,0.8488,0.8748,0.8945,0.8945,0.299,-0.0,-0.0107,-0.4714,-0.6112,-0.4704,-0.7284,-0.8396,-0.8295,-0.8752,-0.8853,-0.8944,-0.8944,-0.8954,-0.8981,-0.9103,-0.9178,-0.9228,-0.9364,-0.9422,-0.9439,-0.9439,-0.9429,-0.9412,-0.9412,-0.9412,-0.9412,-0.9412,-0.9517,-0.9639,-0.9639,-1.0913,-1.2213,-1.2213,-1.4589,-1.6968,-1.6968,-1.8046,-1.9127,-1.9366,-1.9366,-1.9366,-1.9366,-1.9366,-1.9366,-1.9366,-1.9366,-1.9366,-1.9366,-1.9366,-1.9366,-1.9366,-1.9366,-1.9366,-1.9366,-1.9366,-1.9366,-1.9366,-1.9058,-1.8991,-1.9292,-1.8991,-1.8938,-1.9239,-1.9005,-1.8731,-1.8437,-1.8136,-1.7849,-1.7582,-1.7582,-1.7582,-1.7582,-1.7582,-1.7582,0.0,0.0,0.0,0.0,0.0,0.0,0.0,0.0,0.0,0.0,0.0,0.0,0.0,0.0,0.0,0.0,0.0,0.0,0.0,0.0,0.0,0.0,0.0,0.0,0.0,0.0,0.0,0.0,0.0,0.0,0.818,0.6688,0.663,0.813,0.8633,0.7282,0.3995,0.1352,-0.0,-0.0105,-0.5422,-0.7375,-0.6278,-0.766,-0.8518,-0.8825,-0.8825,-0.8869,-0.894,-0.894,-0.894,-0.8947,-0.9008,-0.9083,-0.9161,-0.9228,-0.9306,-0.9381,-0.9381,-0.9323,-0.9252,-0.9252,-0.9252,-0.9252,-0.9252,-0.9418,-0.9846,-1.0654,-1.2188,-1.3765,-1.4713,-1.6615,-1.8286,-1.8286,-1.8887,-1.9366,-1.9366,-1.9366,-1.9366,-1.9366,-1.9366,-1.9366,-1.9366,-1.9366,-1.9366,-1.9366,-1.9366,-1.9366,-1.9366,-1.9366,-1.9366,-1.9366,-1.9366,-1.9366,-1.9366,-1.9092,-1.9052,-1.9352,-1.9085,-1.9058,-1.9359,-1.9085,-1.8784,-1.8497,-1.8196,-1.7896,-1.7582,-1.7582,-1.7582,-1.7582,-1.7582,-1.7582,0.0,0.0,0.0,0.0,0.0,0.0,0.0,0.0,0.0,0.0,0.0,0.0,0.0,0.0,0.0,0.0,0.0,0.0,0.0,0.0,0.0,0.0,0.0,0.0,0.0,0.0,0.0,0.0,0.0,0.0,0.8006,0.6131,0.5353,0.5994,0.6413,0.4541,-0.0,-0.0,-0.0712,-0.2062,-0.5439,-0.7377,-0.8001,-0.819,-0.8361,-0.8601,-0.8635,-0.8737,-0.8879,-0.8879,-0.8903,-0.894,-0.894,-0.9005,-0.91,-0.91,-0.9171,-0.9269,-0.9269,-0.9195,-0.91,-0.91,-0.91,-0.91,-0.91,-0.931,-0.9901,-1.152,-1.3212,-1.4955,-1.6609,-1.8163,-1.9366,-1.9366,-1.9366,-1.9345,-1.9272,-1.9319,-1.9345,-1.9265,-1.9319,-1.9366,-1.9366,-1.9366,-1.9366,-1.9366,-1.9366,-1.9366,-1.9366,-1.9366,-1.9366,-1.9366,-1.9366,-1.9366,-1.9366,-1.9165,-1.9132,-1.9352,-1.9158,-1.9132,-1.9359,-1.9152,-1.8865,-1.8497,-1.8343,-1.8083,-1.7702,-1.7622,-1.7622,-1.7702,-1.7615,-1.7582,0.0,0.0,0.0,0.0,0.0,0.0,0.0,0.0,0.0,0.0,0.0,0.0,0.0,0.0,0.0,0.0,0.0,0.0,0.0,0.0,0.0,0.0,0.0,0.0,0.0,0.0,0.0,0.0,0.0,0.0,0.8022,0.7824,0.5571,0.0607,0.0405,0.0303,-0.0,-0.0,-0.2526,-0.7522,-0.5251,-0.5548,-0.7999,-0.7975,-0.8147,-0.8299,-0.8435,-0.8581,-0.8723,-0.8723,-0.8808,-0.894,-0.894,-0.8944,-0.895,-0.895,-0.8954,-0.896,-0.896,-0.8957,-0.895,-0.895,-0.895,-0.895,-0.895,-0.9157,-0.9736,-1.1339,-1.3105,-1.4955,-1.6609,-1.8163,-1.9366,-1.9366,-1.9366,-1.9292,-1.9005,-1.9165,-1.9285,-1.8998,-1.9172,-1.9366,-1.9366,-1.9366,-1.9366,-1.9366,-1.9366,-1.9366,-1.9366,-1.9366,-1.9366,-1.9366,-1.9366,-1.9366,-1.9366,-1.9352,-1.9352,-1.9366,-1.9352,-1.9352,-1.9366,-1.9352,-1.9078,-1.8504,-1.8744,-1.8597,-1.8023,-1.7722,-1.7736,-1.8016,-1.7716,-1.7582,0.0,0.0,0.0,0.0,0.0,0.0,0.0,0.0,0.0,0.0,0.0,0.0,0.0,0.0,0.0,0.0,0.0,0.0,0.0,0.0,0.0,0.0,0.0,0.0,0.0,0.0,0.0,0.0,0.0,0.0,0.303,0.2828,0.2019,0.0101,-0.0,-0.1615,-0.5056,-0.5157,-0.5251,-0.5441,-0.6242,-0.7054,-0.7972,-0.8048,-0.8069,-0.8126,-0.8177,-0.8336,-0.857,-0.8669,-0.8743,-0.8801,-0.8899,-0.894,-0.894,-0.894,-0.894,-0.894,-0.894,-0.894,-0.894,-0.894,-0.894,-0.894,-0.894,-0.9147,-0.995,-1.2566,-1.3907,-1.5198,-1.7806,-1.9004,-1.9366,-1.9366,-1.9366,-1.9285,-1.8985,-1.9158,-1.9332,-1.9232,-1.9292,-1.9366,-1.9366,-1.9366,-1.9366,-1.9366,-1.9366,-1.9366,-1.9366,-1.9366,-1.9366,-1.9366,-1.9366,-1.9366,-1.9366,-1.9366,-1.9366,-1.9366,-1.9366,-1.9366,-1.9366,-1.9185,-1.8985,-1.8771,-1.8691,-1.845,-1.805,-1.8123,-1.8223,-1.8323,-1.8023,-1.7883,1.0876,0.0,0.0,0.0,0.0,0.0,0.0,0.0,0.0,0.0,0.0,0.0,0.0,0.0,0.0,0.0,0.0,0.0,0.0,0.0,0.0,0.0,0.0,0.0,0.0,0.0,0.0,0.0,0.0,0.0,0.0303,-0.0,-0.0,-0.0,-0.1716,-0.4347,-0.7922,-0.8019,-0.7077,-0.5329,-0.7153,-0.7969,-0.7962,-0.8045,-0.8038,-0.8038,-0.8038,-0.818,-0.8418,-0.852,-0.8591,-0.8645,-0.8747,-0.8784,-0.8791,-0.8845,-0.8862,-0.8869,-0.892,-0.894,-0.894,-0.894,-0.9265,-0.9588,-0.9588,-1.0257,-1.1429,-1.4148,-1.5061,-1.6026,-1.8648,-1.9366,-1.9366,-1.9366,-1.9366,-1.9312,-1.9118,-1.9225,-1.9339,-1.9239,-1.9299,-1.9366,-1.9366,-1.9366,-1.9366,-1.9366,-1.9366,-1.9366,-1.9366,-1.9366,-1.9366,-1.9366,-1.9366,-1.9366,-1.9366,-1.9366,-1.9366,-1.9366,-1.9366,-1.9366,-1.9366,-1.9178,-1.9025,-1.8925,-1.8831,-1.8637,-1.8343,-1.8444,-1.8544,-1.8624,-1.823,-1.805,0.0,0.0,0.0,0.0,0.0,0.0,0.0,0.0,0.0,0.0,0.0,0.0,0.0,0.0,0.0,0.0,0.0,0.0,0.0,0.0,0.0,0.0,0.0,0.0,0.0,0.0,0.0,0.0,0.0,0.5464,0.0303,-0.0,-0.0101,-0.0202,-0.526,-0.8026,-0.8022,-0.8002,-0.7982,-0.7972,-0.7972,-0.7962,-0.8038,-0.8038,-0.8038,-0.8038,-0.8038,-0.8126,-0.8265,-0.8269,-0.835,-0.8476,-0.8479,-0.8482,-0.8499,-0.8648,-0.8703,-0.8726,-0.8879,-0.893,-0.8933,-0.8937,-0.9915,-1.1105,-1.1105,-1.2469,-1.4261,-1.5844,-1.6671,-1.7319,-1.9004,-1.9366,-1.9366,-1.9366,-1.9366,-1.9366,-1.9366,-1.9366,-1.9279,-1.8991,-1.9172,-1.9366,-1.9366,-1.9366,-1.9366,-1.9366,-1.9366,-1.9366,-1.9366,-1.9366,-1.9366,-1.9366,-1.9366,-1.9366,-1.9366,-1.9366,-1.9366,-1.9366,-1.9366,-1.9366,-1.9366,-1.9366,-1.9232,-1.8945,-1.9219,-1.9225,-1.8931,-1.8651,-1.8657,-1.8925,-1.8343,-1.807,1.0506,0.0,0.0,0.0,0.0,0.0,0.0,0.0,0.0,0.0,0.0,0.0,0.0,0.0,0.0,0.0,0.0,0.0,0.0,0.0,0.0,0.0,0.0,0.0,0.0,0.0,0.0,0.0,0.4448,0.1615,0.0101,-0.0,-0.1817,-0.5667,-0.7202,-0.8012,-0.7985,-0.7982,-0.7969,-0.8048,-0.8048,-0.8045,-0.8038,-0.8038,-0.8038,-0.8038,-0.8038,-0.8065,-0.8113,-0.8225,-0.8292,-0.834,-0.8442,-0.8482,-0.8486,-0.853,-0.8547,-0.8567,-0.872,-0.8774,-0.89,-1.0093,-1.0781,-1.1324,-1.2403,-1.3137,-1.3953,-1.5798,-1.6427,-1.708,-1.8951,-1.9366,-1.9366,-1.9366,-1.9366,-1.9366,-1.9366,-1.9366,-1.9339,-1.9259,-1.9312,-1.9366,-1.9366,-1.9366,-1.9366,-1.9366,-1.9366,-1.9366,-1.9366,-1.9366,-1.9366,-1.9366,-1.9366,-1.9366,-1.9366,-1.9366,-1.9366,-1.9366,-1.9366,-1.9366,-1.9366,-1.9366,-1.9332,-1.9245,-1.9325,-1.9325,-1.9245,-1.9165,-1.9165,-1.9232,-1.8858,-1.8571,0.0,0.0,0.0,0.0,0.0,0.0,0.0,0.0,0.0,0.0,0.0,0.0,0.0,0.0,0.0,0.0,0.0,0.0,0.0,0.0,0.0,0.0,0.0,0.0,0.0,0.0,0.0,0.0,0.1774,-0.0,-0.0,-0.2111,-0.4752,-0.7922,-0.8012,-0.7995,-0.7972,-0.7962,-0.7952,-0.8038,-0.8038,-0.8038,-0.8038,-0.8038,-0.8038,-0.8038,-0.8038,-0.8038,-0.8045,-0.8136,-0.8174,-0.818,-0.8265,-0.8299,-0.8306,-0.837,-0.8394,-0.8519,-0.9188,-0.9499,-0.9892,-1.1379,-1.2328,-1.3048,-1.3911,-1.4733,-1.5626,-1.6667,-1.7216,-1.7786,-1.8902,-1.9279,-1.9366,-1.9366,-1.9366,-1.9366,-1.9366,-1.9366,-1.9366,-1.9366,-1.9366,-1.9366,-1.9366,-1.9366,-1.9366,-1.9366,-1.9366,-1.9366,-1.9366,-1.9366,-1.9366,-1.9366,-1.9366,-1.9366,-1.9366,-1.9366,-1.9366,-1.9366,-1.9366,-1.9366,-1.9366,-1.9366,-1.9366,-1.9366,-1.9366,-1.9366,-1.9366,-1.9366,-1.9305,-1.9178,-1.9005,-1.8831,0.0,0.0,0.0,0.0,0.0,0.0,0.6536,0.6485,0.0,0.0,0.0,0.0,0.0,0.0,0.0,0.0,0.0,0.0,0.0,0.0,0.0,0.0,0.0,0.0,0.0,0.0,-0.0,-0.0,-0.0477,-0.0769,-0.0782,-0.5077,-0.7669,-0.7992,-0.7965,-0.7955,-0.7969,-0.8048,-0.8038,-0.8038,-0.8038,-0.8038,-0.8038,-0.8038,-0.8038,-0.8038,-0.8038,-0.8038,-0.8038,-0.8038,-0.8038,-0.8038,-0.8038,-0.8038,-0.8055,-0.8194,-0.8347,-0.8667,-0.9943,-1.0623,-1.1292,-1.26,-1.4128,-1.5382,-1.5624,-1.6681,-1.8003,-1.8036,-1.8444,-1.8885,-1.8918,-1.9118,-1.9325,-1.9359,-1.9339,-1.9325,-1.9359,-1.9339,-1.9325,-1.9359,-1.9366,-1.9366,-1.9366,-1.9366,-1.9366,-1.9366,-1.9366,-1.9366,-1.9366,-1.9366,-1.9366,-1.9366,-1.9366,-1.9366,-1.9366,-1.9366,-1.9366,-1.9366,-1.9366,-1.9366,-1.9366,-1.9366,-1.9366,-1.9366,-1.9366,-1.9366,-1.9366,-1.9366,-1.9232,-1.8971,-1.8971,-1.8958,0.0,0.0,0.0,0.0,0.0,0.0,0.6715,0.6559,0.0,0.0,0.0,0.0,0.0,0.0,0.0,0.0,0.0,0.0,0.0,0.0,0.0,0.0,0.0,0.0,0.0,0.0,-0.0,-0.0,-0.3531,-0.5751,-0.5679,-0.4905,-0.5427,-0.7697,-0.7791,-0.7841,-0.8045,-0.8041,-0.8038,-0.8038,-0.8038,-0.8038,-0.8038,-0.8038,-0.8038,-0.8038,-0.8038,-0.8038,-0.8038,-0.8038,-0.8038,-0.8038,-0.8038,-0.8038,-0.8041,-0.8072,-0.8774,-0.9685,-1.0155,-1.0945,-1.2253,-1.3964,-1.4752,-1.5362,-1.6753,-1.7404,-1.7722,-1.7976,-1.8303,-1.8631,-1.8865,-1.8965,-1.9072,-1.9312,-1.9185,-1.9078,-1.9319,-1.9178,-1.9085,-1.9319,-1.9366,-1.9366,-1.9366,-1.9366,-1.9366,-1.9366,-1.9366,-1.9366,-1.9366,-1.9366,-1.9366,-1.9366,-1.9366,-1.9366,-1.9366,-1.9366,-1.9366,-1.9366,-1.9366,-1.9366,-1.9366,-1.9366,-1.9366,-1.9366,-1.9366,-1.9366,-1.9366,-1.9366,-1.9339,-1.9279,-1.9279,-1.9152,0.0,0.0,0.0,0.7406,0.0,0.0,0.0,0.6807,0.0,0.0,0.0,0.0,0.0,0.0,0.0,0.0,0.0,0.0,0.0,0.0,0.0,0.0,0.0,0.0,0.0,0.0,-0.3526,-0.3519,-0.4671,-0.5831,-0.7073,-0.6064,-0.6138,-0.7641,-0.7738,-0.7798,-0.8038,-0.7963,-0.7963,-0.8038,-0.7963,-0.7967,-0.8038,-0.8038,-0.8038,-0.8038,-0.8038,-0.8038,-0.8038,-0.8726,-0.9019,-0.8924,-0.8233,-0.8432,-0.9019,-0.9019,-0.9801,-1.1082,-1.1766,-1.2563,-1.3502,-1.5181,-1.5777,-1.6036,-1.7061,-1.7468,-1.7615,-1.7769,-1.8029,-1.829,-1.8444,-1.8704,-1.8925,-1.8931,-1.8925,-1.8965,-1.9112,-1.9025,-1.9011,-1.9305,-1.9366,-1.9366,-1.9366,-1.9366,-1.9366,-1.9366,-1.9366,-1.9366,-1.9366,-1.9366,-1.9366,-1.9366,-1.9366,-1.9366,-1.9366,-1.9366,-1.9366,-1.9366,-1.9366,-1.9366,-1.9366,-1.9366,-1.9366,-1.9366,-1.9366,-1.9366,-1.9366,-1.9366,-1.9366,-1.9366,-1.9219,-1.9145,0.0,0.0,0.0,0.0,0.0,0.7373,0.0,0.0,0.0,0.0,0.0,0.0,0.0,0.0,0.0,0.0,0.0,0.0,0.0,0.0,0.0,0.0,0.0,0.0,0.0,0.0,-0.657,-0.7039,-0.535,-0.5022,-0.6998,-0.728,-0.7416,-0.7694,-0.778,-0.7855,-0.8038,-0.7916,-0.7916,-0.8038,-0.7916,-0.7919,-0.8038,-0.8038,-0.8038,-0.8038,-0.8038,-0.8137,-0.8432,-0.9509,-1.0096,-1.0293,-0.9213,-0.941,-1.0386,-1.0386,-1.1165,-1.2431,-1.3488,-1.4207,-1.479,-1.5953,-1.6506,-1.6847,-1.7141,-1.7395,-1.7582,-1.7582,-1.7749,-1.7949,-1.8029,-1.8397,-1.8711,-1.8537,-1.8624,-1.8784,-1.8898,-1.8878,-1.8945,-1.9299,-1.9366,-1.9366,-1.9366,-1.9366,-1.9366,-1.9366,-1.9366,-1.9366,-1.9366,-1.9366,-1.9366,-1.9366,-1.9366,-1.9366,-1.9366,-1.9366,-1.9366,-1.9366,-1.9366,-1.9366,-1.9366,-1.9366,-1.9366,-1.9366,-1.9366,-1.9366,-1.9366,-1.9366,-1.9366,-1.9359,-1.9118,-1.9138,0.0,0.0,0.0,0.0,0.7678,0.0,0.0,0.0,0.0,0.0,0.0,0.4107,0.5949,0.0,0.0,0.0,0.0,0.0,0.0,0.0,0.0,0.0,0.0,0.0,0.0,0.0,0.0,-0.6913,-0.6715,-0.6611,-0.7104,-0.7108,-0.7235,-0.7617,-0.7624,-0.7756,-0.8035,-0.8021,-0.8021,-0.8038,-0.8021,-0.8021,-0.8038,-0.8038,-0.8038,-0.8038,-0.8038,-0.8627,-0.9801,-0.9903,-1.0681,-1.1653,-1.1556,-1.1556,-1.1653,-1.1653,-1.2528,-1.368,-1.3878,-1.4675,-1.5721,-1.6186,-1.6647,-1.7154,-1.7442,-1.7555,-1.7582,-1.7582,-1.7609,-1.7695,-1.7976,-1.8096,-1.8203,-1.8437,-1.8317,-1.829,-1.8811,-1.8724,-1.8704,-1.9259,-1.9366,-1.9366,-1.9366,-1.9366,-1.9366,-1.9366,-1.9366,-1.9366,-1.9366,-1.9366,-1.9366,-1.9366,-1.9366,-1.9366,-1.9366,-1.9366,-1.9366,-1.9366,-1.9366,-1.9366,-1.9366,-1.9366,-1.9366,-1.9366,-1.9366,-1.9366,-1.9366,-1.9366,-1.9366,-1.9366,-1.9332,-1.9332,0.0,0.0,0.0,0.0,0.0,0.0,0.0,0.0,0.7034,0.0,0.0,0.0,0.0,0.0,0.0,0.0,0.0,0.0,0.0,0.0,0.0,0.0,0.0,0.0,0.0,0.0,0.0,0.0,0.0,-0.6877,-0.694,-0.7102,-0.7241,-0.7461,-0.7553,-0.7699,-0.7906,-0.7824,-0.7872,-0.8038,-0.7865,-0.7875,-0.8038,-0.8038,-0.8432,-0.9118,-0.9118,-0.9899,-1.1165,-1.194,-1.2619,-1.3102,-1.3884,-1.3692,-1.3102,-1.3102,-1.3878,-1.5045,-1.5045,-1.5343,-1.5852,-1.5972,-1.6413,-1.6914,-1.7034,-1.7315,-1.7582,-1.7582,-1.7582,-1.7609,-1.7742,-1.7909,-1.8083,-1.8203,-1.827,-1.8417,-1.8831,-1.8824,-1.8865,-1.9285,-1.9366,-1.9366,-1.9366,-1.9366,-1.9366,-1.9366,-1.9366,-1.9366,-1.9366,-1.9366,-1.9366,-1.9366,-1.8525,-1.8402,-1.9366,-1.7695,-1.6979,-1.7929,-1.8046,-1.8046,-1.8046,-1.8881,-1.9366,-1.9366,-1.9366,-1.9366,-1.9366,-1.9366,-1.9366,-1.9366,-1.9366,-1.9366,0.8192,0.0,0.0,0.0,0.0,0.0,0.0,0.0,0.0,0.0,0.0,0.0,0.0,0.0,-0.0,0.0,0.0,0.0,0.0,0.0,0.0,0.0,0.0,0.0,0.0,0.0,0.0,0.0,0.0,0.0,-0.6922,-0.7024,-0.717,-0.7366,-0.7478,-0.7607,-0.775,-0.7651,-0.7726,-0.7974,-0.814,-0.8361,-0.8528,-0.892,-0.9604,-1.0485,-1.0485,-1.1263,-1.2522,-1.3488,-1.407,-1.4555,-1.5439,-1.5242,-1.4459,-1.4459,-1.5045,-1.5832,-1.5832,-1.5832,-1.5845,-1.5925,-1.6293,-1.672,-1.68,-1.7181,-1.7582,-1.7582,-1.7582,-1.7582,-1.7582,-1.7749,-1.7943,-1.8023,-1.8217,-1.847,-1.8844,-1.8865,-1.8891,-1.9185,-1.9245,-1.9245,-1.9245,-1.9312,-1.9366,-1.9366,-1.9366,-1.9366,-1.9366,-1.9366,-1.9243,-1.8765,-1.7689,-1.7325,-1.8052,-1.5913,-1.5074,-1.6256,-1.6733,-1.6968,-1.6968,-1.8525,-1.9366,-1.9366,-1.9366,-1.9366,-1.9366,-1.9366,-1.9366,-1.9366,-1.9366,-1.9366,0.0,0.0,0.0,0.8038,0.0,0.0,0.0,0.0,0.7143,0.0,0.0,0.0,0.0,-0.0,-0.0,-0.0,0.0,0.0,0.0,0.0,0.0,0.0,0.0,0.0,0.0,0.0,0.0,0.0,0.0,0.0,-0.6912,-0.6932,-0.7068,-0.7363,-0.7377,-0.7451,-0.7604,-0.76,-0.7675,-0.7818,-0.9144,-0.9812,-0.9998,-1.1165,-1.1755,-1.1853,-1.1853,-1.2624,-1.3878,-1.3878,-1.4657,-1.573,-1.5825,-1.5737,-1.573,-1.573,-1.573,-1.5832,-1.5832,-1.5832,-1.5879,-1.6166,-1.646,-1.676,-1.7048,-1.7341,-1.7582,-1.7582,-1.7582,-1.7582,-1.7582,-1.7589,-1.7669,-1.7976,-1.8056,-1.8217,-1.8798,-1.8704,-1.8591,-1.8878,-1.8938,-1.8938,-1.8938,-1.9178,-1.9366,-1.9366,-1.9366,-1.9366,-1.9366,-1.9366,-1.8765,-1.7208,-1.7085,-1.6374,-1.4842,-1.4604,-1.4604,-1.4723,-1.6138,-1.6968,-1.6968,-1.8525,-1.9366,-1.9366,-1.9366,-1.9366,-1.9366,-1.9366,-1.9366,-1.9366,-1.9366,-1.9366,0.0,0.0,0.7913,0.8014,0.0,0.0,0.0,0.0,0.0,0.0,0.0,0.0,0.0,0.0,-0.0932,-0.3684,-0.4177,0.0,0.0,0.0,0.0,0.0,0.0,0.0,0.0,0.0,0.0,0.0,0.0,0.0,0.0,-0.6875,-0.7017,-0.721,-0.7319,-0.7444,-0.7597,-0.76,-0.7723,-0.796,-0.9204,-0.9912,-0.9998,-1.1361,-1.2425,-1.3199,-1.3199,-1.3974,-1.5146,-1.5146,-1.5439,-1.5832,-1.5832,-1.5832,-1.5832,-1.5832,-1.5832,-1.5832,-1.5832,-1.5832,-1.5879,-1.6179,-1.6466,-1.676,-1.7061,-1.7355,-1.7582,-1.7582,-1.7582,-1.7582,-1.7582,-1.7582,-1.7662,-1.7969,-1.8196,-1.8397,-1.8597,-1.8711,-1.8751,-1.8657,-1.8637,-1.8698,-1.8891,-1.8026,-1.7856,-1.9183,-1.8525,-1.7806,-1.7806,-1.6856,-1.5965,-1.5327,-1.4385,-1.3941,-1.4392,-1.4372,-1.3903,-1.2858,-1.5189,-1.6709,-1.6709,-1.8423,-1.9366,-1.9366,-1.9366,-1.9366,-1.9366,-1.9366,-1.9366,-1.9366,-1.9366,-1.9366,0.7974,0.7885,0.0,0.7933,0.7777,0.0,0.7723,0.0,0.0,0.0,0.0,0.0,0.0,0.0,0.0,-0.5858,-0.628,-0.5781,0.0,-0.5395,0.0,0.0,0.0,0.0,0.0,0.0,0.0,-0.6183,-0.6315,0.0,0.0,0.0,-0.6915,-0.7061,-0.721,-0.7542,-0.8158,-0.7795,-0.7949,-0.8637,-0.9865,-1.0583,-1.0779,-1.2528,-1.3788,-1.4561,-1.4561,-1.5045,-1.5832,-1.5832,-1.5832,-1.5832,-1.5832,-1.5832,-1.5832,-1.5832,-1.5832,-1.5832,-1.5832,-1.5832,-1.5879,-1.6179,-1.6466,-1.676,-1.7061,-1.7355,-1.7582,-1.7582,-1.7582,-1.7582,-1.7582,-1.7582,-1.7662,-1.7969,-1.8196,-1.8364,-1.847,-1.8551,-1.8557,-1.837,-1.833,-1.8424,-1.8718,-1.7416,-1.6822,-1.8332,-1.7131,-1.6127,-1.6127,-1.5184,-1.428,-1.3596,-1.2646,-1.2233,-1.2642,-1.3096,-1.2979,-1.1825,-1.4919,-1.6674,-1.6465,-1.8276,-1.9259,-1.9366,-1.9265,-1.9259,-1.9366,-1.9366,-1.9366,-1.9366,-1.9366,-1.9312]},{"header":{"parameterUnit":"m.s-1","parameterCategory":1,"la1":30.6,"la2":29.2853,"lo1":-89.7004,"lo2":-87.6739,"dy":0.0162,"dx":0.0183,"nx":112,"ny":82,"refTime":"2023-05-19T12:00:00:Z","depth":0,"parameterNumber":3,"parameterNumberName":"V-component_of_WINDS"},"data":[0.0,0.0,0.0,0.0,0.0,0.0,0.0,0.0,0.0,0.0,0.0,0.0,0.0,0.0,0.0,0.0,0.0,0.0,0.0,0.0,0.0,0.0,0.0,0.0,0.0,0.0,0.0,0.0,0.0,0.0,0.0,0.0,0.0,0.0,0.0,0.0,0.0,0.0,0.0,0.0,0.0,0.0,0.0,0.0,0.0,0.0,0.0,0.0,0.0,0.0,0.0,0.0,0.0,0.0,0.0,0.0,0.0,0.0,0.0,0.0,0.0,0.0,0.0,0.0,0.0,0.0,0.0,0.0,0.0,0.0,0.0,0.0,0.0,0.0,0.0,0.0,0.0,0.0,0.0,0.0,0.0,0.0,0.0,0.0,0.0,0.0,0.0,0.0,0.0,0.0,0.0,-1.5428,-1.6252,-1.6752,-1.6752,-1.6166,-1.6494,-1.8129,0.0,0.0,0.0,0.0,0.0,0.0,0.0,0.0,0.0,0.0,0.0,0.0,0.0,0.0,0.0,0.0,0.0,0.0,0.0,0.0,0.0,0.0,0.0,0.0,0.0,0.0,0.0,0.0,0.0,0.0,0.0,0.0,0.0,0.0,0.0,0.0,0.0,0.0,0.0,0.0,0.0,0.0,0.0,0.0,0.0,0.0,0.0,0.0,0.0,0.0,0.0,0.0,0.0,0.0,0.0,0.0,0.0,0.0,0.0,0.0,0.0,0.0,0.0,0.0,0.0,0.0,0.0,0.0,0.0,0.0,0.0,0.0,0.0,0.0,0.0,0.0,0.0,0.0,0.0,0.0,0.0,0.0,0.0,0.0,0.0,0.0,0.0,0.0,0.0,0.0,0.0,0.0,0.0,0.0,0.0,0.0,0.0,0.0,0.0,0.0,0.0,0.0,0.0,0.0,-1.6488,-1.6198,-1.7197,-1.7867,-1.7867,-1.6845,-1.6941,-1.8655,0.0,0.0,0.0,0.0,0.0,0.0,0.0,0.0,0.0,0.0,0.0,0.0,0.0,0.0,0.0,0.0,0.0,0.0,0.0,0.0,0.0,0.0,0.0,0.0,0.0,0.0,0.0,0.0,0.0,0.0,0.0,0.0,0.0,0.0,0.0,0.0,0.0,0.0,0.0,0.0,0.0,0.0,0.0,0.0,0.0,0.0,0.0,0.0,0.0,0.0,0.0,0.0,0.0,0.0,0.0,0.0,0.0,0.0,0.0,0.0,0.0,0.0,0.0,0.0,0.0,0.0,0.0,0.0,0.0,0.0,0.0,0.0,0.0,0.0,0.0,0.0,0.0,0.0,0.0,0.0,0.0,0.0,0.0,0.0,0.0,0.0,0.0,0.0,0.0,0.0,0.0,0.0,0.0,0.0,0.0,0.0,0.0,0.0,0.0,0.0,0.0,0.0,0.0,-1.6652,-1.6626,-1.6084,-1.6631,-1.7013,-1.7013,-1.6239,-1.6501,-1.8266,-1.844,0.0,0.0,0.0,0.0,0.0,0.0,0.0,0.0,0.0,0.0,0.0,0.0,0.0,0.0,0.0,0.0,0.0,0.0,0.0,0.0,0.0,0.0,0.0,0.0,0.0,0.0,0.0,0.0,0.0,0.0,0.0,0.0,0.0,0.0,0.0,0.0,0.0,0.0,0.0,0.0,0.0,0.0,0.0,0.0,0.0,0.0,0.0,0.0,0.0,0.0,0.0,0.0,0.0,0.0,0.0,0.0,0.0,0.0,0.0,0.0,0.0,0.0,0.0,0.0,0.0,0.0,0.0,0.0,0.0,0.0,0.0,0.0,0.0,0.0,0.0,0.0,0.0,0.0,0.0,0.0,0.0,0.0,0.0,0.0,0.0,0.0,0.0,0.0,0.0,0.0,0.0,0.0,0.0,0.0,0.0,0.0,0.0,0.0,0.0,0.0,0.0,0.0,-1.6512,-1.6291,-1.6022,-1.6459,-1.6758,-1.6758,-1.6208,-1.6593,-1.8278,-1.8563,0.0,0.0,0.0,0.0,0.0,0.0,0.0,0.0,0.0,0.0,0.0,0.0,0.0,0.0,0.0,0.0,0.0,0.0,0.0,0.0,0.0,0.0,0.0,0.0,0.0,0.0,0.0,0.0,0.0,0.0,0.0,0.0,0.0,0.0,0.0,0.0,0.0,0.0,0.0,0.0,0.0,0.0,0.0,0.0,0.0,0.0,0.0,0.0,0.0,0.0,0.0,0.0,0.0,0.0,0.0,0.0,0.0,0.0,0.0,0.0,0.0,0.0,0.0,0.0,0.0,0.0,0.0,0.0,0.0,0.0,0.0,0.0,0.0,0.0,0.0,0.0,0.0,0.0,0.0,0.0,0.0,0.0,0.0,0.0,0.0,0.0,0.0,0.0,0.0,0.0,0.0,0.0,0.0,0.0,0.0,0.0,0.0,0.0,0.0,0.0,0.0,0.0,-1.6568,-1.5978,-1.6575,-1.7827,-1.8602,-1.8602,-1.7985,-1.8247,-1.9656,-1.9569,0.0,0.0,0.0,0.0,0.0,0.0,0.0,0.0,0.0,0.0,0.0,0.0,0.0,0.0,0.0,0.0,0.0,0.0,0.0,0.0,0.0,0.0,0.0,0.0,0.0,0.0,0.0,0.0,0.0,0.0,0.0,0.0,0.0,0.0,0.0,0.0,0.0,0.0,0.0,0.0,0.0,0.0,0.0,0.0,0.0,0.0,0.0,0.0,0.0,0.0,0.0,0.0,0.0,0.0,0.0,0.0,0.0,0.0,0.0,0.0,0.0,0.0,0.0,0.0,0.0,0.0,0.0,0.0,0.0,0.0,0.0,0.0,0.0,0.0,0.0,0.0,0.0,0.0,0.0,0.0,0.0,0.0,0.0,0.0,0.0,0.0,0.0,0.0,0.0,0.0,0.0,0.0,0.0,0.0,0.0,0.0,0.0,0.0,0.0,0.0,0.0,0.0,-1.7043,-1.6093,0.0,-1.6264,-1.6378,-1.6833,-1.6652,-1.7098,-1.8518,0.0,0.0,0.0,0.0,0.0,0.0,0.0,0.0,0.0,0.0,0.0,0.0,0.0,0.0,0.0,0.0,0.0,0.0,0.0,0.0,0.0,0.0,0.0,0.0,0.0,0.0,0.0,0.0,0.0,0.0,0.0,0.0,0.0,0.0,0.0,0.0,0.0,0.0,0.0,0.0,0.0,0.0,0.0,0.0,0.0,0.0,0.0,0.0,0.0,0.0,0.0,0.0,0.0,0.0,0.0,0.0,0.0,0.0,0.0,0.0,0.0,0.0,0.0,0.0,0.0,0.0,0.0,0.0,0.0,0.0,0.0,0.0,0.0,0.0,0.0,0.0,0.0,0.0,0.0,0.0,0.0,0.0,0.0,0.0,0.0,0.0,0.0,0.0,0.0,0.0,0.0,0.0,0.0,0.0,0.0,0.0,0.0,0.0,0.0,0.0,0.0,0.0,-1.8961,-1.7411,-1.6354,0.0,-1.5905,-1.5817,-1.6336,-1.6446,-1.71,-1.8588,0.0,0.0,0.0,0.0,0.0,0.0,0.0,0.0,0.0,0.0,0.0,0.0,0.0,0.0,0.0,0.0,0.0,0.0,0.0,0.0,0.0,0.0,0.0,0.0,0.0,0.0,0.0,0.0,0.0,0.0,0.0,0.0,0.0,0.0,0.0,0.0,0.0,0.0,0.0,0.0,0.0,0.0,0.0,0.0,0.0,0.0,0.0,0.0,0.0,0.0,0.0,0.0,0.0,0.0,0.0,0.0,0.0,0.0,0.0,0.0,0.0,0.0,0.0,0.0,0.0,0.0,0.0,0.0,0.0,0.0,0.0,0.0,0.0,0.0,0.0,0.0,0.0,0.0,0.0,0.0,0.0,0.0,0.0,0.0,0.0,0.0,0.0,0.0,0.0,0.0,0.0,0.0,0.0,0.0,0.0,0.0,0.0,0.0,0.0,0.0,0.0,0.0,-1.8894,-1.7613,-1.6682,-1.6699,-1.7337,-1.7794,-1.7794,-1.804,-1.8849,0.0,0.0,0.0,0.0,0.0,0.0,0.0,0.0,0.0,0.0,0.0,0.0,0.0,0.0,0.0,0.0,0.0,0.0,0.0,0.0,0.0,0.0,0.0,0.0,0.0,0.0,0.0,0.0,0.0,0.0,0.0,0.0,0.0,0.0,0.0,0.0,0.0,0.0,0.0,0.0,0.0,0.0,0.0,0.0,0.0,0.0,0.0,0.0,0.0,0.0,0.0,0.0,0.0,0.0,0.0,0.0,0.0,0.0,0.0,0.0,0.0,0.0,0.0,0.0,0.0,0.0,0.0,0.0,0.0,0.0,0.0,0.0,0.0,0.0,0.0,0.0,0.0,0.0,0.0,0.0,0.0,0.0,0.0,0.0,0.0,0.0,0.0,0.0,0.0,0.0,0.0,0.0,0.0,0.0,0.0,0.0,0.0,0.0,0.0,0.0,0.0,0.0,0.0,0.0,-1.7325,-1.6323,-1.6669,-1.6768,-1.6935,-1.728,-1.8076,-1.897,-1.9938,0.0,0.0,0.0,0.0,0.0,0.0,0.0,0.0,0.0,0.0,0.0,0.0,0.0,0.0,0.0,0.0,0.0,0.0,0.0,0.0,0.0,0.0,0.0,0.0,0.0,0.0,0.0,0.0,0.0,0.0,0.0,0.0,0.0,0.0,0.0,0.0,0.0,0.0,0.0,0.0,0.0,0.0,0.0,0.0,0.0,0.0,0.0,0.0,0.0,0.0,0.0,0.0,0.0,0.0,0.0,0.0,0.0,0.0,0.0,0.0,0.0,0.0,0.0,0.0,0.0,0.0,0.0,0.0,0.0,0.0,0.0,0.0,0.0,0.0,0.0,0.0,0.0,0.0,0.0,0.0,0.0,0.0,0.0,0.0,0.0,0.0,0.0,0.0,0.0,0.0,0.0,0.0,0.0,0.0,0.0,0.0,0.0,0.0,0.0,0.0,0.0,0.0,-1.9773,-1.8388,-1.7584,-1.8155,-1.8317,-1.8467,-1.8748,-1.9542,-2.0333,-2.1098,0.0,0.0,0.0,0.0,0.0,0.0,0.0,0.0,0.0,0.0,0.0,0.0,0.0,0.0,0.0,0.0,0.0,0.0,0.0,0.0,0.0,0.0,0.0,0.0,0.0,0.0,0.0,0.0,0.0,0.0,0.0,0.0,0.0,0.0,0.0,0.0,0.0,0.0,0.0,0.0,0.0,0.0,0.0,0.0,0.0,0.0,0.0,0.0,0.0,0.0,0.0,0.0,0.0,0.0,0.0,0.0,0.0,0.0,0.0,0.0,0.0,0.0,0.0,0.0,0.0,0.0,0.0,0.0,0.0,0.0,0.0,0.0,0.0,0.0,0.0,0.0,0.0,0.0,0.0,0.0,0.0,0.0,0.0,0.0,0.0,0.0,0.0,0.0,0.0,0.0,0.0,0.0,0.0,0.0,0.0,0.0,0.0,0.0,0.0,0.0,0.0,0.0,-2.123,-2.0344,-1.9878,-2.0511,-2.1084,-2.1389,-2.1389,-2.185,-2.2468,-2.3203,0.0,0.0,0.0,0.0,0.0,0.0,0.0,0.0,0.0,0.0,0.0,0.0,0.0,0.0,0.0,0.0,0.0,0.0,0.0,0.0,0.0,0.0,0.0,0.0,0.0,0.0,0.0,0.0,0.0,0.0,0.0,0.0,0.0,0.0,0.0,0.0,0.0,0.0,0.0,0.0,0.0,0.0,0.0,0.0,0.0,0.0,0.0,0.0,0.0,0.0,0.0,0.0,0.0,0.0,0.0,0.0,0.0,0.0,0.0,0.0,-1.2666,0.0,0.0,0.0,0.0,0.0,0.0,0.0,0.0,0.0,0.0,0.0,0.0,0.0,0.0,0.0,0.0,0.0,0.0,0.0,0.0,0.0,0.0,0.0,0.0,0.0,0.0,0.0,0.0,0.0,0.0,0.0,0.0,0.0,0.0,0.0,0.0,0.0,0.0,0.0,0.0,0.0,-2.2281,-2.1697,-2.1189,-2.1146,-2.1758,-2.2107,-2.1937,-2.2741,-2.3354,-2.3574,0.0,0.0,0.0,0.0,0.0,0.0,0.0,0.0,0.0,0.0,0.0,0.0,0.0,0.0,0.0,0.0,0.0,0.0,0.0,0.0,0.0,0.0,0.0,0.0,0.0,0.0,0.0,0.0,0.0,0.0,0.0,0.0,0.0,0.0,0.0,0.0,0.0,0.0,0.0,0.0,0.0,0.0,0.0,0.0,0.0,0.0,0.0,0.0,0.0,0.0,0.0,0.0,0.0,0.0,0.0,0.0,0.0,0.0,0.0,0.0,0.0,-1.2559,0.0,0.0,0.0,0.0,0.0,0.0,0.0,0.0,0.0,0.0,0.0,0.0,0.0,0.0,0.0,0.0,0.0,0.0,0.0,0.0,0.0,0.0,0.0,0.0,0.0,0.0,0.0,0.0,0.0,0.0,0.0,0.0,0.0,0.0,0.0,0.0,0.0,0.0,0.0,0.0,-2.3536,-2.2837,-2.2408,-2.274,-2.3325,-2.3663,-2.36,-2.4148,-2.4523,-2.4553,-2.505,0.0,0.0,0.0,0.0,0.0,0.0,0.0,0.0,0.0,0.0,0.0,0.0,0.0,0.0,0.0,0.0,0.0,0.0,0.0,0.0,0.0,0.0,0.0,0.0,0.0,0.0,0.0,0.0,0.0,0.0,0.0,0.0,0.0,0.0,0.0,0.0,0.0,0.0,0.0,0.0,0.0,0.0,0.0,0.0,0.0,0.0,0.0,0.0,0.0,0.0,0.0,0.0,0.0,0.0,-0.9576,-1.0038,-1.0787,-1.1836,-1.3033,-1.2362,-1.2494,-1.3135,0.0,0.0,0.0,0.0,0.0,0.0,0.0,0.0,0.0,0.0,0.0,0.0,0.0,0.0,0.0,0.0,0.0,0.0,0.0,0.0,0.0,0.0,0.0,0.0,0.0,-1.9419,-1.9177,0.0,0.0,0.0,0.0,0.0,0.0,0.0,0.0,0.0,0.0,0.0,0.0,-2.4747,-2.3933,-2.3597,-2.445,-2.4926,-2.521,-2.5264,-2.5408,-2.5517,-2.5522,-2.5572,-2.5668,0.0,0.0,0.0,0.0,0.0,0.0,0.0,0.0,0.0,0.0,0.0,0.0,0.0,0.0,0.0,0.0,0.0,0.0,0.0,0.0,0.0,0.0,0.0,0.0,0.0,0.0,0.0,0.0,0.0,0.0,0.0,0.0,-0.8904,-0.9234,0.0,0.0,0.0,0.0,0.0,0.0,0.0,0.0,0.0,0.0,0.0,0.0,0.0,0.0,-0.6898,-0.9023,-0.9964,-0.9604,-1.0405,-1.091,-1.1158,-1.1283,-1.2109,-1.3337,-1.3265,0.0,-1.3945,-1.3667,0.0,0.0,0.0,0.0,0.0,0.0,0.0,0.0,0.0,0.0,0.0,0.0,0.0,0.0,0.0,0.0,0.0,0.0,0.0,0.0,0.0,0.0,-1.9888,-2.0139,-2.0162,-2.023,0.0,-2.0147,-2.0066,-2.1556,0.0,0.0,0.0,0.0,0.0,0.0,0.0,0.0,-2.5348,-2.5047,-2.4879,-2.5062,-2.5354,-2.5543,-2.5543,-2.5574,-2.5602,-2.5677,-2.5641,-2.5982,-2.6788,-2.6874,0.0,0.0,0.0,0.0,0.0,0.0,0.0,0.0,0.0,0.0,0.0,0.0,0.0,0.0,0.0,0.0,0.0,0.0,0.0,0.0,0.0,0.0,0.0,0.0,0.0,0.0,0.0,0.0,0.0,-0.9881,-0.924,-0.8676,-0.9155,-0.9354,0.0,0.0,0.0,0.0,0.0,0.0,0.0,0.0,0.0,-0.9185,-0.8373,-0.8429,-0.9416,-1.0036,-1.0597,-1.1224,-1.1748,-1.2044,-1.2237,-1.2811,-1.3719,-1.4734,-1.5154,-1.5707,-1.6201,-1.4805,-1.4938,-1.6029,0.0,0.0,0.0,0.0,0.0,-1.8706,-1.8455,0.0,0.0,0.0,0.0,0.0,0.0,0.0,0.0,0.0,0.0,0.0,0.0,0.0,0.0,-2.1855,-2.2077,-2.2459,-2.3154,-2.2615,-2.1983,0.0,-2.312,-2.4279,-2.5117,0.0,0.0,0.0,0.0,0.0,-2.5998,-2.5904,-2.5784,-2.5447,-2.554,-2.5614,-2.5654,-2.5652,-2.5664,-2.5703,-2.5673,-2.5843,-2.625,-2.6719,-2.7106,0.0,0.0,0.0,0.0,0.0,0.0,0.0,0.0,0.0,0.0,0.0,0.0,0.0,0.0,0.0,0.0,0.0,0.0,0.0,0.0,0.0,0.0,0.0,0.0,0.0,0.0,0.0,0.0,-1.0732,-0.9835,-0.8204,-0.9198,-0.9618,0.0,0.0,0.0,0.0,0.0,0.0,-1.1436,-1.039,-1.02,-1.1106,-0.9579,-0.951,-1.1106,-1.1075,-1.1696,-1.2759,-1.2986,-1.3205,-1.3279,-1.4052,-1.5019,-1.6038,-1.6616,-1.7447,-1.8174,-1.6123,-1.6029,-1.7113,-1.6398,-1.722,-1.8803,-1.8821,-1.9422,-2.0188,-1.9899,-1.9899,-1.9962,-1.9572,0.0,-2.1035,-2.1638,0.0,0.0,0.0,0.0,-2.2873,-2.2692,0.0,-2.3389,-2.3314,-2.3638,-2.4166,-2.4942,-2.4936,-2.439,0.0,-2.4048,-2.5267,-2.5772,0.0,0.0,0.0,0.0,-2.6817,-2.6192,-2.6194,-2.6197,-2.5987,-2.5762,-2.5732,-2.598,-2.5796,-2.567,-2.5664,-2.5664,-2.5684,-2.5703,-2.6328,-2.6724,-2.6811,0.0,0.0,0.0,0.0,0.0,0.0,0.0,0.0,0.0,0.0,0.0,0.0,0.0,0.0,0.0,0.0,0.0,0.0,0.0,0.0,0.0,0.0,0.0,0.0,0.0,0.0,0.0,0.0,0.0,-0.8977,-1.0065,0.0,0.0,0.0,0.0,-1.1336,-1.165,-1.2071,-1.2708,-1.2609,-1.1914,-1.0269,-1.221,-1.2292,-1.0284,-1.2714,-1.3981,-1.3995,-1.4015,-1.4162,-1.4429,-1.4429,-1.5264,-1.6661,-1.6926,-1.7934,-1.9092,-1.7353,-1.7533,-1.8929,-1.8508,-1.9533,-2.1237,-2.074,-2.0903,-2.1255,-2.0175,-2.0162,-2.0668,-2.0643,-2.1865,-2.3502,-2.4141,-2.4429,0.0,0.0,-2.358,-2.3378,-2.2594,-2.2902,-2.3481,-2.3782,-2.4125,-2.4518,-2.4999,-2.6361,-2.6969,0.0,-2.4387,-2.4412,-2.5523,0.0,-2.6072,-2.626,-2.6327,-2.6154,-2.5615,-2.56,-2.5987,-2.6831,-2.619,-2.6015,-2.6773,-2.6082,-2.5622,-2.5605,-2.5605,-2.5625,-2.5703,-2.5742,-2.6116,-2.6882,-2.614,0.0,0.0,0.0,0.0,0.0,0.0,0.0,0.0,0.0,0.0,0.0,0.0,0.0,0.0,0.0,0.0,0.0,0.0,0.0,0.0,0.0,0.0,0.0,0.0,0.0,0.0,0.0,0.0,-1.0732,-1.1822,0.0,0.0,-1.1761,-1.2465,-1.2565,-1.2846,-1.31,-1.3313,-1.2997,-1.2856,-1.2973,-1.2528,-1.261,-1.3242,-1.3428,-1.3932,-1.4649,-1.4649,-1.4703,-1.4892,-1.5571,-1.6548,-1.7837,-1.8639,-1.9725,-2.0869,-1.9687,-1.9453,-1.9749,-1.9465,-2.0157,-2.1336,-2.1624,-2.2071,-2.2548,-2.251,-2.2636,-2.2686,-2.1958,-2.2311,-2.3114,-2.3719,-2.4259,-2.4627,-2.4837,-2.4268,-2.3709,-2.4194,-2.4413,-2.4718,-2.5395,-2.611,-2.681,-2.7363,-2.7724,-2.7807,-2.7308,-2.6578,-2.608,-2.608,-2.5674,-2.5799,-2.7106,-2.6918,-2.6757,-2.7137,-2.7262,-2.7474,-2.7793,-2.7559,-2.7465,-2.7719,-2.6928,-2.6427,-2.6437,-2.5915,-2.5625,-2.5703,-2.5707,-2.5788,-2.5997,-2.5685,-2.6169,0.0,0.0,0.0,0.0,0.0,0.0,0.0,0.0,0.0,0.0,0.0,0.0,0.0,0.0,0.0,0.0,0.0,0.0,0.0,0.0,0.0,0.0,0.0,0.0,0.0,0.0,-1.3816,-1.1852,-1.2936,-1.33,-1.2006,-1.2388,-1.2737,-1.2826,-1.3093,-1.3334,-1.3519,-1.3605,-1.3842,-1.4308,-1.3463,-1.3424,-1.4455,-1.4178,-1.463,-1.5715,-1.5715,-1.5984,-1.6424,-1.7113,-1.8001,-1.9008,-1.9689,-2.0736,-2.1826,-2.1094,-2.109,-2.1436,-2.0776,-2.1302,-2.2457,-2.2969,-2.3502,-2.4017,-2.4406,-2.4305,-2.3879,-2.3125,-2.3218,-2.3709,-2.4086,-2.4697,-2.5422,-2.6075,-2.5591,-2.5144,-2.6089,-2.6254,-2.6412,-2.7317,-2.7944,-2.8548,-2.943,-2.9347,-2.9045,-2.9082,-2.7907,-2.6797,-2.6378,-2.5906,-2.609,-2.7668,-2.7526,-2.7554,-2.8393,-2.8383,-2.8418,-2.8711,-2.8476,-2.8371,-2.8598,-2.8105,-2.7526,-2.6911,-2.6629,-2.6233,-2.5712,-2.6249,-2.6481,-2.6382,-2.6599,-2.7236,-2.8294,0.0,0.0,0.0,0.0,0.0,0.0,0.0,0.0,0.0,0.0,0.0,0.0,0.0,0.0,0.0,0.0,0.0,0.0,0.0,0.0,0.0,0.0,0.0,-1.4684,-1.5616,-1.5416,-1.2296,-1.3188,-1.3484,-1.2017,-1.1787,-1.178,-1.2106,-1.2447,-1.2884,-1.338,-1.4644,-1.4958,-1.3962,-1.5146,-1.5106,-1.3596,-1.51,-1.6313,-1.7259,-1.7259,-1.7897,-1.9065,-1.9065,-1.9478,-2.0241,-2.0072,-2.0773,-2.1894,-2.1455,-2.2412,-2.4089,-2.2615,-2.3214,-2.487,-2.487,-2.5197,-2.5624,-2.5624,-2.4933,-2.4054,-2.4104,-2.4702,-2.5453,-2.5508,-2.604,-2.6778,-2.7396,-2.7534,-2.7604,-2.8078,-2.819,-2.8389,-2.9369,-2.94,-2.9561,-3.1011,-3.1115,-3.0787,-3.0326,-2.8222,-2.646,-2.6365,-2.6562,-2.7014,-2.7813,-2.8025,0.0,-2.9235,-2.8754,-2.8691,-2.9629,-2.8945,-2.8717,-2.9458,-2.9525,-2.8764,-2.6998,-2.7711,-2.7465,-2.5836,-2.7342,-2.8169,-2.8092,-2.8782,-2.9113,-2.9113,0.0,0.0,0.0,0.0,0.0,0.0,0.0,0.0,0.0,0.0,0.0,0.0,0.0,0.0,0.0,0.0,0.0,0.0,0.0,0.0,0.0,0.0,-1.8798,-1.6295,-1.6669,-1.6209,-1.3367,-1.3531,-1.3403,-1.2058,-1.1827,-1.189,-1.1953,-1.2958,-1.362,-1.3761,-1.5025,-1.5549,-1.5337,-1.5635,-1.6062,-1.6507,-1.6987,-1.7725,-1.8886,-1.8886,-1.9068,-1.9348,-1.9348,-2.0009,-2.0968,-2.0968,-2.1609,-2.2764,-2.2334,-2.335,-2.5127,-2.4011,-2.4601,-2.6013,-2.6013,-2.6101,-2.6226,-2.6226,-2.5749,-2.5277,-2.5909,-2.6363,-2.6812,-2.7371,-2.7813,-2.8192,-2.8781,-2.8232,-2.7713,-2.8698,-2.8777,-2.8914,-2.9834,-3.0363,-3.0944,-3.1773,-3.156,-3.1203,-3.1276,-2.9785,-2.8291,-2.7649,-2.7595,-2.7901,-2.867,-2.8338,0.0,-3.0043,-2.9611,-2.998,-3.2129,-3.152,-3.1301,-3.2084,-3.1004,-2.9813,0.0,-2.8345,-2.802,-2.7597,-2.8028,-2.8236,-2.8176,-2.8929,-2.9308,0.0,0.0,0.0,0.0,0.0,0.0,0.0,0.0,0.0,0.0,0.0,0.0,0.0,0.0,0.0,0.0,0.0,0.0,0.0,0.0,0.0,0.0,-2.0149,-1.9752,-1.8308,-1.8344,-1.7635,-1.5083,-1.4406,-1.3808,-1.3012,-1.1924,-1.1225,-1.1225,-1.2423,-1.3155,-1.3155,-1.4821,-1.5832,-1.5832,-1.5832,-1.6386,-1.7692,-1.7692,-1.8596,-2.0215,-2.0215,-2.0494,-2.1042,-2.1042,-2.14,0.0,-2.1854,-2.2582,-2.376,-2.3412,-2.4434,0.0,0.0,0.0,0.0,0.0,-2.6653,-2.6521,-2.6905,-2.6655,-2.6297,-2.717,-2.7556,-2.7766,-2.8282,-2.8693,-2.9207,-3.0086,-2.9564,-2.9127,-3.0857,-3.0738,-3.0456,-3.1657,-3.2391,-3.2889,-3.318,-3.3066,-3.286,-3.2808,0.0,0.0,-3.0173,-2.9224,-2.8794,-2.9525,-2.931,-2.9547,-3.0954,-3.0482,-3.058,-3.2119,-3.1777,-3.1638,-3.2064,-3.1534,0.0,0.0,0.0,-2.9314,-2.9277,-2.991,0.0,0.0,0.0,-3.1228,0.0,0.0,0.0,0.0,-3.1188,-3.1051,0.0,0.0,0.0,0.0,0.0,0.0,0.0,0.0,0.0,0.0,0.0,0.0,0.0,0.0,0.0,0.0,-2.0361,-2.0047,-2.028,-2.0127,-1.9066,-1.6827,-1.5208,-1.427,-1.414,-1.1672,-1.0236,-1.0439,-1.1605,-1.2304,-1.2504,0.0,0.0,0.0,0.0,-1.6585,-1.7976,-1.7946,-1.9196,-2.1544,-2.1498,-2.2031,-2.3135,-2.3135,-2.3135,-2.3115,-2.2744,-2.3448,-2.4756,-2.444,-2.5477,-2.7257,-2.5908,-2.6474,-2.8047,-2.7494,-2.7037,0.0,0.0,0.0,0.0,-2.814,-2.8547,-2.8612,-2.874,-2.923,-3.0084,-3.1272,-3.115,-3.1193,-3.3585,-3.3236,-3.2617,-3.4209,-3.4879,-3.5126,-3.5049,-3.5172,-3.5146,-3.4653,-3.3808,-3.3134,-3.3134,-3.1219,-2.9932,-3.0571,-3.066,-3.0975,-3.1917,-3.1343,-3.094,-3.1255,0.0,0.0,-3.1191,-3.1877,-3.1614,-3.0021,-3.0723,-3.1107,-3.0911,-3.2285,-3.3005,-3.2941,-3.3682,-3.3717,-3.2931,-3.2992,-3.307,-3.3149,-3.2297,-3.2007,0.0,0.0,0.0,0.0,0.0,0.0,0.0,0.0,0.0,0.0,0.0,0.0,0.0,0.0,0.0,-1.9478,-2.0317,-2.0732,-2.0074,-2.0219,-1.9223,-1.5871,-1.4227,-1.2789,-1.1583,-0.9928,-0.941,-1.0539,-1.184,-1.3041,-1.4263,-1.5744,0.0,-1.654,-1.654,-1.7688,-1.9989,-1.9698,-2.0769,-2.3284,0.0,0.0,-2.3135,-2.3135,-2.3135,-2.3135,-2.3057,-2.3634,-2.4777,-2.4693,-2.5975,-2.7925,-2.7627,-2.7717,-2.8047,-2.7494,-2.7659,-2.8072,-2.7828,-2.8101,-2.876,-2.9582,-2.9935,-3.0073,-3.0703,-3.1082,0.0,-3.2117,-3.2222,-3.2431,-3.3819,-3.4226,-3.4497,-3.5538,-3.6229,-3.6726,-3.6977,-3.6692,-3.6368,-3.6262,-3.5045,-3.4039,-3.3987,-3.3032,-3.2308,-3.241,-3.1891,-3.1826,-3.2825,-3.221,-3.2511,-3.4736,-3.4295,-3.4125,-3.4812,-3.4411,-3.366,-3.2632,-3.279,-3.2873,-3.2786,-3.3075,-3.3207,-3.3145,-3.3299,-3.3319,-3.3134,-3.3153,-3.35,-3.4125,-3.3949,-3.3845,0.0,0.0,0.0,0.0,0.0,0.0,0.0,0.0,0.0,0.0,0.0,-1.8178,0.0,0.0,-1.9762,-2.0386,-2.0561,-2.0565,-2.0431,-2.0003,-1.8658,-1.6012,-1.4956,-1.3858,-1.2252,-1.1407,-1.1248,-1.1981,-1.3138,-1.411,-1.4841,-1.6062,-1.6707,-1.6707,-1.7385,-1.8648,-2.057,-2.1062,-2.2104,-2.3789,-2.3574,-2.335,-2.3135,-2.3135,-2.3387,-2.3963,-2.3963,-2.4872,-2.6521,-2.7035,-2.7947,-2.8966,-2.8923,-2.8775,-2.8448,-2.7896,-2.8216,-2.8953,-2.8477,-2.9325,-3.0651,-3.0862,-3.1116,-3.1382,-3.1498,-3.1779,-3.2235,-3.2883,-3.3016,-3.3406,-3.5213,-3.5687,-3.5879,-3.6777,-3.7831,-3.8421,-3.7736,-3.7811,-3.7873,-3.745,-3.6699,-3.6142,-3.6103,-3.5762,-3.4916,-3.316,-3.2634,-3.2589,-3.3138,-3.2841,-3.3122,-3.4491,-3.4224,-3.4125,-3.4562,-3.4234,-3.379,-3.3329,-3.3734,-3.3795,-3.3317,-3.4044,-3.4236,-3.3755,-3.4178,-3.462,-3.5037,-3.5089,-3.5532,-3.6358,-3.6805,-3.6484,0.0,0.0,0.0,0.0,0.0,0.0,0.0,0.0,-1.677,-1.7219,-1.7692,-1.8249,-1.8902,-1.9364,-1.9964,-2.1097,-2.049,-2.0048,-2.0667,-1.9749,-1.8421,-1.6564,-1.6098,-1.5308,-1.3608,-1.3401,-1.3393,-1.3759,-1.4618,-1.524,-1.5608,-1.6465,-1.6941,-1.6881,-1.8211,-1.9589,-2.0776,-2.2074,-2.3131,-2.4033,-2.3867,-2.3603,-2.3262,-2.3339,-2.3963,-2.4787,-2.5284,-2.6438,-2.8176,-2.9365,-2.9792,-2.9792,-2.9792,-2.9643,-2.9301,-2.8743,-2.9152,-2.9883,-2.9669,-3.0835,-3.2378,-3.2005,-3.2273,-3.2572,-3.2073,-3.24,-3.3105,-3.363,-3.3908,-3.4566,-3.6632,-3.7023,-3.7143,-3.8234,-3.9422,-4.0024,-3.8915,-3.9377,-3.9835,-3.9123,-3.8854,-3.8738,-3.8738,-3.8604,-3.743,-3.4353,-3.3731,-3.3728,-3.411,-3.379,-3.3654,-3.3984,-3.3874,-3.3834,-3.3997,-3.4068,-3.4142,-3.4269,-3.4935,-3.4995,-3.4254,-3.5457,-3.58,-3.5071,-3.5755,-3.6455,-3.7138,-3.7188,-3.7633,-3.8515,-3.922,-3.8756,-1.2712,-1.3614,-1.4553,-1.4296,-1.4746,-1.5426,0.0,0.0,-1.7032,-1.685,-1.8694,-1.9823,-1.7813,-1.8926,-1.9967,-1.9057,-1.9428,-1.9854,-1.9922,-1.9811,-1.9082,-1.7464,-1.67,-1.5495,-1.3734,-1.3401,-1.3888,-1.5528,-1.5415,-1.6022,-1.76,-1.7809,-1.7769,-1.7495,-1.9081,-2.0431,-2.1535,-2.2504,-2.3592,-2.4922,-2.416,-2.3769,-2.3701,-2.4319,-2.4713,-2.4872,-2.6849,-2.7844,-2.8176,-2.9365,-2.9792,-2.9792,-2.9792,-3.0241,-3.0874,-3.0322,-3.0659,-3.1433,-3.1701,-3.2499,-3.3332,-3.332,-3.332,-3.3366,-3.333,-3.3772,-3.4382,-3.4464,-3.5256,-3.6253,-3.7002,-3.7697,-3.8582,-4.0184,-4.0865,-4.1418,-4.2288,-4.2569,-4.2643,-4.2547,-4.1912,-4.1373,-4.1373,-4.0719,-3.9585,-3.77,-3.6238,-3.5852,-3.7354,-3.5682,-3.4937,-3.6434,-3.5878,-3.5753,-3.6526,-3.6593,-3.6922,-3.7688,-3.7831,-3.7793,-3.7581,-3.7846,-3.7917,-3.7766,-3.7859,-3.7952,-3.8045,-3.7947,-3.8337,-3.9196,-3.9292,-3.9318,-1.3312,-1.3933,0.0,0.0,-1.5103,-1.5902,-1.6202,-1.6724,-1.7288,-1.7418,-1.838,-1.8998,-1.8327,-1.8913,-1.9394,0.0,-1.9419,-1.9606,-1.9773,-1.9506,-1.8628,-1.6813,-1.7049,-1.6655,-1.5138,-1.5586,-1.6362,-1.7028,-1.7188,-1.7495,-1.8297,-1.8303,-1.817,-1.7862,-2.0053,-2.141,-2.1651,-2.3628,-2.4727,-2.5059,-2.4443,-2.4376,-2.471,-2.476,-2.5535,-2.6767,-2.8438,-2.9106,-2.9184,-3.0177,-3.062,-3.0696,-3.1193,-3.1696,-3.1893,-3.0777,-3.1537,-3.2925,-3.2356,-3.3255,-3.4532,-3.3754,-3.403,-3.4666,-3.4268,-3.4975,-3.585,-3.586,-3.6772,-3.7868,-3.84,-3.9293,-4.0337,-4.1349,-4.1984,-4.2502,-4.2992,-4.3104,-4.3104,-4.3104,-4.2816,-4.2566,-4.2566,-4.2294,-4.1832,-4.112,-3.9182,-3.7903,-3.8184,-3.7344,-3.6988,-3.768,-3.7436,-3.7328,-3.7614,-3.7704,-3.7809,-3.7939,-3.8612,-3.8904,-3.869,-3.933,-3.9685,-3.9649,-3.9648,-3.9647,-3.965,-3.9634,-3.981,-4.0189,-4.0694,-4.0964,-1.3526,0.0,0.0,-1.479,-1.5705,-1.656,-1.6727,-1.7088,-1.7535,-1.8043,-1.815,-1.8283,-1.8724,-1.8804,0.0,-1.9472,-1.9452,-1.9466,-1.976,-1.9292,-1.8379,-1.7016,-1.7438,-1.7421,-1.6521,-1.7328,-1.7989,-1.8156,-1.8297,-1.8437,-1.8604,-1.8611,-1.8437,-1.8056,-2.0833,-2.2133,-2.1651,-2.4514,-2.5693,-2.5244,-2.4805,-2.4896,-2.5591,-2.5647,-2.6778,-2.8597,-2.9443,-2.9792,-2.9856,-3.0833,-3.118,-3.1315,-3.2249,-3.2749,-3.2835,-3.1785,-3.2528,-3.3897,-3.3333,-3.4139,-3.534,-3.4367,-3.4866,-3.5807,-3.5388,-3.6091,-3.7065,-3.7086,-3.7984,-3.9021,-3.9411,-4.0429,-4.1558,-4.2259,-4.2881,-4.3384,-4.3722,-4.3797,-4.3797,-4.3797,-4.3797,-4.3797,-4.3835,-4.3871,-4.3852,-4.3652,-4.2006,-4.0537,-3.9758,-3.9228,-3.8727,-3.8257,-3.8219,-3.8277,-3.8416,-3.8727,-3.8882,-3.8842,-3.9884,-4.0408,-4.02,-4.097,-4.1393,-4.1393,-4.1395,-4.139,-4.1382,-4.1415,-4.1428,-4.1447,-4.2069,-4.2458,0.0,0.0,-1.5077,-1.5645,-1.646,-1.7275,-1.7862,-1.7989,-1.8083,-1.841,-1.8477,-1.8484,-1.8504,-1.8504,-1.8604,-1.8905,-1.9185,-1.9466,-1.976,-1.9292,-1.8918,-1.8791,-1.7883,-1.7181,0.0,-1.7435,-1.7842,-1.843,-1.8217,-1.831,-1.8878,-1.8911,-1.8644,-1.8063,-2.1395,-2.274,-2.176,-2.4802,-2.6152,-2.5713,-2.5264,-2.5458,-2.6151,-2.7398,-2.8597,-2.9792,-2.9792,-2.9792,-2.9856,-3.0833,-3.118,-3.1315,-3.2249,-3.3171,-3.3945,-3.393,-3.393,-3.4163,-3.5088,-3.5459,-3.5489,-3.5459,-3.5961,-3.6566,-3.6642,-3.7161,-3.7793,-3.7833,-3.8659,-3.9492,-3.9492,-4.0557,-4.1866,-4.3001,-4.3544,-4.4112,-4.5263,-4.5509,-4.5509,-4.5509,-4.5509,-4.5566,-4.5699,-4.5719,-4.5479,-4.4755,-4.4472,-4.4039,-4.3158,-4.1521,-3.9815,-3.818,-3.8007,-3.8354,-3.9181,-3.9969,-4.0796,-4.1627,-4.2492,-4.2989,-4.2989,-4.3066,-4.3104,-4.3104,-4.3121,-4.3121,-4.3121,-4.3066,-4.3028,-4.3028,-4.3066,-4.3309,0.0,0.0,-1.6019,-1.68,-1.7522,-1.8143,-1.8537,-1.8624,-1.8591,-1.851,-1.8337,-1.8136,-1.7929,-1.7889,-1.8116,-1.8811,-1.8844,-1.9025,-1.9706,-1.9292,-1.8704,-1.8103,-1.7862,0.0,0.0,0.0,0.0,-1.7876,-1.835,-1.8718,-1.8911,-1.9112,-1.9384,-1.9621,-2.1626,-2.2833,-2.2985,-2.4956,-2.5889,-2.5732,-2.6827,-2.7176,-2.6834,-2.8879,-2.9791,-2.9792,-2.9792,-3.0139,-3.0833,-3.1756,-3.2536,-3.3227,-3.4677,-3.5424,-3.5758,-3.6307,-3.6183,-3.5725,-3.5524,-3.5504,-3.5554,-3.6054,-3.6753,-3.7526,-3.801,-3.8739,-3.9396,-3.9846,-4.0463,-4.1115,-4.1515,-4.2588,-4.3694,-4.4089,-4.503,-4.5956,-4.6376,-4.6874,-4.7105,-4.6567,-4.6509,-4.6374,-4.5892,-4.5839,-4.5772,-4.5464,-4.4408,-4.3521,-4.3176,-4.2598,-4.2008,-4.1431,-4.1373,-4.1508,-4.1797,-4.2066,-4.2266,-4.2336,-4.3325,-4.3822,-4.3656,-4.4381,-4.4797,-4.4797,-4.4797,-4.4509,-4.3932,-4.3694,-4.3273,-4.2718,-4.3069,-4.3312,-1.5257,-1.6059,-1.68,-1.7682,-1.8364,-1.8824,-1.8905,-1.8844,-1.8624,-1.8116,-1.7776,-1.7442,-1.7027,-1.6874,-1.7094,-1.7983,-1.7976,-1.8196,-1.9192,-1.8918,-1.8437,-1.7963,-1.7889,0.0,0.0,0.0,0.0,-1.7749,-1.8384,-1.903,-1.9675,-1.987,-2.0294,-2.1271,-2.2634,-2.3505,-2.3899,-2.5391,-2.63,-2.661,-2.8001,-2.8508,-2.8305,-2.9927,-3.0419,-3.0068,-3.0228,-3.062,-3.1315,-3.2593,-3.3449,-3.4148,-3.5627,-3.6399,-3.6661,-3.716,-3.7219,-3.698,-3.6492,-3.6133,-3.6006,-3.6798,-3.7557,-3.8246,-3.8745,-3.9489,-4.0204,-4.0784,-4.1375,-4.1937,-4.2519,-4.3535,-4.4401,-4.4553,-4.5449,-4.6283,-4.6414,-4.7086,-4.7451,-4.6663,-4.6778,-4.6759,-4.6026,-4.5894,-4.5879,-4.5822,-4.4816,-4.3932,-4.3566,-4.3528,-4.3412,-4.3124,-4.3104,-4.3104,-4.3104,-4.3355,-4.3438,-4.3216,-4.4189,-4.4687,-4.4499,-4.5207,-4.5586,-4.5586,-4.5586,-4.5262,-4.4595,-4.438,-4.3926,-4.3263,-4.358,-4.3691,-1.5678,-1.6567,-1.7448,-1.8317,-1.8945,-1.9265,-1.8971,-1.8651,-1.817,-1.7268,-1.6834,-1.644,0.0,0.0,-1.5671,-1.6659,-1.6734,-1.7174,-1.839,-1.8317,-1.8237,0.0,0.0,0.0,0.0,0.0,0.0,-1.807,0.0,-1.9271,-2.0959,-2.0996,-2.1501,-2.2757,-2.414,-2.4693,-2.438,-2.6158,-2.7372,-2.825,-2.8554,-2.9247,-3.0414,-3.054,-3.0645,-3.0662,-3.1018,-3.1254,-3.1389,-3.3241,-3.4027,-3.4177,-3.5228,-3.6052,-3.6723,-3.6723,-3.7191,-3.7911,-3.7879,-3.7322,-3.6783,-3.7573,-3.8334,-3.8974,-3.9028,-3.9573,-4.0306,-4.0849,-4.1472,-4.2086,-4.267,-4.3511,-4.4277,-4.4621,-4.501,-4.5356,-4.5627,-4.6374,-4.6759,-4.6009,-4.6451,-4.6758,-4.6188,-4.598,-4.5873,-4.5796,-4.568,-4.5297,-4.447,-4.4374,-4.4066,-4.3316,-4.322,-4.322,-4.322,-4.3932,-4.4374,-4.4374,-4.5143,-4.5586,-4.5586,-4.5586,-4.5586,-4.5586,-4.5586,-4.5419,-4.5096,-4.5074,-4.4896,-4.4553,-4.4553,-4.4337,-1.6894,-1.7789,-1.8577,-1.9032,-1.9092,-1.8958,-1.8671,-1.8029,-1.7241,-1.6353,-1.5758,-1.549,0.0,0.0,0.0,-1.7499,-1.7571,0.0,-1.9272,-1.9399,0.0,0.0,0.0,-1.8978,-1.8323,-1.8531,0.0,0.0,-1.8651,-1.9493,-2.1092,-2.1324,-2.2293,-2.4245,-2.4933,-2.5399,-2.5867,-2.6594,-2.7372,-2.8164,-2.9222,-2.992,-3.0414,-3.098,-3.0984,-3.0662,-3.1018,-3.1609,-3.2321,-3.3518,-3.4461,-3.5243,-3.6587,-3.7561,-3.8336,-3.8293,-3.8766,-3.9444,-3.8832,-3.8133,-3.7632,-3.8358,-3.9177,-3.9913,-4.0447,-4.1115,-4.1835,-4.2282,-4.3159,-4.405,-4.4515,-4.5734,-4.6702,-4.6139,-4.6827,-4.749,-4.691,-4.747,-4.7837,-4.7011,-4.6568,-4.6247,-4.5996,-4.5919,-4.5834,-4.568,-4.5605,-4.5509,-4.5297,-4.5259,-4.5182,-4.497,-4.4951,-4.4951,-4.4951,-4.5143,-4.5259,-4.5259,-4.547,-4.5586,-4.5586,-4.5586,-4.5586,-4.5586,-4.5342,-4.518,-4.5096,-4.4561,-4.4233,-4.4146,-4.3899,-4.3744,-1.7742,-1.8444,-1.8991,-1.9292,-1.9045,-1.8584,-1.8029,-1.7208,-1.6286,-1.5271,-1.4703,0.0,0.0,0.0,0.0,0.0,0.0,0.0,-1.9417,-1.9618,-1.9821,0.0,-2.0157,0.0,-2.0308,-1.974,-1.9292,0.0,-1.9045,-1.9576,-2.11,-2.1934,-2.3182,-2.502,-2.5706,-2.6663,-2.7824,-2.7475,-2.8339,-3.0485,-3.0466,-3.0894,-3.1942,-3.2112,-3.1838,-3.1354,0.0,-3.2058,-3.2994,-3.4,-3.5034,-3.6049,-3.7096,-3.8023,-3.8823,-3.9129,-3.9573,-4.0001,-3.9947,-3.9636,-3.9364,-3.9744,-3.9972,-4.0315,-4.1348,-4.2158,-4.2873,-4.3501,-4.4385,-4.5297,-4.5991,-4.6973,-4.7609,-4.677,-4.7272,-4.7694,-4.6809,-4.7622,-4.8361,-4.7952,-4.7265,-4.6599,-4.6069,-4.5949,-4.5853,-4.5719,-4.5624,-4.5586,-4.5586,-4.5586,-4.5586,-4.5586,-4.5586,-4.5586,-4.5586,-4.5586,-4.5586,-4.5586,-4.5586,-4.5586,-4.5586,-4.5586,-4.5531,-4.5381,-4.5201,-4.4943,-4.4612,-4.4204,-4.3924,-4.3772,-4.3597,-4.3497,-1.833,-1.8764,-1.9038,-1.9252,-1.8865,-1.8183,-1.7248,-1.6346,-1.5384,-1.4208,0.0,-1.3588,-1.3297,0.0,-1.5848,-1.6522,0.0,-1.8528,-1.9531,-1.9473,-2.0178,-2.2037,-2.0948,-2.0718,-2.2513,-2.0998,-2.0,-2.0221,-1.9526,-1.9735,-2.1108,-2.2506,-2.4013,-2.5745,-2.6664,-2.7901,-2.9536,-2.8548,-2.98,-3.317,-3.1865,-3.2206,-3.3884,-3.3332,-3.2754,-3.2235,0.0,0.0,-3.3615,-3.4796,-3.5844,-3.6671,-3.73,-3.8105,-3.9009,-3.9659,-4.0108,-4.0426,-4.0906,-4.1098,-4.1218,-4.1186,-4.0919,-4.0774,-4.2148,-4.3031,-4.379,-4.4749,-4.5532,-4.6299,-4.729,-4.7889,-4.8048,-4.7318,-4.7294,-4.7194,-4.6317,-4.7213,-4.8244,-4.8365,-4.7856,-4.7148,-4.625,-4.5987,-4.5883,-4.5796,-4.5699,-4.5586,-4.5586,-4.5586,-4.5586,-4.5586,-4.5586,-4.5586,-4.5586,-4.5586,-4.5586,-4.5586,-4.5586,-4.5586,-4.555,-4.5531,-4.5381,-4.5052,-4.4988,-4.4638,-4.4016,-4.3955,-4.3772,-4.3497,-4.3497,-4.3497,-1.8738,-1.9065,-1.9245,-1.9052,-1.8557,-1.7822,-1.6687,-1.5745,0.0,0.0,0.0,-1.4011,-1.3689,-1.5226,0.0,-1.8191,0.0,0.0,0.0,0.0,-2.022,0.0,0.0,0.0,0.0,0.0,0.0,0.0,0.0,0.0,-2.1799,-2.299,-2.4954,-2.7728,-2.7659,-2.7859,-2.8589,-2.939,-3.0515,-3.1897,-3.2692,-3.3332,-3.3884,-3.3332,-3.2754,-3.2248,0.0,0.0,-3.44,-3.6195,-3.7088,-3.7315,-3.7958,-3.918,-4.0515,-3.994,-4.1039,-4.2538,-4.0862,-4.0663,-4.1205,-4.118,-4.1926,-4.2959,-4.3786,-4.456,-4.5306,-4.6186,-4.7278,-4.8271,-4.8672,-4.9694,-5.0413,-4.9606,-4.9002,-4.8373,-4.7494,-4.6987,-4.6692,-4.6716,-4.6616,-4.6426,-4.6152,-4.5981,-4.5891,-4.5808,-4.5699,-4.5586,-4.5586,-4.5586,-4.5586,-4.5586,-4.5586,-4.5586,-4.5586,-4.5586,-4.5586,-4.5586,-4.5586,-4.5476,-4.5201,-4.5201,-4.503,-4.4682,-4.4373,-4.4117,-4.4016,-4.3726,-4.3582,-4.3497,-4.3497,-4.3497,-1.9172,-1.9372,-1.9332,-1.9192,-1.8357,-1.7365,-1.6731,0.0,0.0,0.0,0.0,-1.4655,-1.4482,0.0,0.0,0.0,0.0,0.0,0.0,0.0,0.0,0.0,0.0,0.0,0.0,0.0,0.0,0.0,0.0,0.0,-2.2245,-2.4195,-2.6361,-2.8505,-2.8213,-2.8795,-3.0421,-3.0317,-3.1614,-3.4066,-3.3981,-3.4132,-3.4324,-3.406,-3.3944,-3.3998,-3.4047,0.0,-3.6179,-3.6939,-3.7686,-3.8552,-3.9297,-4.0291,-4.1362,-4.1502,-4.2255,-4.3149,-4.2562,-4.2774,-4.3339,-4.3346,-4.3306,-4.3588,-4.5018,-4.6076,-4.6949,-4.7555,-4.8598,-4.9644,-5.0029,-5.068,-5.1024,-5.0284,-4.9489,-4.8789,-4.8379,-4.7949,-4.7656,-4.7656,-4.7231,-4.6843,-4.6785,-4.6263,-4.5844,-4.5811,-4.5699,-4.5586,-4.5586,-4.5586,-4.5586,-4.5586,-4.5586,-4.5586,-4.5586,-4.5586,-4.5532,-4.5342,-4.5342,-4.5201,-4.4849,-4.4849,-4.4682,-4.4308,-4.4087,-4.3893,-4.3758,-4.3563,-4.3497,-4.3497,-4.3497,-4.3497,-1.9339,-1.9492,-1.9339,-1.9212,-1.8156,-1.7116,-1.6742,-1.586,0.0,0.0,-1.5376,-1.5446,-1.5234,0.0,0.0,0.0,0.0,0.0,0.0,0.0,0.0,0.0,0.0,0.0,0.0,0.0,0.0,0.0,0.0,0.0,0.0,-2.5383,-2.7558,-2.9332,-2.8916,-2.9922,-3.223,-3.1531,-3.2833,-3.5966,-3.5174,-3.4961,-3.5238,-3.5238,-3.559,-3.6146,-3.5359,0.0,0.0,-3.8341,-3.9116,-4.0472,-4.118,-4.1834,-4.2563,-4.3377,-4.3821,-4.3993,-4.4562,-4.517,-4.5783,-4.5753,-4.4953,-4.4369,-4.6176,-4.7397,-4.8237,-4.881,-4.9625,-5.046,-5.0981,-5.1192,-5.1076,-5.0379,-4.9687,-4.9121,-4.8945,-4.8906,-4.8885,-4.8857,-4.8227,-4.7661,-4.764,-4.6892,-4.6336,-4.6336,-4.6067,-4.5874,-4.5874,-4.572,-4.5586,-4.5586,-4.5586,-4.5568,-4.5495,-4.5495,-4.5342,-4.5011,-4.4988,-4.4849,-4.4501,-4.4474,-4.4308,-4.3912,-4.3912,-4.3772,-4.3497,-4.3497,-4.3497,-4.3497,-4.3497,-4.3497,-1.8905,-1.9185,-1.9239,-1.8704,-1.7856,-1.7061,-1.6559,0.0,0.0,-1.517,-1.586,-1.621,-1.5376,-1.7008,0.0,0.0,0.0,-2.0333,0.0,0.0,0.0,0.0,0.0,0.0,0.0,0.0,0.0,0.0,0.0,0.0,0.0,-2.5953,-2.7971,-3.0701,-3.036,-3.0824,-3.2331,-3.3464,-3.4178,-3.4581,-3.5667,-3.6472,-3.7082,-3.7082,-3.7364,-3.8048,0.0,0.0,0.0,-4.1908,-4.2879,-4.3738,-4.373,-4.4241,-4.4983,-4.502,-4.5725,-4.6575,-4.5978,-4.6477,-4.7369,-4.7249,-4.6945,-4.6787,-4.7627,-4.8163,-4.8772,-4.9835,-5.0306,-5.057,-5.1065,-5.1288,-5.1187,-5.039,-5.0137,-4.9863,-4.9062,-4.8906,-4.886,-4.8729,-4.8643,-4.8529,-4.8413,-4.8221,-4.8068,-4.8068,-4.7336,-4.6778,-4.6778,-4.6086,-4.5586,-4.5586,-4.5586,-4.5476,-4.518,-4.5159,-4.4988,-4.4657,-4.465,-4.4474,-4.4058,-4.4076,-4.3881,-4.3529,-4.3548,-4.3548,-4.3497,-4.3497,-4.3497,-4.3497,-4.3497,-4.3497,-1.8604,-1.9011,-1.9045,-1.8811,-1.8335,-1.7702,-1.7369,0.0,-1.6682,-1.6854,-1.7148,-1.7364,-1.6941,-1.7643,-1.8232,0.0,0.0,0.0,0.0,0.0,0.0,0.0,0.0,0.0,0.0,0.0,0.0,0.0,0.0,0.0,0.0,-2.8968,-3.0086,-3.0925,-3.1381,-3.2487,-3.4595,-3.51,-3.6169,-3.7704,-3.8275,-3.843,-3.8347,-3.8906,-3.9737,-4.0646,0.0,0.0,0.0,-4.4723,-4.5082,-4.5341,-4.5432,-4.5726,-4.6169,-4.623,-4.6994,-4.7905,-4.7647,-4.8044,-4.8749,-4.8763,-4.8856,-4.9085,-4.9623,-5.0084,-5.062,-5.1651,-5.2203,-5.2411,-5.2068,-5.1677,-5.1328,-5.0996,-5.0918,-5.0674,-4.9751,-4.9559,-4.9516,-4.9381,-4.8861,-4.8606,-4.9086,-4.8625,-4.8182,-4.8182,-4.7875,-4.7451,-4.6971,-4.6605,-4.6108,-4.538,-4.5302,-4.5243,-4.5096,-4.4919,-4.4657,-4.4261,-4.4233,-4.4076,-4.3726,-4.3693,-4.3646,-4.3479,-4.3497,-4.3497,-4.3497,-4.3497,-4.3497,-4.3497,-4.3497,-4.3497,-1.8273,-1.8824,-1.916,-1.8982,-1.8504,-1.817,0.0,0.0,-1.7779,-1.7967,-1.8008,-1.8008,-1.8008,-1.8008,-1.7966,-1.7944,0.0,-1.8536,0.0,0.0,0.0,0.0,0.0,0.0,0.0,0.0,0.0,0.0,0.0,0.0,0.0,-3.2544,-3.2933,-3.2694,-3.3126,-3.4691,-3.7221,-3.7508,-3.851,-4.032,-4.0605,-4.0672,-4.0641,-4.1479,-4.2546,-4.3754,0.0,0.0,0.0,-4.7449,-4.7499,-4.7596,-4.7674,-4.7668,-4.7615,-4.77,-4.8342,-4.909,-4.909,-4.9485,-4.9997,-5.0089,-5.0481,-5.0977,-5.1315,-5.1446,-5.1653,-5.2596,-5.3338,-5.3663,-5.2795,-5.2168,-5.1717,-5.1416,-5.1341,-5.1222,-5.0767,-5.0488,-5.0353,-5.0447,-4.9721,-4.926,-4.9836,-4.9336,-4.8875,-4.8875,-4.8644,-4.8279,-4.7721,-4.7089,-4.6491,-4.5881,-4.5204,-4.4762,-4.4762,-4.4561,-4.4252,-4.3881,-4.3849,-4.3758,-4.3513,-4.3497,-4.3497,-4.3497,-4.3497,-4.3497,-4.3497,-4.3497,-4.3497,-4.3497,-4.3497,-4.3497,-1.783,-1.8752,-1.9775,-1.9132,-1.8481,-1.8107,0.0,0.0,-1.7779,-1.7967,-1.8008,-1.8008,-1.8008,-1.8008,-1.8154,-1.8504,-1.9346,0.0,0.0,0.0,0.0,0.0,0.0,0.0,0.0,0.0,0.0,0.0,0.0,0.0,0.0,0.0,-3.6693,-3.6693,-3.6263,-3.7312,-3.9812,-4.0787,-4.127,-4.1285,-4.2193,-4.3289,-4.4394,-4.5073,-4.6079,0.0,0.0,0.0,0.0,-5.0256,-5.0551,-5.1037,-5.0917,-5.0373,-4.9645,-4.9532,-4.9816,-5.0285,-5.0285,-5.0635,-5.1087,-5.1087,-5.1614,-5.2305,-5.2449,-5.1842,-5.1303,-5.2238,-5.3234,-5.3808,-5.2929,-5.2695,-5.244,-5.1435,-5.1203,-5.1391,-5.2115,-5.1653,-5.1279,-5.1933,-5.1414,-5.0837,-5.0702,-5.0664,-5.0664,-5.0664,-4.9933,-4.9375,-4.9375,-4.7582,-4.6603,-4.74,-4.5396,-4.3998,-4.3998,-4.4016,-4.3849,-4.3513,-4.3532,-4.3479,-4.3497,-4.3497,-4.3497,-4.3497,-4.3497,-4.3497,-4.3497,-4.3497,-4.3497,-4.3497,-4.3497,-4.3497,-1.7977,-1.8419,-1.8721,-1.8497,-1.8563,-1.8573,-1.8327,0.0,-1.9113,-1.89,-1.9036,-1.9297,-1.9695,-1.9415,-1.9399,-2.0267,-2.0584,0.0,0.0,0.0,0.0,0.0,0.0,0.0,0.0,0.0,0.0,0.0,0.0,0.0,0.0,0.0,-3.8792,-3.7481,-3.8864,-4.0449,-4.2003,-4.3472,-4.457,-4.5357,-4.6131,-4.6733,-4.7126,-4.8243,0.0,0.0,0.0,0.0,0.0,-5.2952,-5.2622,-5.1728,-5.1772,-5.1104,-5.0118,-5.0184,-5.0463,-5.0851,-5.0858,-5.097,-5.1101,-5.1161,-5.1739,-5.2346,-5.1895,-5.272,-5.4013,-5.4916,-5.4961,-5.4666,-5.4292,-5.3759,-5.3221,-5.2919,-5.2829,-5.2897,-5.3028,-5.2839,-5.2722,-5.2837,-5.2164,-5.176,-5.2318,-5.1452,-5.0894,-5.1433,-5.0818,-4.997,-4.9089,-4.8422,-4.7669,-4.6834,-4.6078,-4.5419,-4.4873,-4.4119,-4.3612,-4.3532,-4.3497,-4.3497,-4.3497,-4.3497,-4.3497,-4.3497,-4.3497,-4.3497,-4.3497,-4.3497,-4.3497,-4.3497,-4.3497,-4.3497,0.0,-1.9083,-1.9545,-1.9396,-1.9588,0.0,0.0,0.0,-2.0307,-1.9845,-1.9887,-2.0147,-2.0534,-2.0269,-2.0256,-2.0855,-2.1278,0.0,0.0,0.0,0.0,0.0,0.0,0.0,0.0,0.0,0.0,0.0,0.0,0.0,0.0,0.0,-4.1213,-4.0449,-4.1464,-4.2802,-4.4557,-4.5955,-4.7176,-4.8118,-4.9137,-4.9594,-4.9649,-5.0878,0.0,0.0,0.0,0.0,0.0,-5.4597,-5.4107,-5.2992,-5.2788,-5.2037,-5.1029,-5.0809,-5.1121,-5.1626,-5.1625,-5.1667,-5.1717,-5.1747,-5.1896,-5.2181,-5.2717,-5.3697,-5.4785,-5.5659,-5.5722,-5.5421,-5.5013,-5.4512,-5.3994,-5.3606,-5.3509,-5.3587,-5.378,-5.3568,-5.3414,-5.3645,-5.2991,-5.2568,-5.3106,-5.1947,-5.1097,-5.1593,-5.0853,-4.9968,-4.9176,-4.8685,-4.8126,-4.742,-4.6665,-4.6138,-4.5934,-4.4994,-4.4397,-4.4397,-4.4397,-4.4268,-4.3975,-4.3956,-4.3809,-4.3497,-4.3497,-4.3497,-4.3497,-4.3497,-4.3497,-4.3497,-4.3809,-4.3791,0.0,-2.0576,0.0,0.0,0.0,0.0,0.0,0.0,0.0,-2.0926,-2.0864,-2.0928,-2.1031,-2.091,-2.0858,-2.1062,0.0,0.0,0.0,0.0,0.0,0.0,0.0,0.0,0.0,0.0,0.0,0.0,0.0,0.0,0.0,0.0,-4.3761,-4.5064,-4.3976,-4.4616,-4.7276,-4.8343,-4.9245,-4.9931,-5.128,-5.1882,-5.1928,-5.3008,0.0,0.0,0.0,0.0,0.0,-5.532,-5.5115,-5.465,-5.3896,-5.3075,-5.2221,-5.1493,-5.1735,-5.2432,-5.2548,-5.265,-5.2707,-5.2768,-5.2164,-5.1894,-5.4512,-5.4597,-5.3988,-5.4912,-5.5665,-5.5994,-5.5162,-5.4951,-5.472,-5.3778,-5.3547,-5.376,-5.4434,-5.3953,-5.3626,-5.4434,-5.3895,-5.3318,-5.3336,-5.2273,-5.137,-5.1345,-5.0334,-4.955,-4.9464,-4.8484,-4.8058,-4.8788,-4.7202,-4.6379,-4.7131,-4.6397,-4.5902,-4.5902,-4.5902,-4.5571,-4.4837,-4.48,-4.4415,-4.3589,-4.3516,-4.3516,-4.3589,-4.3589,-4.3589,-4.3589,-4.4415,-4.436,-2.2463,0.0,-2.0303,-2.0698,-2.0764,-2.0886,0.0,0.0,0.0,0.0,0.0,0.0,0.0,0.0,0.0,0.0,0.0,0.0,0.0,0.0,0.0,0.0,0.0,0.0,0.0,0.0,0.0,0.0,0.0,0.0,0.0,0.0,-4.6169,-4.7668,-4.7455,-4.7568,-4.827,-5.0627,-5.1909,-5.2109,-5.3252,-5.3845,-5.388,-5.4427,0.0,0.0,0.0,0.0,-5.573,-5.5919,-5.5538,-5.4782,-5.4053,-5.3225,-5.2434,-5.2369,-5.2049,-5.1854,-5.3181,-5.3229,-5.2812,-5.3471,-5.2644,-5.1894,-5.4512,-5.4597,-5.4103,-5.5549,-5.5974,-5.5895,-5.5588,-5.5511,-5.5453,-5.5222,-5.5164,-5.5203,-5.5376,-5.5261,-5.5164,-5.5376,-5.4761,-5.4293,-5.4593,-5.3347,-5.2182,-5.1869,-5.1034,-5.0082,-4.915,-4.8795,-4.8556,-4.8458,-4.8033,-4.781,-4.8012,-4.6728,-4.5902,-4.5902,-4.5902,-4.581,-4.5626,-4.5626,-4.5241,-4.4433,-4.3809,-4.3791,-4.4415,-4.4415,-4.4415,-4.4452,-4.5241,-4.5186,-2.3405,-2.2758,-2.2101,-2.3042,-2.3055,-2.299,-2.3697,0.0,0.0,0.0,0.0,0.0,0.0,0.0,0.0,0.0,0.0,0.0,0.0,0.0,0.0,0.0,0.0,0.0,0.0,0.0,0.0,0.0,0.0,0.0,0.0,0.0,-4.8174,-4.9086,-5.0023,-5.0558,-5.0558,-5.2064,-5.305,-5.3591,-5.4377,-5.4779,-5.479,-5.5186,0.0,0.0,0.0,0.0,-5.6046,-5.6232,-5.602,-5.551,-5.4776,-5.4194,-5.374,-5.3425,-5.3242,-5.332,-5.4277,-5.4297,-5.3906,-5.3984,-5.3359,-5.293,-5.4746,-5.4824,-5.4566,-5.5844,-5.6013,-5.578,-5.5722,-5.5703,-5.5703,-5.5703,-5.5703,-5.5703,-5.5703,-5.5703,-5.5703,-5.5703,-5.5189,-5.4743,-5.4587,-5.3481,-5.2284,-5.1343,-5.0628,-4.9812,-4.8768,-4.8621,-4.855,-4.8326,-4.8306,-4.8306,-4.8306,-4.7498,-4.7003,-4.7003,-4.7003,-4.6838,-4.6471,-4.6452,-4.6085,-4.5278,-4.4819,-4.4819,-4.5259,-4.5259,-4.5259,-4.5278,-4.6085,-4.5828,-2.3963,-2.4581,-2.5212,-2.6036,-2.5841,-2.5592,-2.6273,0.0,0.0,0.0,0.0,0.0,0.0,0.0,0.0,0.0,0.0,0.0,0.0,0.0,0.0,0.0,0.0,0.0,0.0,0.0,0.0,0.0,0.0,0.0,0.0,0.0,0.0,-4.9975,-5.1737,-5.2788,-5.2948,-5.3077,-5.3646,-5.4597,-5.5007,-5.5186,-5.5212,-5.5573,0.0,0.0,0.0,0.0,-5.6246,-5.6391,-5.6423,-5.6358,-5.5602,-5.5293,-5.5215,-5.4473,-5.457,-5.5117,-5.5254,-5.5293,-5.5176,-5.4433,-5.4101,-5.416,-5.5039,-5.5109,-5.5092,-5.5943,-5.5974,-5.5703,-5.5703,-5.5703,-5.5703,-5.5703,-5.5703,-5.5703,-5.5703,-5.5703,-5.5684,-5.5621,-5.5331,-5.4833,-5.402,-5.3169,-5.2063,-5.0522,-4.9898,-4.9279,-4.8416,-4.8306,-4.8306,-4.8306,-4.8306,-4.8306,-4.8306,-4.8306,-4.8306,-4.8306,-4.8306,-4.7994,-4.7333,-4.7186,-4.6856,-4.6287,-4.5902,-4.5847,-4.6085,-4.5957,-4.5957,-4.6104,-4.6929,-4.6507,-2.6361,-2.7268,-2.7442,-2.5901,-2.5467,-2.5591,-2.6304,0.0,0.0,0.0,0.0,0.0,0.0,0.0,0.0,0.0,0.0,0.0,0.0,0.0,0.0,0.0,0.0,0.0,0.0,0.0,0.0,0.0,0.0,0.0,0.0,0.0,0.0,-5.1217,-5.1851,-5.2682,-5.3632,-5.4382,-5.4838,-5.5007,-5.5423,-5.5599,-5.5599,-5.5778,-5.5876,0.0,0.0,-5.6325,-5.6367,-5.6508,-5.6563,-5.6488,-5.5624,-5.5293,-5.5273,-5.5156,-5.4726,-5.4316,-5.5039,-5.5293,-5.5273,-5.5137,-5.4609,-5.416,-5.5039,-5.5109,-5.5092,-5.5943,-5.5974,-5.5703,-5.5703,-5.5703,-5.5703,-5.5703,-5.5703,-5.5703,-5.5703,-5.5703,-5.5599,-5.5256,-5.516,-5.4838,-5.3965,-5.314,-5.2178,-5.0909,-5.0092,-4.9279,-4.8416,-4.8306,-4.8306,-4.8306,-4.8306,-4.8306,-4.8306,-4.8306,-4.8306,-4.8306,-4.8306,-4.8251,-4.8122,-4.748,-4.737,-4.7921,-4.5938,-4.5553,-4.6929,-4.6232,-4.625,-4.6948,-4.7755,-4.7627,-2.6422,-2.723,-2.7688,-2.7094,-2.7545,-2.8132,0.0,0.0,0.0,0.0,0.0,0.0,0.0,0.0,0.0,0.0,0.0,0.0,0.0,0.0,0.0,0.0,0.0,0.0,0.0,0.0,0.0,0.0,0.0,0.0,0.0,0.0,0.0,0.0,-5.2132,-5.2607,-5.3155,-5.3757,-5.4541,-5.5423,-5.5599,-5.5703,-5.5703,-5.5838,-5.5962,-5.6075,0.0,-5.6435,-5.6514,-5.6568,-5.6601,-5.6562,-5.6152,-5.5996,-5.5996,-5.5996,-5.5742,-5.5469,-5.5859,-5.5996,-5.5996,-5.5996,-5.5723,-5.5465,-5.5794,-5.5761,-5.5656,-5.5962,-5.5857,-5.5703,-5.5703,-5.5703,-5.5703,-5.5703,-5.5703,-5.5703,-5.5703,-5.5703,-5.5577,-5.5186,-5.4905,-5.4427,-5.3362,-5.2641,-5.178,-5.0365,-4.9829,-4.9279,-4.8416,-4.8306,-4.8306,-4.8306,-4.8306,-4.8306,-4.8306,-4.8306,-4.8306,-4.8306,-4.8306,-4.8306,-4.8306,-4.7957,-4.7921,-4.8306,-4.7223,-4.7021,-4.7755,-4.7388,-4.7388,-4.7774,-4.8141,-4.7884,-2.6377,-2.7259,-2.8062,-2.8394,-2.9371,0.0,0.0,0.0,0.0,0.0,0.0,0.0,0.0,0.0,0.0,0.0,0.0,0.0,0.0,0.0,0.0,0.0,0.0,0.0,0.0,0.0,0.0,0.0,0.0,0.0,0.0,0.0,0.0,0.0,-5.2182,-5.2537,-5.2747,-5.3037,-5.3953,-5.5415,-5.5415,-5.553,-5.5742,-5.5895,-5.6076,-5.6246,-5.6397,-5.6504,-5.6601,-5.6601,-5.6601,-5.6601,-5.6601,-5.6601,-5.6601,-5.6601,-5.6573,-5.6553,-5.6553,-5.6532,-5.6512,-5.6512,-5.6512,-5.6484,-5.6381,-5.6253,-5.6107,-5.5943,-5.5799,-5.5703,-5.5703,-5.5703,-5.5703,-5.5703,-5.5703,-5.5703,-5.5703,-5.564,-5.5423,-5.5034,-5.464,-5.3999,-5.2921,-5.2167,-5.1353,-5.0306,-4.9664,-4.9187,-4.893,-4.8728,-4.86,-4.86,-4.86,-4.8526,-4.8324,-4.8306,-4.8306,-4.8306,-4.8306,-4.8306,-4.8306,-4.8306,-4.8306,-4.8306,-4.8122,-4.8122,-4.8306,-4.8122,-4.8122,-4.8306,-4.8306,-4.7976,-2.75,-2.878,-2.9741,-2.91,-2.9223,0.0,-3.1165,-3.1486,0.0,-3.3986,0.0,0.0,0.0,0.0,0.0,0.0,0.0,0.0,0.0,0.0,0.0,0.0,0.0,0.0,0.0,0.0,0.0,0.0,0.0,0.0,0.0,0.0,0.0,0.0,0.0,-5.2335,-5.3142,-5.3182,-5.3664,-5.4587,-5.4587,-5.503,-5.5876,-5.609,-5.6246,-5.6386,-5.653,-5.658,-5.6601,-5.6601,-5.6601,-5.6601,-5.6601,-5.6601,-5.6601,-5.6601,-5.653,-5.6406,-5.6406,-5.6339,-5.6222,-5.6222,-5.6222,-5.6232,-5.6208,-5.6075,-5.592,-5.5898,-5.5799,-5.5703,-5.5703,-5.5703,-5.5703,-5.5703,-5.5703,-5.5703,-5.5703,-5.5399,-5.5034,-5.4609,-5.4153,-5.3702,-5.3222,-5.1908,-5.1096,-5.172,-4.9866,-4.893,-5.0435,-4.9958,-4.9499,-4.9499,-4.9499,-4.9169,-4.8379,-4.8306,-4.8306,-4.8306,-4.8306,-4.8306,-4.8306,-4.8306,-4.8306,-4.8306,-4.759,-4.7572,-4.8306,-4.7572,-4.759,-4.8306,-4.8306,-4.8269,-2.7046,-2.8586,-2.9922,-2.9161,-3.0436,0.0,0.0,-3.3483,-3.5055,-3.5857,-3.7481,0.0,0.0,0.0,0.0,0.0,0.0,0.0,0.0,0.0,0.0,0.0,0.0,0.0,0.0,0.0,0.0,0.0,0.0,0.0,0.0,0.0,0.0,0.0,0.0,-5.1356,-5.176,-5.1683,-5.2165,-5.3147,-5.3587,-5.428,-5.5166,-5.5415,-5.5838,-5.6403,-5.655,-5.6601,-5.6601,-5.6601,-5.6601,-5.6601,-5.6601,-5.6548,-5.6492,-5.6492,-5.6393,-5.6281,-5.629,-5.6232,-5.6205,-5.6205,-5.6205,-5.6186,-5.6033,-5.5943,-5.5876,-5.5799,-5.5742,-5.5703,-5.5703,-5.5703,-5.5703,-5.5703,-5.5703,-5.564,-5.5375,-5.5212,-5.4905,-5.4221,-5.3905,-5.3534,-5.2592,-5.194,-5.1481,-5.1279,-5.0453,-5.0086,-5.0729,-5.0527,-5.0343,-5.0343,-4.9884,-4.9242,-4.8379,-4.8306,-4.8306,-4.8306,-4.8306,-4.8306,-4.8306,-4.8306,-4.8306,-4.8306,-4.8012,-4.8012,-4.8306,-4.7994,-4.8012,-4.8306,-4.8306,-4.8306,-2.6906,-2.8476,-3.0055,0.0,0.0,0.0,-3.4461,-3.6103,-3.7763,-3.8679,0.0,0.0,0.0,0.0,0.0,0.0,0.0,0.0,0.0,0.0,0.0,0.0,0.0,0.0,0.0,0.0,0.0,0.0,0.0,0.0,0.0,0.0,0.0,0.0,0.0,0.0,-5.1279,-5.0933,-5.1279,-5.2299,-5.2568,-5.3318,-5.4414,-5.4605,-5.5036,-5.5641,-5.5747,-5.5937,-5.6191,-5.6191,-5.6348,-5.6601,-5.6553,-5.6479,-5.6379,-5.634,-5.6231,-5.6117,-5.6117,-5.609,-5.6051,-5.6051,-5.6051,-5.6032,-5.5876,-5.5838,-5.5818,-5.5722,-5.5703,-5.5703,-5.5703,-5.5703,-5.5703,-5.5703,-5.5599,-5.5423,-5.516,-5.4876,-5.451,-5.3905,-5.3683,-5.336,-5.2537,-5.216,-5.1885,-5.161,-5.1132,-5.0986,-5.1499,-5.1334,-5.1077,-5.0839,-5.0068,-4.9242,-4.8379,-4.8306,-4.8306,-4.8306,-4.8306,-4.8306,-4.8306,-4.8306,-4.8306,-4.8306,-4.8306,-4.8306,-4.8306,-4.8306,-4.8306,-4.8306,-4.8306,-4.8306,-2.7321,-2.8728,0.0,0.0,0.0,0.0,-3.8762,-3.9292,-3.9861,-4.2809,0.0,0.0,0.0,0.0,0.0,0.0,0.0,0.0,0.0,0.0,0.0,0.0,0.0,0.0,0.0,0.0,0.0,0.0,0.0,0.0,0.0,0.0,0.0,0.0,0.0,0.0,-5.2087,-5.1299,-5.1375,-5.2277,-5.1548,-5.2106,-5.3774,-5.3795,-5.387,-5.4004,-5.4004,-5.4492,-5.5293,-5.5312,-5.582,-5.6577,-5.6459,-5.6398,-5.6379,-5.6244,-5.6071,-5.5895,-5.5895,-5.5799,-5.5703,-5.5703,-5.5703,-5.5703,-5.5703,-5.5703,-5.5703,-5.5703,-5.5703,-5.5703,-5.5703,-5.5703,-5.5703,-5.5703,-5.5399,-5.5088,-5.5107,-5.4414,-5.3814,-5.3814,-5.3484,-5.3206,-5.3206,-5.2527,-5.227,-5.3078,-5.1848,-5.1408,-5.3004,-5.2509,-5.1701,-5.0894,-5.0086,-4.926,-4.8398,-4.8324,-4.8324,-4.8306,-4.8306,-4.8306,-4.8306,-4.8306,-4.8306,-4.8306,-4.8306,-4.8306,-4.8306,-4.8306,-4.8306,-4.8306,-4.8306,-4.8306,-2.9387,0.0,0.0,0.0,0.0,0.0,0.0,-4.0394,0.0,0.0,0.0,0.0,0.0,0.0,0.0,0.0,0.0,0.0,0.0,0.0,0.0,0.0,0.0,0.0,0.0,0.0,0.0,0.0,0.0,0.0,0.0,0.0,0.0,0.0,0.0,0.0,-5.1395,-5.1165,-5.1246,-5.1662,-5.1356,-5.178,-5.2897,-5.298,-5.3385,-5.4004,-5.4004,-5.4492,-5.5331,-5.585,-5.6238,-5.6447,-5.6301,-5.6164,-5.6051,-5.6013,-5.5876,-5.5761,-5.5761,-5.5722,-5.5703,-5.5703,-5.5703,-5.5703,-5.5703,-5.5703,-5.5703,-5.5703,-5.5703,-5.5703,-5.5703,-5.5703,-5.5703,-5.5703,-5.5399,-5.5034,-5.4731,-5.4221,-5.372,-5.3404,-5.3254,-5.3023,-5.2454,-5.2637,-5.2729,-5.2417,-5.2435,-5.2674,-5.3151,-5.3004,-5.2546,-5.172,-5.1426,-5.071,-4.926,-4.9187,-4.8948,-4.8343,-4.8306,-4.8306,-4.8306,-4.8306,-4.8306,-4.8306,-4.8306,-4.8306,-4.8306,-4.8306,-4.8306,-4.8306,-4.8306,-4.8306,-3.0016,0.0,0.0,0.0,0.0,0.0,0.0,0.0,0.0,0.0,0.0,0.0,0.0,0.0,0.0,0.0,0.0,0.0,0.0,0.0,0.0,0.0,0.0,0.0,0.0,0.0,0.0,0.0,0.0,0.0,0.0,0.0,0.0,0.0,0.0,0.0,-5.1099,-5.1131,-5.1224,-5.1399,-5.131,-5.1537,-5.2061,-5.2144,-5.2461,-5.2988,-5.332,-5.3754,-5.4262,-5.5028,-5.5553,-5.5784,-5.5659,-5.5743,-5.5876,-5.5838,-5.5761,-5.5703,-5.5703,-5.5703,-5.5703,-5.5703,-5.5703,-5.5703,-5.5703,-5.5703,-5.5703,-5.5703,-5.5703,-5.5703,-5.5703,-5.5577,-5.5446,-5.5446,-5.516,-5.4731,-5.4322,-5.3851,-5.3484,-5.323,-5.3206,-5.3059,-5.2564,-5.2894,-5.3041,-5.2546,-5.2894,-5.3206,-5.3206,-5.3206,-5.2894,-5.2087,-5.1995,-5.1444,-5.0123,-4.9756,-4.937,-4.8838,-4.8489,-4.8306,-4.8306,-4.8306,-4.8306,-4.8306,-4.8306,-4.8306,-4.8306,-4.8306,-4.8306,-4.8306,-4.8306,-4.8306,-2.9962,0.0,0.0,0.0,0.0,0.0,0.0,0.0,0.0,0.0,0.0,0.0,0.0,0.0,0.0,0.0,0.0,0.0,0.0,0.0,0.0,0.0,0.0,0.0,0.0,0.0,0.0,0.0,0.0,0.0,0.0,0.0,0.0,0.0,0.0,0.0,-5.1103,-5.1184,-5.128,0.0,-5.1404,-5.1389,-5.1406,-5.1406,-5.1386,-5.1439,-5.2298,-5.2606,-5.255,-5.3417,-5.4148,-5.4759,-5.4705,-5.5128,-5.5761,-5.5722,-5.5703,-5.5703,-5.5703,-5.5703,-5.5703,-5.5703,-5.5703,-5.5703,-5.5703,-5.5703,-5.5703,-5.5703,-5.5703,-5.5703,-5.5703,-5.5399,-5.5088,-5.5061,-5.4731,-5.4322,-5.3869,-5.3465,-5.3206,-5.3206,-5.3206,-5.3206,-5.3206,-5.3206,-5.3206,-5.3206,-5.3206,-5.3206,-5.3206,-5.3206,-5.2931,-5.2179,-5.2105,-5.1775,-5.0986,-5.016,-4.9701,-4.9701,-4.8893,-4.8453,-4.8526,-4.8379,-4.8306,-4.8306,-4.8306,-4.8306,-4.8306,-4.8306,-4.8306,-4.8306,-4.8306,-4.8306,0.0,-3.3203,0.0,0.0,0.0,0.0,0.0,0.0,0.0,0.0,0.0,0.0,0.0,0.0,0.0,0.0,0.0,0.0,0.0,0.0,0.0,0.0,0.0,0.0,0.0,0.0,0.0,0.0,0.0,0.0,0.0,0.0,0.0,0.0,0.0,-5.107,-5.1103,-5.1271,-5.1372,0.0,-5.1408,-5.1391,-5.1406,-5.1406,-5.1341,-5.1285,-5.2152,-5.2457,-5.2394,-5.3181,-5.3589,-5.3781,-5.4339,-5.4645,-5.4876,-5.5472,-5.5703,-5.5703,-5.5703,-5.5703,-5.5703,-5.5703,-5.5703,-5.5703,-5.5703,-5.5703,-5.5703,-5.5703,-5.5703,-5.5703,-5.5703,-5.5399,-5.5007,-5.4701,-5.4288,-5.3905,-5.3814,-5.3465,-5.3206,-5.3206,-5.3206,-5.3206,-5.3206,-5.3206,-5.3206,-5.3206,-5.3206,-5.3206,-5.3206,-5.3206,-5.3133,-5.2968,-5.2949,-5.2619,-5.1811,-5.1004,-5.0545,-5.0545,-4.9756,-4.9591,-5.0251,-4.9003,-4.8306,-4.8306,-4.8306,-4.8306,-4.8306,-4.8306,-4.8306,-4.8306,-4.8306,-4.8306,0.0,0.0,0.0,0.0,0.0,0.0,0.0,0.0,0.0,0.0,0.0,0.0,0.0,0.0,0.0,0.0,0.0,0.0,0.0,0.0,0.0,0.0,0.0,0.0,0.0,0.0,0.0,0.0,0.0,0.0,0.0,0.0,0.0,0.0,-5.0125,-5.0524,-5.056,-5.0323,-5.041,-5.082,-5.082,-5.0995,-5.1307,-5.1307,-5.1245,-5.1184,-5.1623,-5.1736,-5.1659,-5.2048,-5.2396,-5.2723,-5.3106,-5.378,-5.4549,-5.4972,-5.5376,-5.5703,-5.5703,-5.5453,-5.5126,-5.5126,-5.5126,-5.5126,-5.5126,-5.5395,-5.5703,-5.5703,-5.5577,-5.5423,-5.5423,-5.496,-5.4414,-5.4202,-5.3977,-5.3758,-5.3565,-5.3359,-5.3206,-5.3206,-5.3206,-5.3206,-5.3206,-5.3206,-5.3206,-5.3206,-5.3206,-5.3206,-5.3206,-5.3206,-5.3206,-5.3206,-5.3206,-5.3041,-5.2619,-5.1481,-5.0967,-5.1353,-5.0251,-4.9958,-5.0765,-4.9958,-4.9315,-4.893,-4.8508,-4.8306,-4.8306,-4.8306,-4.8306,-4.8306,-4.8306,-4.8306,0.0,0.0,0.0,0.0,0.0,0.0,0.0,0.0,0.0,0.0,0.0,0.0,0.0,0.0,0.0,0.0,0.0,0.0,0.0,0.0,0.0,0.0,0.0,0.0,0.0,0.0,0.0,0.0,0.0,0.0,0.0,0.0,-4.9048,-4.9182,-4.9452,-4.9663,-4.9779,-4.9185,-4.9258,-4.998,-4.9951,-5.0213,-5.0735,-5.0702,-5.0839,-5.1066,-5.1059,-5.0991,-5.0875,-5.0875,-5.1183,-5.1722,-5.1856,-5.2779,-5.4068,-5.4222,-5.4703,-5.5261,-5.5261,-5.4838,-5.428,-5.428,-5.428,-5.428,-5.428,-5.4857,-5.5491,-5.5491,-5.5284,-5.5088,-5.5088,-5.4446,-5.3814,-5.3814,-5.3758,-5.3604,-5.3272,-5.3206,-5.3206,-5.3206,-5.3206,-5.3206,-5.3206,-5.3206,-5.3206,-5.3206,-5.3206,-5.3206,-5.3206,-5.3206,-5.3206,-5.3206,-5.3206,-5.3206,-5.3206,-5.1848,-5.1353,-5.216,-5.082,-5.038,-5.1187,-5.1077,-5.0618,-4.9811,-4.8948,-4.8453,-4.8306,-4.8306,-4.8306,-4.8306,-4.8306,-4.8306,0.0,0.0,0.0,0.0,0.0,0.0,0.0,0.0,0.0,0.0,0.0,0.0,0.0,0.0,0.0,0.0,0.0,0.0,0.0,0.0,0.0,0.0,0.0,0.0,0.0,0.0,0.0,0.0,0.0,0.0,0.0,-4.7259,-4.7394,-4.7529,-4.8375,-4.8856,-4.8856,-4.8893,-4.8965,-4.9062,-4.8953,-4.8897,-4.8856,-4.8736,-4.9508,-5.093,-5.0933,-5.0856,-5.0721,-5.0721,-5.0779,-5.0933,-5.1625,-5.2049,-5.2337,-5.3106,-5.3433,-5.353,-5.353,-5.3472,-5.3376,-5.3376,-5.3376,-5.3376,-5.3376,-5.3972,-5.4664,-5.4664,-5.4863,-5.5088,-5.5088,-5.4446,-5.3814,-5.3814,-5.3545,-5.3272,-5.3206,-5.3206,-5.3206,-5.3206,-5.3206,-5.3206,-5.3206,-5.3206,-5.3206,-5.3206,-5.3206,-5.3206,-5.3206,-5.3206,-5.3206,-5.3206,-5.3206,-5.3206,-5.3206,-5.2362,-5.2179,-5.3004,-5.2179,-5.2032,-5.2858,-5.2215,-5.1463,-5.0655,-4.9829,-4.904,-4.8306,-4.8306,-4.8306,-4.8306,-4.8306,-4.8306,0.0,0.0,0.0,0.0,0.0,0.0,0.0,0.0,0.0,0.0,0.0,0.0,0.0,0.0,0.0,0.0,0.0,0.0,0.0,0.0,0.0,0.0,0.0,0.0,0.0,0.0,0.0,0.0,0.0,0.0,-4.6394,-4.6849,-4.7173,-4.7314,-4.7741,-4.8005,-4.8076,-4.7656,-4.7695,-4.8183,-4.8526,-4.8623,-4.8502,-4.8362,-4.8932,-5.0048,-5.0048,-5.0298,-5.0702,-5.0702,-5.0702,-5.0741,-5.1087,-5.151,-5.1952,-5.2337,-5.2779,-5.3203,-5.3203,-5.2876,-5.2472,-5.2472,-5.2472,-5.2472,-5.2472,-5.3414,-5.4449,-5.4177,-5.4413,-5.4701,-5.4433,-5.3924,-5.3484,-5.3484,-5.3336,-5.3206,-5.3206,-5.3206,-5.3206,-5.3206,-5.3206,-5.3206,-5.3206,-5.3206,-5.3206,-5.3206,-5.3206,-5.3206,-5.3206,-5.3206,-5.3206,-5.3206,-5.3206,-5.3206,-5.3206,-5.2454,-5.2344,-5.317,-5.2435,-5.2362,-5.3188,-5.2435,-5.161,-5.082,-4.9994,-4.9169,-4.8306,-4.8306,-4.8306,-4.8306,-4.8306,-4.8306,0.0,0.0,0.0,0.0,0.0,0.0,0.0,0.0,0.0,0.0,0.0,0.0,0.0,0.0,0.0,0.0,0.0,0.0,0.0,0.0,0.0,0.0,0.0,0.0,0.0,0.0,0.0,0.0,0.0,0.0,-4.5988,-4.6571,-4.6981,-4.712,-4.7124,-4.7165,-4.7266,-4.6621,-4.6616,-4.7221,-4.7738,-4.7932,-4.7812,-4.7661,-4.8028,-4.8779,-4.8971,-4.9548,-5.0356,-5.0356,-5.0491,-5.0702,-5.0702,-5.1068,-5.1606,-5.1606,-5.201,-5.2568,-5.2568,-5.2145,-5.1606,-5.1606,-5.1606,-5.1606,-5.1606,-5.2799,-5.4081,-5.362,-5.3993,-5.4387,-5.3905,-5.3505,-5.3206,-5.3206,-5.3206,-5.3151,-5.2949,-5.3078,-5.3151,-5.2931,-5.3078,-5.3206,-5.3206,-5.3206,-5.3206,-5.3206,-5.3206,-5.3206,-5.3206,-5.3206,-5.3206,-5.3206,-5.3206,-5.3206,-5.3206,-5.2656,-5.2564,-5.317,-5.2637,-5.2564,-5.3188,-5.2619,-5.183,-5.082,-5.0398,-4.9682,-4.8636,-4.8416,-4.8416,-4.8636,-4.8398,-4.8306,0.0,0.0,0.0,0.0,0.0,0.0,0.0,0.0,0.0,0.0,0.0,0.0,0.0,0.0,0.0,0.0,0.0,0.0,0.0,0.0,0.0,0.0,0.0,0.0,0.0,0.0,0.0,0.0,0.0,0.0,-4.6084,-4.6138,-4.6208,-4.6344,-4.6365,-4.6366,-4.6367,-4.6328,-4.6259,-4.6188,-4.6088,-4.6014,-4.595,-4.5815,-4.6201,-4.7067,-4.7836,-4.8663,-4.9471,-4.9471,-4.9952,-5.0702,-5.0702,-5.0721,-5.076,-5.076,-5.0779,-5.0818,-5.0818,-5.0798,-5.076,-5.076,-5.076,-5.076,-5.076,-5.1933,-5.3178,-5.278,-5.3556,-5.4387,-5.3905,-5.3505,-5.3206,-5.3206,-5.3206,-5.3004,-5.2215,-5.2656,-5.2986,-5.2197,-5.2674,-5.3206,-5.3206,-5.3206,-5.3206,-5.3206,-5.3206,-5.3206,-5.3206,-5.3206,-5.3206,-5.3206,-5.3206,-5.3206,-5.3206,-5.317,-5.317,-5.3206,-5.317,-5.317,-5.3206,-5.317,-5.2417,-5.0839,-5.1499,-5.1096,-4.9517,-4.8691,-4.8728,-4.9499,-4.8673,-4.8306,0.0,0.0,0.0,0.0,0.0,0.0,0.0,0.0,0.0,0.0,0.0,0.0,0.0,0.0,0.0,0.0,0.0,0.0,0.0,0.0,0.0,0.0,0.0,0.0,0.0,0.0,0.0,0.0,0.0,0.0,-4.6229,-4.6242,-4.6245,-4.6308,-4.6308,-4.6261,-4.6169,-4.6158,-4.6088,-4.5968,-4.5866,-4.5827,-4.5796,-4.5643,-4.5759,-4.6086,-4.6374,-4.7278,-4.8606,-4.9163,-4.9586,-4.9913,-5.0471,-5.0702,-5.0702,-5.0702,-5.0702,-5.0702,-5.0702,-5.0702,-5.0702,-5.0702,-5.0702,-5.0702,-5.0702,-5.1875,-5.3039,-5.2341,-5.3293,-5.434,-5.3604,-5.3295,-5.3206,-5.3206,-5.3206,-5.2986,-5.216,-5.2637,-5.3115,-5.2839,-5.3004,-5.3206,-5.3206,-5.3206,-5.3206,-5.3206,-5.3206,-5.3206,-5.3206,-5.3206,-5.3206,-5.3206,-5.3206,-5.3206,-5.3206,-5.3206,-5.3206,-5.3206,-5.3206,-5.3206,-5.3206,-5.2711,-5.216,-5.1573,-5.1353,-5.0692,-4.9591,-4.9793,-5.0068,-5.0343,-4.9517,-4.9132,-3.3473,0.0,0.0,0.0,0.0,0.0,0.0,0.0,0.0,0.0,0.0,0.0,0.0,0.0,0.0,0.0,0.0,0.0,0.0,0.0,0.0,0.0,0.0,0.0,0.0,0.0,0.0,0.0,0.0,0.0,-4.6288,-4.6308,-4.6308,-4.6308,-4.6257,-4.6202,-4.6102,-4.6065,-4.5982,-4.5883,-4.5812,-4.5776,-4.5738,-4.5624,-4.5586,-4.5586,-4.5586,-4.6394,-4.774,-4.8317,-4.8721,-4.9029,-4.9606,-4.9817,-4.9856,-5.0164,-5.026,-5.0298,-5.0587,-5.0702,-5.0702,-5.0702,-5.0604,-5.0504,-5.0504,-5.1568,-5.2641,-5.1895,-5.2959,-5.4102,-5.34,-5.3206,-5.3206,-5.3206,-5.3206,-5.3059,-5.2527,-5.2821,-5.3133,-5.2858,-5.3023,-5.3206,-5.3206,-5.3206,-5.3206,-5.3206,-5.3206,-5.3206,-5.3206,-5.3206,-5.3206,-5.3206,-5.3206,-5.3206,-5.3206,-5.3206,-5.3206,-5.3206,-5.3206,-5.3206,-5.3206,-5.2692,-5.227,-5.1995,-5.1738,-5.1206,-5.0398,-5.0674,-5.0949,-5.1169,-5.0086,-4.9591,0.0,0.0,0.0,0.0,0.0,0.0,0.0,0.0,0.0,0.0,0.0,0.0,0.0,0.0,0.0,0.0,0.0,0.0,0.0,0.0,0.0,0.0,0.0,0.0,0.0,0.0,0.0,0.0,0.0,-4.6162,-4.6288,-4.6308,-4.6308,-4.6289,-4.6166,-4.6103,-4.6084,-4.5969,-4.5853,-4.5796,-4.5796,-4.5738,-4.5586,-4.5586,-4.5586,-4.5586,-4.5586,-4.6086,-4.6874,-4.6894,-4.7355,-4.8067,-4.8086,-4.8105,-4.8202,-4.9048,-4.9356,-4.949,-5.0356,-5.0644,-5.0664,-5.0683,-5.0421,-5.0092,-5.0092,-5.0957,-5.1864,-5.1423,-5.2474,-5.3702,-5.3295,-5.3206,-5.3206,-5.3206,-5.3206,-5.3206,-5.3206,-5.3206,-5.2968,-5.2179,-5.2674,-5.3206,-5.3206,-5.3206,-5.3206,-5.3206,-5.3206,-5.3206,-5.3206,-5.3206,-5.3206,-5.3206,-5.3206,-5.3206,-5.3206,-5.3206,-5.3206,-5.3206,-5.3206,-5.3206,-5.3206,-5.3206,-5.2839,-5.205,-5.2803,-5.2821,-5.2013,-5.1242,-5.1261,-5.1995,-5.0398,-4.9646,-3.5469,0.0,0.0,0.0,0.0,0.0,0.0,0.0,0.0,0.0,0.0,0.0,0.0,0.0,0.0,0.0,0.0,0.0,0.0,0.0,0.0,0.0,0.0,0.0,0.0,0.0,0.0,0.0,-4.6192,-4.6261,-4.6308,-4.6308,-4.6253,-4.6157,-4.6121,-4.6026,-4.5873,-4.5853,-4.5776,-4.5643,-4.5643,-4.5624,-4.5586,-4.5586,-4.5586,-4.5586,-4.5586,-4.574,-4.6009,-4.6644,-4.7028,-4.7298,-4.7875,-4.8105,-4.8125,-4.8375,-4.8471,-4.8586,-4.9452,-4.976,-4.9836,-5.0167,-5.0183,-5.0043,-4.9746,-5.0345,-5.1179,-5.1274,-5.21,-5.2958,-5.3148,-5.3206,-5.3206,-5.3206,-5.3206,-5.3206,-5.3206,-5.3206,-5.3133,-5.2913,-5.3059,-5.3206,-5.3206,-5.3206,-5.3206,-5.3206,-5.3206,-5.3206,-5.3206,-5.3206,-5.3206,-5.3206,-5.3206,-5.3206,-5.3206,-5.3206,-5.3206,-5.3206,-5.3206,-5.3206,-5.3206,-5.3206,-5.3115,-5.2876,-5.3096,-5.3096,-5.2876,-5.2656,-5.2656,-5.2839,-5.1811,-5.1022,0.0,0.0,0.0,0.0,0.0,0.0,0.0,0.0,0.0,0.0,0.0,0.0,0.0,0.0,0.0,0.0,0.0,0.0,0.0,0.0,0.0,0.0,0.0,0.0,0.0,0.0,0.0,0.0,-4.516,-4.5371,-4.5742,-4.6045,-4.6182,-4.6102,-4.6026,-4.593,-4.5796,-4.5738,-4.568,-4.5586,-4.5586,-4.5586,-4.5586,-4.5586,-4.5586,-4.5586,-4.5586,-4.5586,-4.5624,-4.6144,-4.6355,-4.6394,-4.6874,-4.7067,-4.7105,-4.7471,-4.7605,-4.7702,-4.8393,-4.887,-4.9171,-4.9289,-4.9443,-4.9561,-4.9326,-4.9739,-5.0325,-5.0545,-5.1454,-5.2395,-5.2647,-5.2968,-5.3206,-5.3206,-5.3206,-5.3206,-5.3206,-5.3206,-5.3206,-5.3206,-5.3206,-5.3206,-5.3206,-5.3206,-5.3206,-5.3206,-5.3206,-5.3206,-5.3206,-5.3206,-5.3206,-5.3206,-5.3206,-5.3206,-5.3206,-5.3206,-5.3206,-5.3206,-5.3206,-5.3206,-5.3206,-5.3206,-5.3206,-5.3206,-5.3206,-5.3206,-5.3206,-5.3206,-5.3041,-5.2692,-5.2215,-5.1738,0.0,0.0,0.0,0.0,0.0,0.0,-3.7065,-3.6776,0.0,0.0,0.0,0.0,0.0,0.0,0.0,0.0,0.0,0.0,0.0,0.0,0.0,0.0,0.0,0.0,0.0,0.0,-4.3691,-4.3691,-4.3689,-4.4036,-4.4798,-4.544,-4.5828,-4.5911,-4.5757,-4.5699,-4.5776,-4.5643,-4.5586,-4.5586,-4.5586,-4.5586,-4.5586,-4.5586,-4.5586,-4.5586,-4.5586,-4.5586,-4.5586,-4.5586,-4.5586,-4.5586,-4.5586,-4.5586,-4.5682,-4.6471,-4.6741,-4.6762,-4.7286,-4.7918,-4.8427,-4.8285,-4.8471,-4.8785,-4.881,-4.914,-4.9462,-4.9554,-5.0674,-5.1885,-5.1977,-5.2527,-5.3096,-5.3188,-5.3133,-5.3096,-5.3188,-5.3133,-5.3096,-5.3188,-5.3206,-5.3206,-5.3206,-5.3206,-5.3206,-5.3206,-5.3206,-5.3206,-5.3206,-5.3206,-5.3206,-5.3206,-5.3206,-5.3206,-5.3206,-5.3206,-5.3206,-5.3206,-5.3206,-5.3206,-5.3206,-5.3206,-5.3206,-5.3206,-5.3206,-5.3206,-5.3206,-5.3206,-5.2839,-5.2123,-5.2123,-5.2087,0.0,0.0,0.0,0.0,0.0,0.0,-3.8084,-3.7199,0.0,0.0,0.0,0.0,0.0,0.0,0.0,0.0,0.0,0.0,0.0,0.0,0.0,0.0,0.0,0.0,0.0,0.0,-4.3691,-4.3691,-4.3646,-4.3685,-4.3872,-4.3906,-4.4199,-4.4793,-4.4757,-4.5045,-4.5624,-4.5605,-4.5586,-4.5586,-4.5586,-4.5586,-4.5586,-4.5586,-4.5586,-4.5586,-4.5586,-4.5586,-4.5586,-4.5586,-4.5586,-4.5586,-4.5586,-4.5586,-4.5605,-4.5778,-4.5669,-4.5564,-4.6282,-4.6483,-4.6539,-4.7522,-4.7876,-4.7992,-4.831,-4.8474,-4.8691,-4.9389,-5.0288,-5.1187,-5.183,-5.2105,-5.2399,-5.3059,-5.2711,-5.2417,-5.3078,-5.2692,-5.2435,-5.3078,-5.3206,-5.3206,-5.3206,-5.3206,-5.3206,-5.3206,-5.3206,-5.3206,-5.3206,-5.3206,-5.3206,-5.3206,-5.3206,-5.3206,-5.3206,-5.3206,-5.3206,-5.3206,-5.3206,-5.3206,-5.3206,-5.3206,-5.3206,-5.3206,-5.3206,-5.3206,-5.3206,-5.3206,-5.3133,-5.2968,-5.2968,-5.2619,0.0,0.0,0.0,-4.1473,0.0,0.0,0.0,-3.8604,0.0,0.0,0.0,0.0,0.0,0.0,0.0,0.0,0.0,0.0,0.0,0.0,0.0,0.0,0.0,0.0,0.0,0.0,-4.2432,-4.2354,-4.2655,-4.2847,-4.2838,-4.315,-4.3672,-4.4465,-4.4449,-4.4795,-4.5586,-4.5163,-4.5163,-4.5586,-4.5163,-4.5182,-4.5586,-4.5586,-4.5586,-4.5586,-4.5586,-4.5586,-4.5586,-4.5419,-4.5342,-4.5381,-4.5531,-4.5495,-4.5342,-4.5342,-4.514,-4.4862,-4.5092,-4.5302,-4.5581,-4.6038,-4.6477,-4.6905,-4.7518,-4.7994,-4.8398,-4.882,-4.9536,-5.0251,-5.0674,-5.1389,-5.1995,-5.2013,-5.1995,-5.2105,-5.2509,-5.227,-5.2234,-5.3041,-5.3206,-5.3206,-5.3206,-5.3206,-5.3206,-5.3206,-5.3206,-5.3206,-5.3206,-5.3206,-5.3206,-5.3206,-5.3206,-5.3206,-5.3206,-5.3206,-5.3206,-5.3206,-5.3206,-5.3206,-5.3206,-5.3206,-5.3206,-5.3206,-5.3206,-5.3206,-5.3206,-5.3206,-5.3206,-5.3206,-5.2803,-5.2601,0.0,0.0,0.0,0.0,0.0,-4.1816,0.0,0.0,0.0,0.0,0.0,0.0,0.0,0.0,0.0,0.0,0.0,0.0,0.0,0.0,0.0,0.0,0.0,0.0,0.0,0.0,-4.0901,-4.0962,-4.1335,-4.1651,-4.1821,-4.2367,-4.3156,-4.4198,-4.4124,-4.4547,-4.5586,-4.4893,-4.4893,-4.5586,-4.4893,-4.4913,-4.5586,-4.5586,-4.5586,-4.5586,-4.5586,-4.5568,-4.5495,-4.5222,-4.5074,-4.503,-4.5283,-4.5243,-4.4988,-4.4988,-4.4781,-4.4447,-4.4117,-4.4383,-4.4851,-4.4741,-4.5351,-4.6287,-4.7095,-4.7792,-4.8306,-4.8306,-4.8765,-4.9315,-4.9536,-5.0545,-5.1408,-5.093,-5.1169,-5.161,-5.1922,-5.1867,-5.205,-5.3023,-5.3206,-5.3206,-5.3206,-5.3206,-5.3206,-5.3206,-5.3206,-5.3206,-5.3206,-5.3206,-5.3206,-5.3206,-5.3206,-5.3206,-5.3206,-5.3206,-5.3206,-5.3206,-5.3206,-5.3206,-5.3206,-5.3206,-5.3206,-5.3206,-5.3206,-5.3206,-5.3206,-5.3206,-5.3206,-5.3188,-5.2527,-5.2582,0.0,0.0,0.0,0.0,-4.3547,0.0,0.0,0.0,0.0,0.0,0.0,-3.6763,-3.6036,0.0,0.0,0.0,0.0,0.0,0.0,0.0,0.0,0.0,0.0,0.0,0.0,0.0,0.0,-4.0766,-4.0126,-4.0044,-4.0812,-4.0831,-4.1562,-4.3201,-4.3239,-4.3989,-4.5566,-4.549,-4.549,-4.5586,-4.549,-4.549,-4.5586,-4.5586,-4.5586,-4.5586,-4.5586,-4.5438,-4.514,-4.5137,-4.4919,-4.4657,-4.4682,-4.4682,-4.4657,-4.4657,-4.4419,-4.4058,-4.4016,-4.386,-4.3787,-4.447,-4.5736,-4.7131,-4.7921,-4.8233,-4.8306,-4.8306,-4.8379,-4.8618,-4.9389,-4.9719,-5.0013,-5.0655,-5.0325,-5.0251,-5.1683,-5.1444,-5.1389,-5.2913,-5.3206,-5.3206,-5.3206,-5.3206,-5.3206,-5.3206,-5.3206,-5.3206,-5.3206,-5.3206,-5.3206,-5.3206,-5.3206,-5.3206,-5.3206,-5.3206,-5.3206,-5.3206,-5.3206,-5.3206,-5.3206,-5.3206,-5.3206,-5.3206,-5.3206,-5.3206,-5.3206,-5.3206,-5.3206,-5.3206,-5.3115,-5.3115,0.0,0.0,0.0,0.0,0.0,0.0,0.0,0.0,-3.9892,0.0,0.0,0.0,0.0,0.0,0.0,0.0,0.0,0.0,0.0,0.0,0.0,0.0,0.0,0.0,0.0,0.0,0.0,0.0,0.0,-3.9503,-3.9869,-4.0277,-4.1066,-4.2316,-4.2835,-4.3662,-4.4836,-4.4374,-4.4643,-4.5586,-4.4605,-4.4662,-4.5586,-4.5586,-4.5495,-4.5322,-4.5322,-4.5118,-4.4781,-4.4561,-4.4373,-4.4233,-4.4035,-4.4095,-4.4233,-4.4233,-4.4016,-4.3693,-4.3693,-4.3631,-4.3552,-4.3883,-4.5094,-4.6471,-4.6801,-4.7572,-4.8306,-4.8306,-4.8306,-4.8379,-4.8746,-4.9205,-4.9682,-5.0013,-5.0196,-5.06,-5.1738,-5.172,-5.183,-5.2986,-5.3206,-5.3206,-5.3206,-5.3206,-5.3206,-5.3206,-5.3206,-5.3206,-5.3206,-5.3206,-5.3206,-5.3206,-5.3422,-5.3444,-5.3206,-5.3662,-5.3851,-5.3584,-5.3545,-5.3545,-5.3545,-5.3318,-5.3206,-5.3206,-5.3206,-5.3206,-5.3206,-5.3206,-5.3206,-5.3206,-5.3206,-5.3206,-4.53,0.0,0.0,0.0,0.0,0.0,0.0,0.0,0.0,0.0,0.0,0.0,0.0,0.0,-3.7305,0.0,0.0,0.0,0.0,0.0,0.0,0.0,0.0,0.0,0.0,0.0,0.0,0.0,0.0,0.0,-3.9258,-3.9835,-4.0662,-4.1777,-4.2412,-4.3143,-4.3951,-4.3393,-4.3816,-4.522,-4.392,-4.4037,-4.5457,-4.5362,-4.5182,-4.4966,-4.4966,-4.4757,-4.4401,-4.4117,-4.3955,-4.3818,-4.3597,-4.3646,-4.3849,-4.3849,-4.3693,-4.3497,-4.3497,-4.3497,-4.3534,-4.3754,-4.4764,-4.5938,-4.6159,-4.7205,-4.8306,-4.8306,-4.8306,-4.8306,-4.8306,-4.8765,-4.9297,-4.9517,-5.005,-5.0747,-5.1775,-5.183,-5.1903,-5.2711,-5.2876,-5.2876,-5.2876,-5.3059,-5.3206,-5.3206,-5.3206,-5.3206,-5.3206,-5.3206,-5.323,-5.3359,-5.3643,-5.372,-5.3563,-5.4156,-5.4355,-5.4013,-5.3888,-5.3814,-5.3814,-5.3422,-5.3206,-5.3206,-5.3206,-5.3206,-5.3206,-5.3206,-5.3206,-5.3206,-5.3206,-5.3206,0.0,0.0,0.0,-4.5586,0.0,0.0,0.0,0.0,-4.0508,0.0,0.0,0.0,0.0,-3.7891,-3.7305,-3.7305,0.0,0.0,0.0,0.0,0.0,0.0,0.0,0.0,0.0,0.0,0.0,0.0,0.0,0.0,-3.92,-3.9315,-4.0085,-4.1758,-4.1835,-4.2258,-4.3124,-4.3104,-4.3528,-4.4335,-4.3961,-4.4257,-4.5096,-4.4781,-4.465,-4.4624,-4.4624,-4.4392,-4.4016,-4.4016,-4.3804,-4.3513,-4.3479,-4.3532,-4.3513,-4.3513,-4.3513,-4.3497,-4.3497,-4.3497,-4.3626,-4.4415,-4.5223,-4.6049,-4.6838,-4.7645,-4.8306,-4.8306,-4.8306,-4.8306,-4.8306,-4.8324,-4.8545,-4.9389,-4.9609,-5.005,-5.1646,-5.1389,-5.1077,-5.1867,-5.2032,-5.2032,-5.2032,-5.2692,-5.3206,-5.3206,-5.3206,-5.3206,-5.3206,-5.3206,-5.3359,-5.3758,-5.3777,-5.3977,-5.4439,-5.4503,-5.4503,-5.4471,-5.4048,-5.3814,-5.3814,-5.3422,-5.3206,-5.3206,-5.3206,-5.3206,-5.3206,-5.3206,-5.3206,-5.3206,-5.3206,-5.3206,0.0,0.0,-4.4874,-4.5451,0.0,0.0,0.0,0.0,0.0,0.0,0.0,0.0,0.0,0.0,-3.8836,-3.826,-3.7384,0.0,0.0,0.0,0.0,0.0,0.0,0.0,0.0,0.0,0.0,0.0,0.0,0.0,0.0,-3.8988,-3.9796,-4.0893,-4.1508,-4.222,-4.3085,-4.3104,-4.3797,-4.5143,-4.4248,-4.4255,-4.5096,-4.4732,-4.4428,-4.4204,-4.4204,-4.3986,-4.3679,-4.3679,-4.3597,-4.3497,-4.3497,-4.3497,-4.3497,-4.3497,-4.3497,-4.3497,-4.3497,-4.3497,-4.3626,-4.4452,-4.5241,-4.6049,-4.6874,-4.7682,-4.8306,-4.8306,-4.8306,-4.8306,-4.8306,-4.8306,-4.8526,-4.937,-4.9994,-5.0545,-5.1096,-5.1408,-5.1518,-5.1261,-5.1206,-5.1371,-5.1903,-5.1983,-5.2227,-5.3065,-5.3422,-5.3604,-5.3604,-5.387,-5.3896,-5.3451,-5.4157,-5.4394,-5.3711,-5.3635,-5.3759,-5.4078,-5.3409,-5.2994,-5.2994,-5.3127,-5.3206,-5.3206,-5.3206,-5.3206,-5.3206,-5.3206,-5.3206,-5.3206,-5.3206,-5.3206,-4.522,-4.472,0.0,-4.4989,-4.4105,0.0,-4.3797,0.0,0.0,0.0,0.0,0.0,0.0,0.0,0.0,-3.8621,-3.7525,-3.6498,0.0,-3.557,0.0,0.0,0.0,0.0,0.0,0.0,0.0,-3.5064,-3.5815,0.0,0.0,0.0,-3.9219,-4.0046,-4.0893,-4.1706,-4.2466,-4.2574,-4.3419,-4.4959,-4.4045,-4.4079,-4.4896,-4.4419,-4.4065,-4.3836,-4.3836,-4.3693,-4.3497,-4.3497,-4.3497,-4.3497,-4.3497,-4.3497,-4.3497,-4.3497,-4.3497,-4.3497,-4.3497,-4.3497,-4.3626,-4.4452,-4.5241,-4.6049,-4.6874,-4.7682,-4.8306,-4.8306,-4.8306,-4.8306,-4.8306,-4.8306,-4.8526,-4.937,-4.9994,-5.0453,-5.0747,-5.0967,-5.0986,-5.0472,-5.0362,-5.0618,-5.1426,-5.1675,-5.2159,-5.3241,-5.3516,-5.3583,-5.3583,-5.3837,-5.3761,-5.3051,-5.3707,-5.4063,-5.3688,-5.3519,-5.3547,-5.3894,-5.3344,-5.2883,-5.2621,-5.2702,-5.2913,-5.3206,-5.2931,-5.2913,-5.3206,-5.3206,-5.3206,-5.3206,-5.3206,-5.3059]}]]